<?xml version="1.0" encoding="UTF-8" standalone="no" ?>
<gpx xmlns="http://www.topografix.com/GPX/1/1" xmlns:xsi="http://www.w3.org/2001/XMLSchema-instance" xsi:schemaLocation="http://www.topografix.com/GPX/1/1 http://www.topografix.com/GPX/1/1/gpx.xsd" version="1.1" creator="VisuGPX - https://www.visugpx.com">
  <metadata>
    <name>2024-10-31  Randonnée TwoNav</name>
    <desc><![CDATA[2024-10-31_111946.trk]]></desc>
  </metadata>
  <trk>
    <name><![CDATA[2024-10-31  Randonnée TwoNav_1]]></name>
    <trkseg>
      <trkpt lat="48.14624" lon="6.61851">
        <ele>379.8</ele>
        <time>2024-10-31T10:19:46Z</time>
      </trkpt>
      <trkpt lat="48.14624" lon="6.61851">
        <ele>379.8</ele>
        <time>2024-10-31T10:19:46Z</time>
      </trkpt>
      <trkpt lat="48.14622" lon="6.61856">
        <ele>379.8</ele>
        <time>2024-10-31T10:19:47Z</time>
      </trkpt>
      <trkpt lat="48.14611" lon="6.61855">
        <ele>379.7</ele>
        <time>2024-10-31T10:19:54Z</time>
      </trkpt>
      <trkpt lat="48.14609" lon="6.61853">
        <ele>379.7</ele>
        <time>2024-10-31T10:19:55Z</time>
      </trkpt>
      <trkpt lat="48.14607" lon="6.61852">
        <ele>379.7</ele>
        <time>2024-10-31T10:19:56Z</time>
      </trkpt>
      <trkpt lat="48.14606" lon="6.61852">
        <ele>379.7</ele>
        <time>2024-10-31T10:19:57Z</time>
      </trkpt>
      <trkpt lat="48.14604" lon="6.61853">
        <ele>379.7</ele>
        <time>2024-10-31T10:19:58Z</time>
      </trkpt>
      <trkpt lat="48.14603" lon="6.61853">
        <ele>379.7</ele>
        <time>2024-10-31T10:19:59Z</time>
      </trkpt>
      <trkpt lat="48.14599" lon="6.61868">
        <ele>379.6</ele>
        <time>2024-10-31T10:20:05Z</time>
      </trkpt>
      <trkpt lat="48.14596" lon="6.61882">
        <ele>379.5</ele>
        <time>2024-10-31T10:20:12Z</time>
      </trkpt>
      <trkpt lat="48.1459" lon="6.61893">
        <ele>379.4</ele>
        <time>2024-10-31T10:20:20Z</time>
      </trkpt>
      <trkpt lat="48.14583" lon="6.61903">
        <ele>379.4</ele>
        <time>2024-10-31T10:20:30Z</time>
      </trkpt>
      <trkpt lat="48.14577" lon="6.61914">
        <ele>379.4</ele>
        <time>2024-10-31T10:20:39Z</time>
      </trkpt>
      <trkpt lat="48.1457" lon="6.61925">
        <ele>379.5</ele>
        <time>2024-10-31T10:20:49Z</time>
      </trkpt>
      <trkpt lat="48.14565" lon="6.61936">
        <ele>379.6</ele>
        <time>2024-10-31T10:20:57Z</time>
      </trkpt>
      <trkpt lat="48.1456" lon="6.61948">
        <ele>379.7</ele>
        <time>2024-10-31T10:21:04Z</time>
      </trkpt>
      <trkpt lat="48.14557" lon="6.61963">
        <ele>379.8</ele>
        <time>2024-10-31T10:21:12Z</time>
      </trkpt>
      <trkpt lat="48.14553" lon="6.61975">
        <ele>379.9</ele>
        <time>2024-10-31T10:21:20Z</time>
      </trkpt>
      <trkpt lat="48.14548" lon="6.61988">
        <ele>380</ele>
        <time>2024-10-31T10:21:31Z</time>
      </trkpt>
      <trkpt lat="48.14543" lon="6.61999">
        <ele>380.1</ele>
        <time>2024-10-31T10:21:40Z</time>
      </trkpt>
      <trkpt lat="48.14537" lon="6.62009">
        <ele>380.2</ele>
        <time>2024-10-31T10:21:48Z</time>
      </trkpt>
      <trkpt lat="48.14531" lon="6.62021">
        <ele>380.2</ele>
        <time>2024-10-31T10:21:55Z</time>
      </trkpt>
      <trkpt lat="48.14525" lon="6.62032">
        <ele>380.3</ele>
        <time>2024-10-31T10:22:02Z</time>
      </trkpt>
      <trkpt lat="48.14518" lon="6.62042">
        <ele>380.4</ele>
        <time>2024-10-31T10:22:09Z</time>
      </trkpt>
      <trkpt lat="48.14511" lon="6.62052">
        <ele>380.5</ele>
        <time>2024-10-31T10:22:17Z</time>
      </trkpt>
      <trkpt lat="48.14503" lon="6.62062">
        <ele>380.7</ele>
        <time>2024-10-31T10:22:25Z</time>
      </trkpt>
      <trkpt lat="48.14498" lon="6.62075">
        <ele>380.9</ele>
        <time>2024-10-31T10:22:33Z</time>
      </trkpt>
      <trkpt lat="48.14492" lon="6.62086">
        <ele>381</ele>
        <time>2024-10-31T10:22:41Z</time>
      </trkpt>
      <trkpt lat="48.14486" lon="6.62097">
        <ele>381.2</ele>
        <time>2024-10-31T10:22:49Z</time>
      </trkpt>
      <trkpt lat="48.14481" lon="6.62109">
        <ele>381.4</ele>
        <time>2024-10-31T10:22:56Z</time>
      </trkpt>
      <trkpt lat="48.14476" lon="6.62121">
        <ele>381.5</ele>
        <time>2024-10-31T10:23:03Z</time>
      </trkpt>
      <trkpt lat="48.1447" lon="6.62133">
        <ele>381.6</ele>
        <time>2024-10-31T10:23:11Z</time>
      </trkpt>
      <trkpt lat="48.14463" lon="6.62144">
        <ele>381.7</ele>
        <time>2024-10-31T10:23:19Z</time>
      </trkpt>
      <trkpt lat="48.14456" lon="6.62154">
        <ele>381.8</ele>
        <time>2024-10-31T10:23:27Z</time>
      </trkpt>
      <trkpt lat="48.14448" lon="6.62163">
        <ele>382</ele>
        <time>2024-10-31T10:23:35Z</time>
      </trkpt>
      <trkpt lat="48.14439" lon="6.62163">
        <ele>382.2</ele>
        <time>2024-10-31T10:23:44Z</time>
      </trkpt>
      <trkpt lat="48.14438" lon="6.62173">
        <ele>382.3</ele>
        <time>2024-10-31T10:23:55Z</time>
      </trkpt>
      <trkpt lat="48.14438" lon="6.62173">
        <ele>382.3</ele>
        <time>2024-10-31T10:23:56Z</time>
      </trkpt>
      <trkpt lat="48.14439" lon="6.62173">
        <ele>382.3</ele>
        <time>2024-10-31T10:23:57Z</time>
      </trkpt>
      <trkpt lat="48.14439" lon="6.62172">
        <ele>382.3</ele>
        <time>2024-10-31T10:24:07Z</time>
      </trkpt>
      <trkpt lat="48.1444" lon="6.62171">
        <ele>382.3</ele>
        <time>2024-10-31T10:24:08Z</time>
      </trkpt>
      <trkpt lat="48.14441" lon="6.6217">
        <ele>382.3</ele>
        <time>2024-10-31T10:24:09Z</time>
      </trkpt>
      <trkpt lat="48.14443" lon="6.62159">
        <ele>382.3</ele>
        <time>2024-10-31T10:24:25Z</time>
      </trkpt>
      <trkpt lat="48.14443" lon="6.62159">
        <ele>382.3</ele>
        <time>2024-10-31T10:24:26Z</time>
      </trkpt>
      <trkpt lat="48.14441" lon="6.62156">
        <ele>382.3</ele>
        <time>2024-10-31T10:25:47Z</time>
      </trkpt>
      <trkpt lat="48.1444" lon="6.62156">
        <ele>382.3</ele>
        <time>2024-10-31T10:25:48Z</time>
      </trkpt>
      <trkpt lat="48.14431" lon="6.6215">
        <ele>382.4</ele>
        <time>2024-10-31T10:25:56Z</time>
      </trkpt>
      <trkpt lat="48.14422" lon="6.62152">
        <ele>382.5</ele>
        <time>2024-10-31T10:26:04Z</time>
      </trkpt>
      <trkpt lat="48.14412" lon="6.62153">
        <ele>382.6</ele>
        <time>2024-10-31T10:26:11Z</time>
      </trkpt>
      <trkpt lat="48.14403" lon="6.62157">
        <ele>382.6</ele>
        <time>2024-10-31T10:26:19Z</time>
      </trkpt>
      <trkpt lat="48.14393" lon="6.62159">
        <ele>382.9</ele>
        <time>2024-10-31T10:26:27Z</time>
      </trkpt>
      <trkpt lat="48.14384" lon="6.62163">
        <ele>383.3</ele>
        <time>2024-10-31T10:26:35Z</time>
      </trkpt>
      <trkpt lat="48.14374" lon="6.62164">
        <ele>383.9</ele>
        <time>2024-10-31T10:26:43Z</time>
      </trkpt>
      <trkpt lat="48.14365" lon="6.62166">
        <ele>384.4</ele>
        <time>2024-10-31T10:26:50Z</time>
      </trkpt>
      <trkpt lat="48.14355" lon="6.62168">
        <ele>385.1</ele>
        <time>2024-10-31T10:26:58Z</time>
      </trkpt>
      <trkpt lat="48.14346" lon="6.62166">
        <ele>385.6</ele>
        <time>2024-10-31T10:27:05Z</time>
      </trkpt>
      <trkpt lat="48.14336" lon="6.62167">
        <ele>386.1</ele>
        <time>2024-10-31T10:27:12Z</time>
      </trkpt>
      <trkpt lat="48.14327" lon="6.62169">
        <ele>386.4</ele>
        <time>2024-10-31T10:27:19Z</time>
      </trkpt>
      <trkpt lat="48.14317" lon="6.62169">
        <ele>386.9</ele>
        <time>2024-10-31T10:27:27Z</time>
      </trkpt>
      <trkpt lat="48.14308" lon="6.62169">
        <ele>387.6</ele>
        <time>2024-10-31T10:27:35Z</time>
      </trkpt>
      <trkpt lat="48.14298" lon="6.62171">
        <ele>388.4</ele>
        <time>2024-10-31T10:27:43Z</time>
      </trkpt>
      <trkpt lat="48.14289" lon="6.62174">
        <ele>389.3</ele>
        <time>2024-10-31T10:27:51Z</time>
      </trkpt>
      <trkpt lat="48.1428" lon="6.62181">
        <ele>390.5</ele>
        <time>2024-10-31T10:27:59Z</time>
      </trkpt>
      <trkpt lat="48.14274" lon="6.62191">
        <ele>391.9</ele>
        <time>2024-10-31T10:28:07Z</time>
      </trkpt>
      <trkpt lat="48.14266" lon="6.62201">
        <ele>393.3</ele>
        <time>2024-10-31T10:28:16Z</time>
      </trkpt>
      <trkpt lat="48.14258" lon="6.6221">
        <ele>394.5</ele>
        <time>2024-10-31T10:28:25Z</time>
      </trkpt>
      <trkpt lat="48.14249" lon="6.62214">
        <ele>395.6</ele>
        <time>2024-10-31T10:28:33Z</time>
      </trkpt>
      <trkpt lat="48.14239" lon="6.6222">
        <ele>396.8</ele>
        <time>2024-10-31T10:28:41Z</time>
      </trkpt>
      <trkpt lat="48.14231" lon="6.62226">
        <ele>398.1</ele>
        <time>2024-10-31T10:28:49Z</time>
      </trkpt>
      <trkpt lat="48.14223" lon="6.62235">
        <ele>399.6</ele>
        <time>2024-10-31T10:28:59Z</time>
      </trkpt>
      <trkpt lat="48.14216" lon="6.62244">
        <ele>401.2</ele>
        <time>2024-10-31T10:29:07Z</time>
      </trkpt>
      <trkpt lat="48.14207" lon="6.6225">
        <ele>403</ele>
        <time>2024-10-31T10:29:16Z</time>
      </trkpt>
      <trkpt lat="48.14199" lon="6.62258">
        <ele>404.9</ele>
        <time>2024-10-31T10:29:25Z</time>
      </trkpt>
      <trkpt lat="48.14195" lon="6.62271">
        <ele>406.6</ele>
        <time>2024-10-31T10:29:35Z</time>
      </trkpt>
      <trkpt lat="48.14188" lon="6.62281">
        <ele>408.4</ele>
        <time>2024-10-31T10:29:44Z</time>
      </trkpt>
      <trkpt lat="48.14179" lon="6.62285">
        <ele>410</ele>
        <time>2024-10-31T10:29:51Z</time>
      </trkpt>
      <trkpt lat="48.14169" lon="6.62288">
        <ele>411.5</ele>
        <time>2024-10-31T10:30:00Z</time>
      </trkpt>
      <trkpt lat="48.14159" lon="6.62295">
        <ele>413.1</ele>
        <time>2024-10-31T10:30:09Z</time>
      </trkpt>
      <trkpt lat="48.1415" lon="6.62296">
        <ele>414.6</ele>
        <time>2024-10-31T10:30:16Z</time>
      </trkpt>
      <trkpt lat="48.1414" lon="6.62298">
        <ele>416.3</ele>
        <time>2024-10-31T10:30:25Z</time>
      </trkpt>
      <trkpt lat="48.14131" lon="6.62293">
        <ele>417.8</ele>
        <time>2024-10-31T10:30:33Z</time>
      </trkpt>
      <trkpt lat="48.14123" lon="6.62301">
        <ele>418.9</ele>
        <time>2024-10-31T10:30:42Z</time>
      </trkpt>
      <trkpt lat="48.14116" lon="6.62312">
        <ele>419.9</ele>
        <time>2024-10-31T10:30:51Z</time>
      </trkpt>
      <trkpt lat="48.1411" lon="6.62324">
        <ele>420.7</ele>
        <time>2024-10-31T10:31:03Z</time>
      </trkpt>
      <trkpt lat="48.14108" lon="6.62339">
        <ele>421.3</ele>
        <time>2024-10-31T10:31:13Z</time>
      </trkpt>
      <trkpt lat="48.14102" lon="6.6235">
        <ele>421.7</ele>
        <time>2024-10-31T10:31:20Z</time>
      </trkpt>
      <trkpt lat="48.14095" lon="6.62361">
        <ele>421.9</ele>
        <time>2024-10-31T10:31:27Z</time>
      </trkpt>
      <trkpt lat="48.14089" lon="6.62371">
        <ele>422</ele>
        <time>2024-10-31T10:31:33Z</time>
      </trkpt>
      <trkpt lat="48.14085" lon="6.62385">
        <ele>422.1</ele>
        <time>2024-10-31T10:31:41Z</time>
      </trkpt>
      <trkpt lat="48.14081" lon="6.62398">
        <ele>422.2</ele>
        <time>2024-10-31T10:31:49Z</time>
      </trkpt>
      <trkpt lat="48.14077" lon="6.62412">
        <ele>422.3</ele>
        <time>2024-10-31T10:32:00Z</time>
      </trkpt>
      <trkpt lat="48.1407" lon="6.62422">
        <ele>422.6</ele>
        <time>2024-10-31T10:32:10Z</time>
      </trkpt>
      <trkpt lat="48.14066" lon="6.62435">
        <ele>423</ele>
        <time>2024-10-31T10:32:18Z</time>
      </trkpt>
      <trkpt lat="48.14063" lon="6.62447">
        <ele>423.5</ele>
        <time>2024-10-31T10:32:28Z</time>
      </trkpt>
      <trkpt lat="48.14053" lon="6.62447">
        <ele>424.2</ele>
        <time>2024-10-31T10:32:37Z</time>
      </trkpt>
      <trkpt lat="48.14043" lon="6.62447">
        <ele>424.9</ele>
        <time>2024-10-31T10:32:45Z</time>
      </trkpt>
      <trkpt lat="48.14035" lon="6.62455">
        <ele>425.6</ele>
        <time>2024-10-31T10:32:52Z</time>
      </trkpt>
      <trkpt lat="48.14027" lon="6.62463">
        <ele>426.2</ele>
        <time>2024-10-31T10:33:01Z</time>
      </trkpt>
      <trkpt lat="48.14018" lon="6.62471">
        <ele>426.7</ele>
        <time>2024-10-31T10:33:08Z</time>
      </trkpt>
      <trkpt lat="48.1401" lon="6.62479">
        <ele>427.2</ele>
        <time>2024-10-31T10:33:16Z</time>
      </trkpt>
      <trkpt lat="48.14001" lon="6.62483">
        <ele>427.8</ele>
        <time>2024-10-31T10:33:24Z</time>
      </trkpt>
      <trkpt lat="48.13993" lon="6.6249">
        <ele>428.4</ele>
        <time>2024-10-31T10:33:33Z</time>
      </trkpt>
      <trkpt lat="48.13983" lon="6.62493">
        <ele>429.3</ele>
        <time>2024-10-31T10:33:41Z</time>
      </trkpt>
      <trkpt lat="48.13974" lon="6.62497">
        <ele>430.2</ele>
        <time>2024-10-31T10:33:50Z</time>
      </trkpt>
      <trkpt lat="48.13965" lon="6.625">
        <ele>431.4</ele>
        <time>2024-10-31T10:33:58Z</time>
      </trkpt>
      <trkpt lat="48.13958" lon="6.62508">
        <ele>432.7</ele>
        <time>2024-10-31T10:34:08Z</time>
      </trkpt>
      <trkpt lat="48.13949" lon="6.62513">
        <ele>434</ele>
        <time>2024-10-31T10:34:15Z</time>
      </trkpt>
      <trkpt lat="48.1394" lon="6.62519">
        <ele>435.4</ele>
        <time>2024-10-31T10:34:26Z</time>
      </trkpt>
      <trkpt lat="48.1393" lon="6.6252">
        <ele>436.7</ele>
        <time>2024-10-31T10:34:33Z</time>
      </trkpt>
      <trkpt lat="48.13921" lon="6.6252">
        <ele>437.8</ele>
        <time>2024-10-31T10:34:39Z</time>
      </trkpt>
      <trkpt lat="48.13913" lon="6.62527">
        <ele>438.8</ele>
        <time>2024-10-31T10:34:49Z</time>
      </trkpt>
      <trkpt lat="48.13904" lon="6.62535">
        <ele>439.8</ele>
        <time>2024-10-31T10:34:58Z</time>
      </trkpt>
      <trkpt lat="48.13899" lon="6.62546">
        <ele>440.5</ele>
        <time>2024-10-31T10:35:08Z</time>
      </trkpt>
      <trkpt lat="48.13893" lon="6.62557">
        <ele>441</ele>
        <time>2024-10-31T10:35:15Z</time>
      </trkpt>
      <trkpt lat="48.13886" lon="6.62565">
        <ele>441.6</ele>
        <time>2024-10-31T10:35:22Z</time>
      </trkpt>
      <trkpt lat="48.13885" lon="6.62567">
        <ele>441.7</ele>
        <time>2024-10-31T10:35:27Z</time>
      </trkpt>
      <trkpt lat="48.13884" lon="6.62567">
        <ele>441.7</ele>
        <time>2024-10-31T10:35:28Z</time>
      </trkpt>
      <trkpt lat="48.13884" lon="6.62567">
        <ele>441.8</ele>
        <time>2024-10-31T10:35:29Z</time>
      </trkpt>
      <trkpt lat="48.13883" lon="6.62567">
        <ele>441.8</ele>
        <time>2024-10-31T10:35:30Z</time>
      </trkpt>
      <trkpt lat="48.13882" lon="6.62568">
        <ele>441.9</ele>
        <time>2024-10-31T10:35:31Z</time>
      </trkpt>
      <trkpt lat="48.13874" lon="6.62573">
        <ele>442.5</ele>
        <time>2024-10-31T10:35:39Z</time>
      </trkpt>
      <trkpt lat="48.13866" lon="6.62581">
        <ele>443.2</ele>
        <time>2024-10-31T10:35:49Z</time>
      </trkpt>
      <trkpt lat="48.13856" lon="6.62586">
        <ele>444.1</ele>
        <time>2024-10-31T10:35:57Z</time>
      </trkpt>
      <trkpt lat="48.13847" lon="6.62589">
        <ele>445.2</ele>
        <time>2024-10-31T10:36:06Z</time>
      </trkpt>
      <trkpt lat="48.13837" lon="6.62591">
        <ele>446.4</ele>
        <time>2024-10-31T10:36:17Z</time>
      </trkpt>
      <trkpt lat="48.13827" lon="6.62591">
        <ele>447.7</ele>
        <time>2024-10-31T10:36:26Z</time>
      </trkpt>
      <trkpt lat="48.13818" lon="6.62592">
        <ele>448.9</ele>
        <time>2024-10-31T10:36:33Z</time>
      </trkpt>
      <trkpt lat="48.13809" lon="6.62591">
        <ele>450.1</ele>
        <time>2024-10-31T10:36:41Z</time>
      </trkpt>
      <trkpt lat="48.13806" lon="6.62596">
        <ele>450.7</ele>
        <time>2024-10-31T10:36:49Z</time>
      </trkpt>
      <trkpt lat="48.13806" lon="6.62597">
        <ele>450.7</ele>
        <time>2024-10-31T10:36:50Z</time>
      </trkpt>
      <trkpt lat="48.13806" lon="6.62597">
        <ele>450.7</ele>
        <time>2024-10-31T10:36:51Z</time>
      </trkpt>
      <trkpt lat="48.13806" lon="6.62596">
        <ele>450.7</ele>
        <time>2024-10-31T10:37:02Z</time>
      </trkpt>
      <trkpt lat="48.13806" lon="6.62596">
        <ele>450.7</ele>
        <time>2024-10-31T10:37:03Z</time>
      </trkpt>
      <trkpt lat="48.13806" lon="6.62596">
        <ele>450.7</ele>
        <time>2024-10-31T10:37:04Z</time>
      </trkpt>
      <trkpt lat="48.13806" lon="6.62596">
        <ele>450.7</ele>
        <time>2024-10-31T10:37:05Z</time>
      </trkpt>
      <trkpt lat="48.13806" lon="6.62596">
        <ele>450.7</ele>
        <time>2024-10-31T10:37:06Z</time>
      </trkpt>
      <trkpt lat="48.13806" lon="6.62597">
        <ele>450.7</ele>
        <time>2024-10-31T10:37:13Z</time>
      </trkpt>
      <trkpt lat="48.13806" lon="6.62598">
        <ele>450.7</ele>
        <time>2024-10-31T10:37:14Z</time>
      </trkpt>
      <trkpt lat="48.13809" lon="6.62594">
        <ele>450.6</ele>
        <time>2024-10-31T10:37:27Z</time>
      </trkpt>
      <trkpt lat="48.13809" lon="6.62594">
        <ele>450.6</ele>
        <time>2024-10-31T10:37:28Z</time>
      </trkpt>
      <trkpt lat="48.13809" lon="6.62594">
        <ele>450.6</ele>
        <time>2024-10-31T10:37:29Z</time>
      </trkpt>
      <trkpt lat="48.13809" lon="6.62593">
        <ele>450.6</ele>
        <time>2024-10-31T10:37:42Z</time>
      </trkpt>
      <trkpt lat="48.1381" lon="6.62592">
        <ele>450.6</ele>
        <time>2024-10-31T10:37:43Z</time>
      </trkpt>
      <trkpt lat="48.1381" lon="6.62591">
        <ele>450.6</ele>
        <time>2024-10-31T10:37:44Z</time>
      </trkpt>
      <trkpt lat="48.13815" lon="6.62578">
        <ele>450.3</ele>
        <time>2024-10-31T10:37:52Z</time>
      </trkpt>
      <trkpt lat="48.13815" lon="6.62563">
        <ele>449.9</ele>
        <time>2024-10-31T10:38:02Z</time>
      </trkpt>
      <trkpt lat="48.13818" lon="6.62549">
        <ele>449.5</ele>
        <time>2024-10-31T10:38:12Z</time>
      </trkpt>
      <trkpt lat="48.13821" lon="6.62535">
        <ele>449.1</ele>
        <time>2024-10-31T10:38:22Z</time>
      </trkpt>
      <trkpt lat="48.13822" lon="6.62521">
        <ele>448.7</ele>
        <time>2024-10-31T10:38:30Z</time>
      </trkpt>
      <trkpt lat="48.13825" lon="6.62508">
        <ele>448.3</ele>
        <time>2024-10-31T10:38:39Z</time>
      </trkpt>
      <trkpt lat="48.13827" lon="6.62494">
        <ele>447.9</ele>
        <time>2024-10-31T10:38:48Z</time>
      </trkpt>
      <trkpt lat="48.1383" lon="6.62481">
        <ele>447.5</ele>
        <time>2024-10-31T10:38:58Z</time>
      </trkpt>
      <trkpt lat="48.13831" lon="6.62466">
        <ele>447</ele>
        <time>2024-10-31T10:39:08Z</time>
      </trkpt>
      <trkpt lat="48.13834" lon="6.62453">
        <ele>446.4</ele>
        <time>2024-10-31T10:39:20Z</time>
      </trkpt>
      <trkpt lat="48.13834" lon="6.62448">
        <ele>446.1</ele>
        <time>2024-10-31T10:39:27Z</time>
      </trkpt>
      <trkpt lat="48.13834" lon="6.62448">
        <ele>446.1</ele>
        <time>2024-10-31T10:39:28Z</time>
      </trkpt>
      <trkpt lat="48.13834" lon="6.62445">
        <ele>446</ele>
        <time>2024-10-31T10:39:34Z</time>
      </trkpt>
      <trkpt lat="48.13834" lon="6.62444">
        <ele>445.9</ele>
        <time>2024-10-31T10:39:35Z</time>
      </trkpt>
      <trkpt lat="48.13834" lon="6.62443">
        <ele>445.9</ele>
        <time>2024-10-31T10:39:36Z</time>
      </trkpt>
      <trkpt lat="48.13836" lon="6.62429">
        <ele>445.1</ele>
        <time>2024-10-31T10:39:46Z</time>
      </trkpt>
      <trkpt lat="48.13838" lon="6.62415">
        <ele>444.4</ele>
        <time>2024-10-31T10:39:56Z</time>
      </trkpt>
      <trkpt lat="48.13843" lon="6.62403">
        <ele>443.7</ele>
        <time>2024-10-31T10:40:05Z</time>
      </trkpt>
      <trkpt lat="48.13847" lon="6.6239">
        <ele>443.1</ele>
        <time>2024-10-31T10:40:14Z</time>
      </trkpt>
      <trkpt lat="48.13852" lon="6.62379">
        <ele>442.4</ele>
        <time>2024-10-31T10:40:24Z</time>
      </trkpt>
      <trkpt lat="48.13858" lon="6.62368">
        <ele>441.6</ele>
        <time>2024-10-31T10:40:35Z</time>
      </trkpt>
      <trkpt lat="48.13863" lon="6.62355">
        <ele>440.8</ele>
        <time>2024-10-31T10:40:46Z</time>
      </trkpt>
      <trkpt lat="48.13869" lon="6.62343">
        <ele>440.1</ele>
        <time>2024-10-31T10:40:56Z</time>
      </trkpt>
      <trkpt lat="48.13872" lon="6.6233">
        <ele>439.4</ele>
        <time>2024-10-31T10:41:05Z</time>
      </trkpt>
      <trkpt lat="48.13875" lon="6.62317">
        <ele>438.6</ele>
        <time>2024-10-31T10:41:17Z</time>
      </trkpt>
      <trkpt lat="48.13877" lon="6.62304">
        <ele>437.9</ele>
        <time>2024-10-31T10:41:28Z</time>
      </trkpt>
      <trkpt lat="48.13874" lon="6.6229">
        <ele>437.1</ele>
        <time>2024-10-31T10:41:40Z</time>
      </trkpt>
      <trkpt lat="48.13871" lon="6.62276">
        <ele>436.3</ele>
        <time>2024-10-31T10:41:50Z</time>
      </trkpt>
      <trkpt lat="48.13867" lon="6.62263">
        <ele>435.5</ele>
        <time>2024-10-31T10:42:01Z</time>
      </trkpt>
      <trkpt lat="48.13863" lon="6.6225">
        <ele>435</ele>
        <time>2024-10-31T10:42:10Z</time>
      </trkpt>
      <trkpt lat="48.13858" lon="6.62238">
        <ele>434.3</ele>
        <time>2024-10-31T10:42:20Z</time>
      </trkpt>
      <trkpt lat="48.13849" lon="6.62242">
        <ele>434.7</ele>
        <time>2024-10-31T10:42:30Z</time>
      </trkpt>
      <trkpt lat="48.13842" lon="6.62251">
        <ele>435.2</ele>
        <time>2024-10-31T10:42:39Z</time>
      </trkpt>
      <trkpt lat="48.13834" lon="6.6226">
        <ele>435.7</ele>
        <time>2024-10-31T10:42:48Z</time>
      </trkpt>
      <trkpt lat="48.13828" lon="6.62271">
        <ele>436.3</ele>
        <time>2024-10-31T10:42:58Z</time>
      </trkpt>
      <trkpt lat="48.1382" lon="6.62277">
        <ele>436.9</ele>
        <time>2024-10-31T10:43:07Z</time>
      </trkpt>
      <trkpt lat="48.1381" lon="6.62279">
        <ele>437.6</ele>
        <time>2024-10-31T10:43:16Z</time>
      </trkpt>
      <trkpt lat="48.13801" lon="6.62277">
        <ele>438.3</ele>
        <time>2024-10-31T10:43:25Z</time>
      </trkpt>
      <trkpt lat="48.13792" lon="6.62273">
        <ele>439.1</ele>
        <time>2024-10-31T10:43:34Z</time>
      </trkpt>
      <trkpt lat="48.13783" lon="6.62271">
        <ele>439.8</ele>
        <time>2024-10-31T10:43:43Z</time>
      </trkpt>
      <trkpt lat="48.13773" lon="6.62269">
        <ele>440.6</ele>
        <time>2024-10-31T10:43:52Z</time>
      </trkpt>
      <trkpt lat="48.13764" lon="6.62267">
        <ele>441.4</ele>
        <time>2024-10-31T10:44:01Z</time>
      </trkpt>
      <trkpt lat="48.13754" lon="6.62265">
        <ele>442.2</ele>
        <time>2024-10-31T10:44:10Z</time>
      </trkpt>
      <trkpt lat="48.13744" lon="6.62263">
        <ele>443</ele>
        <time>2024-10-31T10:44:19Z</time>
      </trkpt>
      <trkpt lat="48.13735" lon="6.62262">
        <ele>443.8</ele>
        <time>2024-10-31T10:44:27Z</time>
      </trkpt>
      <trkpt lat="48.13725" lon="6.6226">
        <ele>444.9</ele>
        <time>2024-10-31T10:44:37Z</time>
      </trkpt>
      <trkpt lat="48.13715" lon="6.62262">
        <ele>446</ele>
        <time>2024-10-31T10:44:47Z</time>
      </trkpt>
      <trkpt lat="48.13706" lon="6.62266">
        <ele>447.2</ele>
        <time>2024-10-31T10:44:55Z</time>
      </trkpt>
      <trkpt lat="48.13697" lon="6.62273">
        <ele>448.4</ele>
        <time>2024-10-31T10:45:02Z</time>
      </trkpt>
      <trkpt lat="48.13688" lon="6.62278">
        <ele>449.4</ele>
        <time>2024-10-31T10:45:09Z</time>
      </trkpt>
      <trkpt lat="48.13681" lon="6.62288">
        <ele>450.3</ele>
        <time>2024-10-31T10:45:19Z</time>
      </trkpt>
      <trkpt lat="48.13672" lon="6.62294">
        <ele>451.2</ele>
        <time>2024-10-31T10:45:30Z</time>
      </trkpt>
      <trkpt lat="48.13664" lon="6.62301">
        <ele>452.1</ele>
        <time>2024-10-31T10:45:38Z</time>
      </trkpt>
      <trkpt lat="48.13656" lon="6.62308">
        <ele>453</ele>
        <time>2024-10-31T10:45:46Z</time>
      </trkpt>
      <trkpt lat="48.13647" lon="6.62313">
        <ele>453.9</ele>
        <time>2024-10-31T10:45:53Z</time>
      </trkpt>
      <trkpt lat="48.13638" lon="6.62315">
        <ele>454.8</ele>
        <time>2024-10-31T10:46:00Z</time>
      </trkpt>
      <trkpt lat="48.13628" lon="6.62318">
        <ele>455.7</ele>
        <time>2024-10-31T10:46:10Z</time>
      </trkpt>
      <trkpt lat="48.13619" lon="6.6232">
        <ele>456.6</ele>
        <time>2024-10-31T10:46:20Z</time>
      </trkpt>
      <trkpt lat="48.1361" lon="6.62322">
        <ele>457.4</ele>
        <time>2024-10-31T10:46:29Z</time>
      </trkpt>
      <trkpt lat="48.136" lon="6.62324">
        <ele>458.2</ele>
        <time>2024-10-31T10:46:35Z</time>
      </trkpt>
      <trkpt lat="48.13591" lon="6.62326">
        <ele>459</ele>
        <time>2024-10-31T10:46:43Z</time>
      </trkpt>
      <trkpt lat="48.13582" lon="6.62332">
        <ele>459.9</ele>
        <time>2024-10-31T10:46:53Z</time>
      </trkpt>
      <trkpt lat="48.13573" lon="6.62337">
        <ele>460.8</ele>
        <time>2024-10-31T10:47:03Z</time>
      </trkpt>
      <trkpt lat="48.13566" lon="6.62347">
        <ele>461.8</ele>
        <time>2024-10-31T10:47:13Z</time>
      </trkpt>
      <trkpt lat="48.13559" lon="6.62356">
        <ele>462.9</ele>
        <time>2024-10-31T10:47:21Z</time>
      </trkpt>
      <trkpt lat="48.13553" lon="6.62368">
        <ele>464.1</ele>
        <time>2024-10-31T10:47:31Z</time>
      </trkpt>
      <trkpt lat="48.13549" lon="6.6238">
        <ele>465.5</ele>
        <time>2024-10-31T10:47:41Z</time>
      </trkpt>
      <trkpt lat="48.13548" lon="6.62394">
        <ele>467.1</ele>
        <time>2024-10-31T10:47:54Z</time>
      </trkpt>
      <trkpt lat="48.13541" lon="6.62404">
        <ele>468.7</ele>
        <time>2024-10-31T10:48:06Z</time>
      </trkpt>
      <trkpt lat="48.13532" lon="6.62409">
        <ele>470.2</ele>
        <time>2024-10-31T10:48:20Z</time>
      </trkpt>
      <trkpt lat="48.13524" lon="6.62416">
        <ele>471.8</ele>
        <time>2024-10-31T10:48:35Z</time>
      </trkpt>
      <trkpt lat="48.13515" lon="6.62425">
        <ele>473.6</ele>
        <time>2024-10-31T10:48:48Z</time>
      </trkpt>
      <trkpt lat="48.13508" lon="6.62432">
        <ele>475.2</ele>
        <time>2024-10-31T10:49:01Z</time>
      </trkpt>
      <trkpt lat="48.13501" lon="6.62441">
        <ele>476.8</ele>
        <time>2024-10-31T10:49:12Z</time>
      </trkpt>
      <trkpt lat="48.13492" lon="6.62448">
        <ele>478.5</ele>
        <time>2024-10-31T10:49:24Z</time>
      </trkpt>
      <trkpt lat="48.13485" lon="6.62454">
        <ele>480.1</ele>
        <time>2024-10-31T10:49:39Z</time>
      </trkpt>
      <trkpt lat="48.13485" lon="6.62454">
        <ele>480.1</ele>
        <time>2024-10-31T10:49:40Z</time>
      </trkpt>
      <trkpt lat="48.13485" lon="6.62454">
        <ele>480.1</ele>
        <time>2024-10-31T10:49:41Z</time>
      </trkpt>
      <trkpt lat="48.13484" lon="6.62457">
        <ele>480.5</ele>
        <time>2024-10-31T10:49:55Z</time>
      </trkpt>
      <trkpt lat="48.13483" lon="6.62458">
        <ele>480.6</ele>
        <time>2024-10-31T10:49:56Z</time>
      </trkpt>
      <trkpt lat="48.13476" lon="6.62466">
        <ele>482.3</ele>
        <time>2024-10-31T10:50:11Z</time>
      </trkpt>
      <trkpt lat="48.13469" lon="6.62474">
        <ele>484</ele>
        <time>2024-10-31T10:50:26Z</time>
      </trkpt>
      <trkpt lat="48.1346" lon="6.62482">
        <ele>485.8</ele>
        <time>2024-10-31T10:50:40Z</time>
      </trkpt>
      <trkpt lat="48.13453" lon="6.62489">
        <ele>487.5</ele>
        <time>2024-10-31T10:50:53Z</time>
      </trkpt>
      <trkpt lat="48.13445" lon="6.62496">
        <ele>489.2</ele>
        <time>2024-10-31T10:51:10Z</time>
      </trkpt>
      <trkpt lat="48.13437" lon="6.62502">
        <ele>490.9</ele>
        <time>2024-10-31T10:51:21Z</time>
      </trkpt>
      <trkpt lat="48.13431" lon="6.62504">
        <ele>491.9</ele>
        <time>2024-10-31T10:51:29Z</time>
      </trkpt>
      <trkpt lat="48.13431" lon="6.62504">
        <ele>491.9</ele>
        <time>2024-10-31T10:51:30Z</time>
      </trkpt>
      <trkpt lat="48.1343" lon="6.62504">
        <ele>491.9</ele>
        <time>2024-10-31T10:51:31Z</time>
      </trkpt>
      <trkpt lat="48.1343" lon="6.62503">
        <ele>491.9</ele>
        <time>2024-10-31T10:53:04Z</time>
      </trkpt>
      <trkpt lat="48.1343" lon="6.62503">
        <ele>491.9</ele>
        <time>2024-10-31T10:53:05Z</time>
      </trkpt>
      <trkpt lat="48.1343" lon="6.62503">
        <ele>491.9</ele>
        <time>2024-10-31T10:53:06Z</time>
      </trkpt>
      <trkpt lat="48.1343" lon="6.62503">
        <ele>491.9</ele>
        <time>2024-10-31T10:53:10Z</time>
      </trkpt>
      <trkpt lat="48.1343" lon="6.62503">
        <ele>491.9</ele>
        <time>2024-10-31T10:53:11Z</time>
      </trkpt>
      <trkpt lat="48.1343" lon="6.62504">
        <ele>491.9</ele>
        <time>2024-10-31T10:55:12Z</time>
      </trkpt>
      <trkpt lat="48.1343" lon="6.62504">
        <ele>491.9</ele>
        <time>2024-10-31T10:55:13Z</time>
      </trkpt>
      <trkpt lat="48.1343" lon="6.62504">
        <ele>491.9</ele>
        <time>2024-10-31T10:55:14Z</time>
      </trkpt>
      <trkpt lat="48.1343" lon="6.62504">
        <ele>491.9</ele>
        <time>2024-10-31T10:55:15Z</time>
      </trkpt>
      <trkpt lat="48.1343" lon="6.62504">
        <ele>491.9</ele>
        <time>2024-10-31T10:55:16Z</time>
      </trkpt>
      <trkpt lat="48.13429" lon="6.62504">
        <ele>491.9</ele>
        <time>2024-10-31T10:55:44Z</time>
      </trkpt>
      <trkpt lat="48.13428" lon="6.62505">
        <ele>491.9</ele>
        <time>2024-10-31T10:55:45Z</time>
      </trkpt>
      <trkpt lat="48.13427" lon="6.62505">
        <ele>491.9</ele>
        <time>2024-10-31T10:55:46Z</time>
      </trkpt>
      <trkpt lat="48.13417" lon="6.62507">
        <ele>491.9</ele>
        <time>2024-10-31T10:55:56Z</time>
      </trkpt>
      <trkpt lat="48.13408" lon="6.6251">
        <ele>491.8</ele>
        <time>2024-10-31T10:56:04Z</time>
      </trkpt>
      <trkpt lat="48.13399" lon="6.62512">
        <ele>491.9</ele>
        <time>2024-10-31T10:56:13Z</time>
      </trkpt>
      <trkpt lat="48.1339" lon="6.62514">
        <ele>492.1</ele>
        <time>2024-10-31T10:56:20Z</time>
      </trkpt>
      <trkpt lat="48.1338" lon="6.62517">
        <ele>492.4</ele>
        <time>2024-10-31T10:56:29Z</time>
      </trkpt>
      <trkpt lat="48.1337" lon="6.62519">
        <ele>492.7</ele>
        <time>2024-10-31T10:56:40Z</time>
      </trkpt>
      <trkpt lat="48.13361" lon="6.62518">
        <ele>492.9</ele>
        <time>2024-10-31T10:56:48Z</time>
      </trkpt>
      <trkpt lat="48.13351" lon="6.62514">
        <ele>493.1</ele>
        <time>2024-10-31T10:56:55Z</time>
      </trkpt>
      <trkpt lat="48.13342" lon="6.6251">
        <ele>493.3</ele>
        <time>2024-10-31T10:57:04Z</time>
      </trkpt>
      <trkpt lat="48.13334" lon="6.625">
        <ele>493.4</ele>
        <time>2024-10-31T10:57:12Z</time>
      </trkpt>
      <trkpt lat="48.13327" lon="6.62491">
        <ele>493.6</ele>
        <time>2024-10-31T10:57:22Z</time>
      </trkpt>
      <trkpt lat="48.13319" lon="6.62483">
        <ele>493.8</ele>
        <time>2024-10-31T10:57:31Z</time>
      </trkpt>
      <trkpt lat="48.13311" lon="6.62476">
        <ele>493.9</ele>
        <time>2024-10-31T10:57:41Z</time>
      </trkpt>
      <trkpt lat="48.13303" lon="6.62469">
        <ele>494</ele>
        <time>2024-10-31T10:57:50Z</time>
      </trkpt>
      <trkpt lat="48.13295" lon="6.62462">
        <ele>494</ele>
        <time>2024-10-31T10:57:59Z</time>
      </trkpt>
      <trkpt lat="48.13287" lon="6.62454">
        <ele>494</ele>
        <time>2024-10-31T10:58:08Z</time>
      </trkpt>
      <trkpt lat="48.13279" lon="6.62445">
        <ele>494.1</ele>
        <time>2024-10-31T10:58:18Z</time>
      </trkpt>
      <trkpt lat="48.13272" lon="6.62436">
        <ele>494.3</ele>
        <time>2024-10-31T10:58:28Z</time>
      </trkpt>
      <trkpt lat="48.13266" lon="6.62424">
        <ele>494.7</ele>
        <time>2024-10-31T10:58:38Z</time>
      </trkpt>
      <trkpt lat="48.13259" lon="6.62415">
        <ele>495</ele>
        <time>2024-10-31T10:58:49Z</time>
      </trkpt>
      <trkpt lat="48.13253" lon="6.62405">
        <ele>495.4</ele>
        <time>2024-10-31T10:58:58Z</time>
      </trkpt>
      <trkpt lat="48.13247" lon="6.62396">
        <ele>495.7</ele>
        <time>2024-10-31T10:59:07Z</time>
      </trkpt>
      <trkpt lat="48.13239" lon="6.62387">
        <ele>496</ele>
        <time>2024-10-31T10:59:16Z</time>
      </trkpt>
      <trkpt lat="48.13232" lon="6.6238">
        <ele>496.4</ele>
        <time>2024-10-31T10:59:25Z</time>
      </trkpt>
      <trkpt lat="48.13226" lon="6.62369">
        <ele>496.7</ele>
        <time>2024-10-31T10:59:34Z</time>
      </trkpt>
      <trkpt lat="48.13223" lon="6.62356">
        <ele>497.1</ele>
        <time>2024-10-31T10:59:44Z</time>
      </trkpt>
      <trkpt lat="48.13218" lon="6.62344">
        <ele>497.5</ele>
        <time>2024-10-31T10:59:54Z</time>
      </trkpt>
      <trkpt lat="48.1321" lon="6.62336">
        <ele>498</ele>
        <time>2024-10-31T11:00:03Z</time>
      </trkpt>
      <trkpt lat="48.13202" lon="6.62327">
        <ele>498.4</ele>
        <time>2024-10-31T11:00:09Z</time>
      </trkpt>
      <trkpt lat="48.13194" lon="6.62319">
        <ele>498.9</ele>
        <time>2024-10-31T11:00:17Z</time>
      </trkpt>
      <trkpt lat="48.13188" lon="6.62311">
        <ele>499.4</ele>
        <time>2024-10-31T11:00:29Z</time>
      </trkpt>
      <trkpt lat="48.13188" lon="6.62311">
        <ele>499.4</ele>
        <time>2024-10-31T11:00:30Z</time>
      </trkpt>
      <trkpt lat="48.13188" lon="6.62311">
        <ele>499.4</ele>
        <time>2024-10-31T11:00:31Z</time>
      </trkpt>
      <trkpt lat="48.13188" lon="6.62309">
        <ele>499.4</ele>
        <time>2024-10-31T11:00:48Z</time>
      </trkpt>
      <trkpt lat="48.13187" lon="6.62308">
        <ele>499.5</ele>
        <time>2024-10-31T11:00:49Z</time>
      </trkpt>
      <trkpt lat="48.1318" lon="6.62299">
        <ele>499.9</ele>
        <time>2024-10-31T11:00:59Z</time>
      </trkpt>
      <trkpt lat="48.13173" lon="6.62289">
        <ele>500.2</ele>
        <time>2024-10-31T11:01:08Z</time>
      </trkpt>
      <trkpt lat="48.13166" lon="6.62282">
        <ele>500.4</ele>
        <time>2024-10-31T11:01:16Z</time>
      </trkpt>
      <trkpt lat="48.13159" lon="6.62272">
        <ele>500.5</ele>
        <time>2024-10-31T11:01:27Z</time>
      </trkpt>
      <trkpt lat="48.13154" lon="6.6226">
        <ele>500.6</ele>
        <time>2024-10-31T11:01:37Z</time>
      </trkpt>
      <trkpt lat="48.13154" lon="6.62245">
        <ele>500.7</ele>
        <time>2024-10-31T11:01:47Z</time>
      </trkpt>
      <trkpt lat="48.13153" lon="6.62239">
        <ele>500.7</ele>
        <time>2024-10-31T11:01:58Z</time>
      </trkpt>
      <trkpt lat="48.13153" lon="6.62239">
        <ele>500.7</ele>
        <time>2024-10-31T11:01:59Z</time>
      </trkpt>
      <trkpt lat="48.13153" lon="6.6224">
        <ele>500.7</ele>
        <time>2024-10-31T11:06:32Z</time>
      </trkpt>
      <trkpt lat="48.13153" lon="6.6224">
        <ele>500.7</ele>
        <time>2024-10-31T11:06:33Z</time>
      </trkpt>
      <trkpt lat="48.13153" lon="6.6224">
        <ele>500.7</ele>
        <time>2024-10-31T11:06:34Z</time>
      </trkpt>
      <trkpt lat="48.13153" lon="6.6224">
        <ele>500.7</ele>
        <time>2024-10-31T11:06:35Z</time>
      </trkpt>
      <trkpt lat="48.13153" lon="6.6224">
        <ele>500.7</ele>
        <time>2024-10-31T11:06:36Z</time>
      </trkpt>
      <trkpt lat="48.13154" lon="6.6224">
        <ele>500.7</ele>
        <time>2024-10-31T11:06:37Z</time>
      </trkpt>
      <trkpt lat="48.13155" lon="6.62239">
        <ele>500.7</ele>
        <time>2024-10-31T11:06:40Z</time>
      </trkpt>
      <trkpt lat="48.13155" lon="6.62239">
        <ele>500.7</ele>
        <time>2024-10-31T11:06:41Z</time>
      </trkpt>
      <trkpt lat="48.13155" lon="6.62239">
        <ele>500.7</ele>
        <time>2024-10-31T11:06:42Z</time>
      </trkpt>
      <trkpt lat="48.13155" lon="6.62239">
        <ele>500.7</ele>
        <time>2024-10-31T11:06:45Z</time>
      </trkpt>
      <trkpt lat="48.13155" lon="6.62239">
        <ele>500.7</ele>
        <time>2024-10-31T11:06:46Z</time>
      </trkpt>
      <trkpt lat="48.13155" lon="6.62239">
        <ele>500.7</ele>
        <time>2024-10-31T11:06:47Z</time>
      </trkpt>
      <trkpt lat="48.13156" lon="6.62238">
        <ele>500.7</ele>
        <time>2024-10-31T11:07:00Z</time>
      </trkpt>
      <trkpt lat="48.13155" lon="6.62239">
        <ele>500.7</ele>
        <time>2024-10-31T11:07:01Z</time>
      </trkpt>
      <trkpt lat="48.13156" lon="6.62252">
        <ele>500.7</ele>
        <time>2024-10-31T11:07:10Z</time>
      </trkpt>
      <trkpt lat="48.13161" lon="6.62264">
        <ele>500.6</ele>
        <time>2024-10-31T11:07:19Z</time>
      </trkpt>
      <trkpt lat="48.13162" lon="6.62277">
        <ele>500.5</ele>
        <time>2024-10-31T11:07:33Z</time>
      </trkpt>
      <trkpt lat="48.13162" lon="6.62277">
        <ele>500.5</ele>
        <time>2024-10-31T11:07:34Z</time>
      </trkpt>
      <trkpt lat="48.13161" lon="6.62279">
        <ele>500.5</ele>
        <time>2024-10-31T11:07:44Z</time>
      </trkpt>
      <trkpt lat="48.13161" lon="6.6228">
        <ele>500.5</ele>
        <time>2024-10-31T11:07:45Z</time>
      </trkpt>
      <trkpt lat="48.13162" lon="6.62281">
        <ele>500.5</ele>
        <time>2024-10-31T11:07:46Z</time>
      </trkpt>
      <trkpt lat="48.13163" lon="6.62287">
        <ele>500.4</ele>
        <time>2024-10-31T11:07:54Z</time>
      </trkpt>
      <trkpt lat="48.13163" lon="6.62287">
        <ele>500.4</ele>
        <time>2024-10-31T11:07:55Z</time>
      </trkpt>
      <trkpt lat="48.13163" lon="6.62287">
        <ele>500.4</ele>
        <time>2024-10-31T11:07:56Z</time>
      </trkpt>
      <trkpt lat="48.13165" lon="6.62288">
        <ele>500.4</ele>
        <time>2024-10-31T11:08:35Z</time>
      </trkpt>
      <trkpt lat="48.13165" lon="6.62289">
        <ele>500.4</ele>
        <time>2024-10-31T11:08:36Z</time>
      </trkpt>
      <trkpt lat="48.13173" lon="6.62297">
        <ele>500.3</ele>
        <time>2024-10-31T11:08:45Z</time>
      </trkpt>
      <trkpt lat="48.13164" lon="6.62294">
        <ele>500.4</ele>
        <time>2024-10-31T11:09:11Z</time>
      </trkpt>
      <trkpt lat="48.13156" lon="6.62286">
        <ele>500.5</ele>
        <time>2024-10-31T11:09:20Z</time>
      </trkpt>
      <trkpt lat="48.13149" lon="6.62276">
        <ele>500.5</ele>
        <time>2024-10-31T11:09:30Z</time>
      </trkpt>
      <trkpt lat="48.13156" lon="6.62267">
        <ele>500.6</ele>
        <time>2024-10-31T11:10:04Z</time>
      </trkpt>
      <trkpt lat="48.13159" lon="6.62253">
        <ele>500.7</ele>
        <time>2024-10-31T11:10:17Z</time>
      </trkpt>
      <trkpt lat="48.13158" lon="6.62239">
        <ele>500.7</ele>
        <time>2024-10-31T11:10:24Z</time>
      </trkpt>
      <trkpt lat="48.1316" lon="6.62225">
        <ele>500.7</ele>
        <time>2024-10-31T11:10:32Z</time>
      </trkpt>
      <trkpt lat="48.13164" lon="6.62212">
        <ele>500.7</ele>
        <time>2024-10-31T11:10:41Z</time>
      </trkpt>
      <trkpt lat="48.13167" lon="6.62199">
        <ele>500.7</ele>
        <time>2024-10-31T11:10:51Z</time>
      </trkpt>
      <trkpt lat="48.13166" lon="6.62183">
        <ele>500.8</ele>
        <time>2024-10-31T11:11:00Z</time>
      </trkpt>
      <trkpt lat="48.13164" lon="6.62169">
        <ele>500.9</ele>
        <time>2024-10-31T11:11:10Z</time>
      </trkpt>
      <trkpt lat="48.13163" lon="6.62155">
        <ele>501</ele>
        <time>2024-10-31T11:11:18Z</time>
      </trkpt>
      <trkpt lat="48.1316" lon="6.62141">
        <ele>501.7</ele>
        <time>2024-10-31T11:11:26Z</time>
      </trkpt>
      <trkpt lat="48.13154" lon="6.62132">
        <ele>503</ele>
        <time>2024-10-31T11:11:32Z</time>
      </trkpt>
      <trkpt lat="48.13149" lon="6.62119">
        <ele>503.3</ele>
        <time>2024-10-31T11:11:40Z</time>
      </trkpt>
      <trkpt lat="48.13144" lon="6.62107">
        <ele>503.5</ele>
        <time>2024-10-31T11:11:49Z</time>
      </trkpt>
      <trkpt lat="48.13136" lon="6.62099">
        <ele>503.7</ele>
        <time>2024-10-31T11:11:57Z</time>
      </trkpt>
      <trkpt lat="48.13128" lon="6.6209">
        <ele>504</ele>
        <time>2024-10-31T11:12:04Z</time>
      </trkpt>
      <trkpt lat="48.1312" lon="6.62082">
        <ele>504.3</ele>
        <time>2024-10-31T11:12:14Z</time>
      </trkpt>
      <trkpt lat="48.13112" lon="6.62073">
        <ele>504.5</ele>
        <time>2024-10-31T11:12:23Z</time>
      </trkpt>
      <trkpt lat="48.13104" lon="6.62064">
        <ele>504.8</ele>
        <time>2024-10-31T11:12:32Z</time>
      </trkpt>
      <trkpt lat="48.13096" lon="6.62058">
        <ele>504.9</ele>
        <time>2024-10-31T11:12:41Z</time>
      </trkpt>
      <trkpt lat="48.13087" lon="6.62053">
        <ele>505.1</ele>
        <time>2024-10-31T11:12:51Z</time>
      </trkpt>
      <trkpt lat="48.13079" lon="6.62048">
        <ele>505.2</ele>
        <time>2024-10-31T11:13:05Z</time>
      </trkpt>
      <trkpt lat="48.13079" lon="6.62048">
        <ele>505.2</ele>
        <time>2024-10-31T11:13:08Z</time>
      </trkpt>
      <trkpt lat="48.13079" lon="6.62048">
        <ele>505.2</ele>
        <time>2024-10-31T11:13:09Z</time>
      </trkpt>
      <trkpt lat="48.13076" lon="6.62045">
        <ele>505.3</ele>
        <time>2024-10-31T11:13:35Z</time>
      </trkpt>
      <trkpt lat="48.13075" lon="6.62045">
        <ele>505.3</ele>
        <time>2024-10-31T11:13:36Z</time>
      </trkpt>
      <trkpt lat="48.13066" lon="6.62041">
        <ele>505.3</ele>
        <time>2024-10-31T11:13:45Z</time>
      </trkpt>
      <trkpt lat="48.13057" lon="6.62038">
        <ele>505.4</ele>
        <time>2024-10-31T11:13:54Z</time>
      </trkpt>
      <trkpt lat="48.13049" lon="6.62037">
        <ele>505.4</ele>
        <time>2024-10-31T11:14:07Z</time>
      </trkpt>
      <trkpt lat="48.13049" lon="6.62037">
        <ele>505.4</ele>
        <time>2024-10-31T11:14:08Z</time>
      </trkpt>
      <trkpt lat="48.13046" lon="6.62036">
        <ele>505.4</ele>
        <time>2024-10-31T11:14:23Z</time>
      </trkpt>
      <trkpt lat="48.13045" lon="6.62036">
        <ele>505.5</ele>
        <time>2024-10-31T11:14:24Z</time>
      </trkpt>
      <trkpt lat="48.13036" lon="6.62036">
        <ele>505.6</ele>
        <time>2024-10-31T11:14:35Z</time>
      </trkpt>
      <trkpt lat="48.13027" lon="6.62034">
        <ele>505.7</ele>
        <time>2024-10-31T11:14:46Z</time>
      </trkpt>
      <trkpt lat="48.13017" lon="6.62031">
        <ele>505.8</ele>
        <time>2024-10-31T11:14:59Z</time>
      </trkpt>
      <trkpt lat="48.13014" lon="6.6203">
        <ele>505.9</ele>
        <time>2024-10-31T11:15:08Z</time>
      </trkpt>
      <trkpt lat="48.13014" lon="6.6203">
        <ele>505.9</ele>
        <time>2024-10-31T11:15:09Z</time>
      </trkpt>
      <trkpt lat="48.13012" lon="6.62029">
        <ele>505.9</ele>
        <time>2024-10-31T11:15:14Z</time>
      </trkpt>
      <trkpt lat="48.13012" lon="6.62029">
        <ele>506</ele>
        <time>2024-10-31T11:15:15Z</time>
      </trkpt>
      <trkpt lat="48.13011" lon="6.62029">
        <ele>506</ele>
        <time>2024-10-31T11:15:16Z</time>
      </trkpt>
      <trkpt lat="48.13008" lon="6.62029">
        <ele>506</ele>
        <time>2024-10-31T11:15:25Z</time>
      </trkpt>
      <trkpt lat="48.13008" lon="6.62029">
        <ele>506</ele>
        <time>2024-10-31T11:15:26Z</time>
      </trkpt>
      <trkpt lat="48.13008" lon="6.62029">
        <ele>506</ele>
        <time>2024-10-31T11:15:27Z</time>
      </trkpt>
      <trkpt lat="48.13008" lon="6.62028">
        <ele>506.1</ele>
        <time>2024-10-31T11:15:38Z</time>
      </trkpt>
      <trkpt lat="48.13007" lon="6.62027">
        <ele>506.1</ele>
        <time>2024-10-31T11:15:39Z</time>
      </trkpt>
      <trkpt lat="48.13007" lon="6.62027">
        <ele>506.1</ele>
        <time>2024-10-31T11:15:44Z</time>
      </trkpt>
      <trkpt lat="48.13007" lon="6.62027">
        <ele>506.1</ele>
        <time>2024-10-31T11:15:45Z</time>
      </trkpt>
      <trkpt lat="48.13007" lon="6.62027">
        <ele>506.1</ele>
        <time>2024-10-31T11:15:46Z</time>
      </trkpt>
      <trkpt lat="48.13006" lon="6.62026">
        <ele>506.1</ele>
        <time>2024-10-31T11:15:49Z</time>
      </trkpt>
      <trkpt lat="48.13005" lon="6.62026">
        <ele>506.1</ele>
        <time>2024-10-31T11:15:50Z</time>
      </trkpt>
      <trkpt lat="48.13005" lon="6.62025">
        <ele>506.1</ele>
        <time>2024-10-31T11:15:51Z</time>
      </trkpt>
      <trkpt lat="48.12996" lon="6.6202">
        <ele>506.4</ele>
        <time>2024-10-31T11:16:02Z</time>
      </trkpt>
      <trkpt lat="48.12988" lon="6.62015">
        <ele>506.7</ele>
        <time>2024-10-31T11:16:15Z</time>
      </trkpt>
      <trkpt lat="48.12987" lon="6.62015">
        <ele>506.7</ele>
        <time>2024-10-31T11:16:20Z</time>
      </trkpt>
      <trkpt lat="48.12987" lon="6.62015">
        <ele>506.7</ele>
        <time>2024-10-31T11:16:21Z</time>
      </trkpt>
      <trkpt lat="48.12987" lon="6.62015">
        <ele>506.7</ele>
        <time>2024-10-31T11:16:22Z</time>
      </trkpt>
      <trkpt lat="48.12987" lon="6.62015">
        <ele>506.7</ele>
        <time>2024-10-31T11:17:04Z</time>
      </trkpt>
      <trkpt lat="48.12987" lon="6.62015">
        <ele>506.7</ele>
        <time>2024-10-31T11:17:05Z</time>
      </trkpt>
      <trkpt lat="48.12987" lon="6.62015">
        <ele>506.8</ele>
        <time>2024-10-31T11:17:06Z</time>
      </trkpt>
      <trkpt lat="48.12987" lon="6.62015">
        <ele>506.8</ele>
        <time>2024-10-31T11:17:07Z</time>
      </trkpt>
      <trkpt lat="48.12987" lon="6.62015">
        <ele>506.8</ele>
        <time>2024-10-31T11:17:08Z</time>
      </trkpt>
      <trkpt lat="48.12986" lon="6.62015">
        <ele>506.8</ele>
        <time>2024-10-31T11:19:22Z</time>
      </trkpt>
      <trkpt lat="48.12986" lon="6.62015">
        <ele>506.8</ele>
        <time>2024-10-31T11:19:23Z</time>
      </trkpt>
      <trkpt lat="48.12985" lon="6.62015">
        <ele>506.8</ele>
        <time>2024-10-31T11:19:24Z</time>
      </trkpt>
      <trkpt lat="48.12984" lon="6.62015">
        <ele>506.8</ele>
        <time>2024-10-31T11:19:28Z</time>
      </trkpt>
      <trkpt lat="48.12984" lon="6.62015">
        <ele>506.8</ele>
        <time>2024-10-31T11:19:29Z</time>
      </trkpt>
      <trkpt lat="48.12984" lon="6.62014">
        <ele>506.9</ele>
        <time>2024-10-31T11:20:33Z</time>
      </trkpt>
      <trkpt lat="48.12983" lon="6.62014">
        <ele>506.9</ele>
        <time>2024-10-31T11:20:34Z</time>
      </trkpt>
      <trkpt lat="48.12977" lon="6.62011">
        <ele>507.2</ele>
        <time>2024-10-31T11:20:48Z</time>
      </trkpt>
      <trkpt lat="48.12977" lon="6.62011">
        <ele>507.2</ele>
        <time>2024-10-31T11:20:49Z</time>
      </trkpt>
      <trkpt lat="48.12976" lon="6.6201">
        <ele>507.3</ele>
        <time>2024-10-31T11:21:27Z</time>
      </trkpt>
      <trkpt lat="48.12976" lon="6.6201">
        <ele>507.3</ele>
        <time>2024-10-31T11:21:28Z</time>
      </trkpt>
      <trkpt lat="48.12976" lon="6.6201">
        <ele>507.3</ele>
        <time>2024-10-31T11:21:29Z</time>
      </trkpt>
      <trkpt lat="48.12976" lon="6.6201">
        <ele>507.3</ele>
        <time>2024-10-31T11:21:30Z</time>
      </trkpt>
      <trkpt lat="48.12976" lon="6.6201">
        <ele>507.3</ele>
        <time>2024-10-31T11:21:31Z</time>
      </trkpt>
      <trkpt lat="48.12977" lon="6.62008">
        <ele>507.3</ele>
        <time>2024-10-31T11:26:07Z</time>
      </trkpt>
      <trkpt lat="48.12977" lon="6.62008">
        <ele>507.3</ele>
        <time>2024-10-31T11:26:08Z</time>
      </trkpt>
      <trkpt lat="48.12977" lon="6.62007">
        <ele>507.4</ele>
        <time>2024-10-31T11:26:09Z</time>
      </trkpt>
      <trkpt lat="48.12977" lon="6.62007">
        <ele>507.4</ele>
        <time>2024-10-31T11:26:10Z</time>
      </trkpt>
      <trkpt lat="48.12977" lon="6.62007">
        <ele>507.4</ele>
        <time>2024-10-31T11:26:11Z</time>
      </trkpt>
      <trkpt lat="48.12976" lon="6.62005">
        <ele>507.5</ele>
        <time>2024-10-31T11:26:28Z</time>
      </trkpt>
      <trkpt lat="48.12975" lon="6.62004">
        <ele>507.5</ele>
        <time>2024-10-31T11:26:29Z</time>
      </trkpt>
      <trkpt lat="48.12966" lon="6.61997">
        <ele>508.1</ele>
        <time>2024-10-31T11:26:37Z</time>
      </trkpt>
      <trkpt lat="48.12957" lon="6.61994">
        <ele>508.8</ele>
        <time>2024-10-31T11:26:45Z</time>
      </trkpt>
      <trkpt lat="48.12947" lon="6.61992">
        <ele>509.4</ele>
        <time>2024-10-31T11:26:53Z</time>
      </trkpt>
      <trkpt lat="48.12938" lon="6.6199">
        <ele>510</ele>
        <time>2024-10-31T11:27:04Z</time>
      </trkpt>
      <trkpt lat="48.12929" lon="6.61993">
        <ele>510.5</ele>
        <time>2024-10-31T11:27:18Z</time>
      </trkpt>
      <trkpt lat="48.12925" lon="6.61989">
        <ele>510.7</ele>
        <time>2024-10-31T11:27:27Z</time>
      </trkpt>
      <trkpt lat="48.12925" lon="6.61989">
        <ele>510.7</ele>
        <time>2024-10-31T11:27:28Z</time>
      </trkpt>
      <trkpt lat="48.12924" lon="6.61987">
        <ele>510.9</ele>
        <time>2024-10-31T11:27:40Z</time>
      </trkpt>
      <trkpt lat="48.12924" lon="6.61987">
        <ele>510.9</ele>
        <time>2024-10-31T11:27:41Z</time>
      </trkpt>
      <trkpt lat="48.12924" lon="6.61987">
        <ele>510.9</ele>
        <time>2024-10-31T11:27:42Z</time>
      </trkpt>
      <trkpt lat="48.12924" lon="6.61987">
        <ele>510.9</ele>
        <time>2024-10-31T11:27:43Z</time>
      </trkpt>
      <trkpt lat="48.12924" lon="6.61987">
        <ele>510.9</ele>
        <time>2024-10-31T11:27:44Z</time>
      </trkpt>
      <trkpt lat="48.12922" lon="6.61987">
        <ele>511</ele>
        <time>2024-10-31T11:28:22Z</time>
      </trkpt>
      <trkpt lat="48.12921" lon="6.61987">
        <ele>511</ele>
        <time>2024-10-31T11:28:23Z</time>
      </trkpt>
      <trkpt lat="48.12912" lon="6.61989">
        <ele>511.6</ele>
        <time>2024-10-31T11:28:32Z</time>
      </trkpt>
      <trkpt lat="48.12903" lon="6.61989">
        <ele>512.3</ele>
        <time>2024-10-31T11:28:42Z</time>
      </trkpt>
      <trkpt lat="48.12893" lon="6.61987">
        <ele>513.2</ele>
        <time>2024-10-31T11:28:52Z</time>
      </trkpt>
      <trkpt lat="48.12883" lon="6.61989">
        <ele>514.1</ele>
        <time>2024-10-31T11:29:03Z</time>
      </trkpt>
      <trkpt lat="48.12873" lon="6.61987">
        <ele>514.9</ele>
        <time>2024-10-31T11:29:13Z</time>
      </trkpt>
      <trkpt lat="48.12865" lon="6.61981">
        <ele>513</ele>
        <time>2024-10-31T11:29:27Z</time>
      </trkpt>
      <trkpt lat="48.1286" lon="6.61969">
        <ele>511.6</ele>
        <time>2024-10-31T11:29:42Z</time>
      </trkpt>
      <trkpt lat="48.12858" lon="6.61955">
        <ele>510.1</ele>
        <time>2024-10-31T11:29:54Z</time>
      </trkpt>
      <trkpt lat="48.12853" lon="6.61943">
        <ele>508.6</ele>
        <time>2024-10-31T11:30:02Z</time>
      </trkpt>
      <trkpt lat="48.12845" lon="6.61935">
        <ele>507.2</ele>
        <time>2024-10-31T11:30:08Z</time>
      </trkpt>
      <trkpt lat="48.12838" lon="6.61926">
        <ele>505.8</ele>
        <time>2024-10-31T11:30:16Z</time>
      </trkpt>
      <trkpt lat="48.12835" lon="6.61913">
        <ele>504.2</ele>
        <time>2024-10-31T11:30:25Z</time>
      </trkpt>
      <trkpt lat="48.12836" lon="6.61899">
        <ele>502.4</ele>
        <time>2024-10-31T11:30:37Z</time>
      </trkpt>
      <trkpt lat="48.1284" lon="6.61886">
        <ele>500.3</ele>
        <time>2024-10-31T11:30:46Z</time>
      </trkpt>
      <trkpt lat="48.12849" lon="6.61884">
        <ele>497.9</ele>
        <time>2024-10-31T11:30:55Z</time>
      </trkpt>
      <trkpt lat="48.12858" lon="6.61886">
        <ele>495.2</ele>
        <time>2024-10-31T11:31:05Z</time>
      </trkpt>
      <trkpt lat="48.12865" lon="6.61883">
        <ele>493</ele>
        <time>2024-10-31T11:31:27Z</time>
      </trkpt>
      <trkpt lat="48.12865" lon="6.61883">
        <ele>493</ele>
        <time>2024-10-31T11:31:28Z</time>
      </trkpt>
      <trkpt lat="48.12866" lon="6.6188">
        <ele>492.4</ele>
        <time>2024-10-31T11:32:59Z</time>
      </trkpt>
      <trkpt lat="48.12867" lon="6.61879">
        <ele>492</ele>
        <time>2024-10-31T11:33:00Z</time>
      </trkpt>
      <trkpt lat="48.12868" lon="6.61879">
        <ele>491.8</ele>
        <time>2024-10-31T11:33:01Z</time>
      </trkpt>
      <trkpt lat="48.12877" lon="6.61875">
        <ele>488.7</ele>
        <time>2024-10-31T11:33:14Z</time>
      </trkpt>
      <trkpt lat="48.12885" lon="6.61867">
        <ele>485.6</ele>
        <time>2024-10-31T11:33:22Z</time>
      </trkpt>
      <trkpt lat="48.12883" lon="6.61863">
        <ele>484.3</ele>
        <time>2024-10-31T11:33:30Z</time>
      </trkpt>
      <trkpt lat="48.12883" lon="6.61863">
        <ele>484.3</ele>
        <time>2024-10-31T11:33:31Z</time>
      </trkpt>
      <trkpt lat="48.12883" lon="6.61863">
        <ele>484.3</ele>
        <time>2024-10-31T11:33:32Z</time>
      </trkpt>
      <trkpt lat="48.12881" lon="6.61863">
        <ele>483.8</ele>
        <time>2024-10-31T11:33:40Z</time>
      </trkpt>
      <trkpt lat="48.1288" lon="6.61863">
        <ele>483.5</ele>
        <time>2024-10-31T11:33:41Z</time>
      </trkpt>
      <trkpt lat="48.1288" lon="6.61863">
        <ele>483.5</ele>
        <time>2024-10-31T11:33:44Z</time>
      </trkpt>
      <trkpt lat="48.1288" lon="6.61863">
        <ele>483.5</ele>
        <time>2024-10-31T11:33:45Z</time>
      </trkpt>
      <trkpt lat="48.1288" lon="6.61863">
        <ele>483.4</ele>
        <time>2024-10-31T11:33:46Z</time>
      </trkpt>
      <trkpt lat="48.12878" lon="6.61864">
        <ele>482.9</ele>
        <time>2024-10-31T11:33:49Z</time>
      </trkpt>
      <trkpt lat="48.12878" lon="6.61865">
        <ele>482.7</ele>
        <time>2024-10-31T11:33:50Z</time>
      </trkpt>
      <trkpt lat="48.12878" lon="6.61867">
        <ele>482.4</ele>
        <time>2024-10-31T11:33:51Z</time>
      </trkpt>
      <trkpt lat="48.12882" lon="6.6188">
        <ele>479.5</ele>
        <time>2024-10-31T11:34:15Z</time>
      </trkpt>
      <trkpt lat="48.12887" lon="6.61886">
        <ele>477.6</ele>
        <time>2024-10-31T11:34:39Z</time>
      </trkpt>
      <trkpt lat="48.12887" lon="6.61886">
        <ele>477.5</ele>
        <time>2024-10-31T11:34:40Z</time>
      </trkpt>
      <trkpt lat="48.12887" lon="6.61886">
        <ele>477.5</ele>
        <time>2024-10-31T11:34:41Z</time>
      </trkpt>
      <trkpt lat="48.12888" lon="6.61881">
        <ele>476.4</ele>
        <time>2024-10-31T11:35:00Z</time>
      </trkpt>
      <trkpt lat="48.12888" lon="6.6188">
        <ele>476.2</ele>
        <time>2024-10-31T11:35:01Z</time>
      </trkpt>
      <trkpt lat="48.12884" lon="6.61866">
        <ele>472.2</ele>
        <time>2024-10-31T11:35:10Z</time>
      </trkpt>
      <trkpt lat="48.12878" lon="6.61856">
        <ele>471.2</ele>
        <time>2024-10-31T11:35:24Z</time>
      </trkpt>
      <trkpt lat="48.12881" lon="6.61843">
        <ele>470.2</ele>
        <time>2024-10-31T11:35:42Z</time>
      </trkpt>
      <trkpt lat="48.1289" lon="6.61836">
        <ele>469.4</ele>
        <time>2024-10-31T11:35:50Z</time>
      </trkpt>
      <trkpt lat="48.12895" lon="6.61834">
        <ele>469</ele>
        <time>2024-10-31T11:36:02Z</time>
      </trkpt>
      <trkpt lat="48.12895" lon="6.61834">
        <ele>469</ele>
        <time>2024-10-31T11:36:03Z</time>
      </trkpt>
      <trkpt lat="48.12895" lon="6.61833">
        <ele>469</ele>
        <time>2024-10-31T11:36:04Z</time>
      </trkpt>
      <trkpt lat="48.12896" lon="6.61832">
        <ele>468.9</ele>
        <time>2024-10-31T11:36:05Z</time>
      </trkpt>
      <trkpt lat="48.12897" lon="6.6183">
        <ele>468.9</ele>
        <time>2024-10-31T11:36:06Z</time>
      </trkpt>
      <trkpt lat="48.12898" lon="6.61828">
        <ele>468.8</ele>
        <time>2024-10-31T11:36:07Z</time>
      </trkpt>
      <trkpt lat="48.12905" lon="6.6182">
        <ele>468.7</ele>
        <time>2024-10-31T11:36:14Z</time>
      </trkpt>
      <trkpt lat="48.12913" lon="6.6181">
        <ele>469</ele>
        <time>2024-10-31T11:36:23Z</time>
      </trkpt>
      <trkpt lat="48.12915" lon="6.61796">
        <ele>469.6</ele>
        <time>2024-10-31T11:36:33Z</time>
      </trkpt>
      <trkpt lat="48.12917" lon="6.61793">
        <ele>469.8</ele>
        <time>2024-10-31T11:36:39Z</time>
      </trkpt>
      <trkpt lat="48.12917" lon="6.61793">
        <ele>469.8</ele>
        <time>2024-10-31T11:36:40Z</time>
      </trkpt>
      <trkpt lat="48.12917" lon="6.61793">
        <ele>469.8</ele>
        <time>2024-10-31T11:36:41Z</time>
      </trkpt>
      <trkpt lat="48.12915" lon="6.61792">
        <ele>469.9</ele>
        <time>2024-10-31T11:38:17Z</time>
      </trkpt>
      <trkpt lat="48.12915" lon="6.61792">
        <ele>470</ele>
        <time>2024-10-31T11:38:18Z</time>
      </trkpt>
      <trkpt lat="48.12918" lon="6.61778">
        <ele>470.9</ele>
        <time>2024-10-31T11:38:31Z</time>
      </trkpt>
      <trkpt lat="48.12918" lon="6.61778">
        <ele>470.9</ele>
        <time>2024-10-31T11:38:32Z</time>
      </trkpt>
      <trkpt lat="48.12918" lon="6.61778">
        <ele>470.9</ele>
        <time>2024-10-31T11:38:33Z</time>
      </trkpt>
      <trkpt lat="48.12918" lon="6.61778">
        <ele>470.9</ele>
        <time>2024-10-31T11:38:34Z</time>
      </trkpt>
      <trkpt lat="48.1292" lon="6.61777">
        <ele>471.1</ele>
        <time>2024-10-31T11:40:09Z</time>
      </trkpt>
      <trkpt lat="48.1292" lon="6.61777">
        <ele>471.1</ele>
        <time>2024-10-31T11:40:10Z</time>
      </trkpt>
      <trkpt lat="48.1292" lon="6.61777">
        <ele>471.1</ele>
        <time>2024-10-31T11:40:11Z</time>
      </trkpt>
      <trkpt lat="48.1292" lon="6.61777">
        <ele>471.2</ele>
        <time>2024-10-31T11:40:12Z</time>
      </trkpt>
      <trkpt lat="48.1292" lon="6.61777">
        <ele>471.2</ele>
        <time>2024-10-31T11:40:13Z</time>
      </trkpt>
      <trkpt lat="48.1292" lon="6.61774">
        <ele>471.4</ele>
        <time>2024-10-31T11:40:57Z</time>
      </trkpt>
      <trkpt lat="48.1292" lon="6.61774">
        <ele>471.4</ele>
        <time>2024-10-31T11:40:58Z</time>
      </trkpt>
      <trkpt lat="48.1292" lon="6.61774">
        <ele>471.4</ele>
        <time>2024-10-31T11:40:59Z</time>
      </trkpt>
      <trkpt lat="48.1292" lon="6.61774">
        <ele>471.4</ele>
        <time>2024-10-31T11:41:00Z</time>
      </trkpt>
      <trkpt lat="48.12921" lon="6.61773">
        <ele>471.5</ele>
        <time>2024-10-31T11:41:01Z</time>
      </trkpt>
      <trkpt lat="48.12922" lon="6.61769">
        <ele>471.8</ele>
        <time>2024-10-31T11:41:15Z</time>
      </trkpt>
      <trkpt lat="48.12922" lon="6.61769">
        <ele>471.8</ele>
        <time>2024-10-31T11:41:16Z</time>
      </trkpt>
      <trkpt lat="48.12922" lon="6.61764">
        <ele>472.2</ele>
        <time>2024-10-31T11:41:22Z</time>
      </trkpt>
      <trkpt lat="48.12922" lon="6.61764">
        <ele>472.2</ele>
        <time>2024-10-31T11:41:23Z</time>
      </trkpt>
      <trkpt lat="48.12921" lon="6.61764">
        <ele>472.3</ele>
        <time>2024-10-31T11:44:04Z</time>
      </trkpt>
      <trkpt lat="48.12921" lon="6.61764">
        <ele>472.3</ele>
        <time>2024-10-31T11:44:05Z</time>
      </trkpt>
      <trkpt lat="48.12921" lon="6.61764">
        <ele>472.3</ele>
        <time>2024-10-31T11:44:06Z</time>
      </trkpt>
      <trkpt lat="48.12921" lon="6.61764">
        <ele>472.3</ele>
        <time>2024-10-31T11:44:07Z</time>
      </trkpt>
      <trkpt lat="48.1292" lon="6.61764">
        <ele>472.4</ele>
        <time>2024-10-31T11:44:08Z</time>
      </trkpt>
      <trkpt lat="48.12922" lon="6.61764">
        <ele>472.5</ele>
        <time>2024-10-31T11:45:45Z</time>
      </trkpt>
      <trkpt lat="48.12922" lon="6.61764">
        <ele>472.5</ele>
        <time>2024-10-31T11:45:46Z</time>
      </trkpt>
      <trkpt lat="48.12922" lon="6.61764">
        <ele>472.5</ele>
        <time>2024-10-31T11:45:47Z</time>
      </trkpt>
      <trkpt lat="48.12922" lon="6.61764">
        <ele>472.5</ele>
        <time>2024-10-31T11:45:48Z</time>
      </trkpt>
      <trkpt lat="48.12922" lon="6.61763">
        <ele>472.6</ele>
        <time>2024-10-31T11:46:12Z</time>
      </trkpt>
      <trkpt lat="48.12922" lon="6.61763">
        <ele>472.6</ele>
        <time>2024-10-31T11:46:13Z</time>
      </trkpt>
      <trkpt lat="48.12922" lon="6.61763">
        <ele>472.6</ele>
        <time>2024-10-31T11:46:14Z</time>
      </trkpt>
      <trkpt lat="48.12922" lon="6.61763">
        <ele>472.6</ele>
        <time>2024-10-31T11:46:15Z</time>
      </trkpt>
      <trkpt lat="48.12922" lon="6.61763">
        <ele>472.6</ele>
        <time>2024-10-31T11:46:16Z</time>
      </trkpt>
      <trkpt lat="48.12923" lon="6.61762">
        <ele>472.8</ele>
        <time>2024-10-31T11:46:25Z</time>
      </trkpt>
      <trkpt lat="48.12924" lon="6.61762">
        <ele>472.9</ele>
        <time>2024-10-31T11:46:26Z</time>
      </trkpt>
      <trkpt lat="48.12924" lon="6.61761">
        <ele>472.9</ele>
        <time>2024-10-31T11:46:27Z</time>
      </trkpt>
      <trkpt lat="48.12925" lon="6.61761">
        <ele>473</ele>
        <time>2024-10-31T11:46:28Z</time>
      </trkpt>
      <trkpt lat="48.12926" lon="6.6176">
        <ele>473.1</ele>
        <time>2024-10-31T11:46:29Z</time>
      </trkpt>
      <trkpt lat="48.12926" lon="6.6176">
        <ele>473.1</ele>
        <time>2024-10-31T11:46:30Z</time>
      </trkpt>
      <trkpt lat="48.12926" lon="6.6176">
        <ele>473.1</ele>
        <time>2024-10-31T11:46:31Z</time>
      </trkpt>
      <trkpt lat="48.12926" lon="6.6176">
        <ele>473.1</ele>
        <time>2024-10-31T11:46:34Z</time>
      </trkpt>
      <trkpt lat="48.12926" lon="6.6176">
        <ele>473.1</ele>
        <time>2024-10-31T11:46:35Z</time>
      </trkpt>
      <trkpt lat="48.12926" lon="6.6176">
        <ele>473.1</ele>
        <time>2024-10-31T11:46:36Z</time>
      </trkpt>
      <trkpt lat="48.12926" lon="6.61758">
        <ele>473.2</ele>
        <time>2024-10-31T11:47:30Z</time>
      </trkpt>
      <trkpt lat="48.12926" lon="6.61757">
        <ele>473.3</ele>
        <time>2024-10-31T11:47:31Z</time>
      </trkpt>
      <trkpt lat="48.1293" lon="6.61743">
        <ele>474.3</ele>
        <time>2024-10-31T11:47:45Z</time>
      </trkpt>
      <trkpt lat="48.12933" lon="6.61729">
        <ele>475.3</ele>
        <time>2024-10-31T11:47:54Z</time>
      </trkpt>
      <trkpt lat="48.12935" lon="6.61715">
        <ele>476.3</ele>
        <time>2024-10-31T11:48:03Z</time>
      </trkpt>
      <trkpt lat="48.1294" lon="6.61702">
        <ele>477.3</ele>
        <time>2024-10-31T11:48:12Z</time>
      </trkpt>
      <trkpt lat="48.12944" lon="6.61689">
        <ele>478</ele>
        <time>2024-10-31T11:48:23Z</time>
      </trkpt>
      <trkpt lat="48.12949" lon="6.61677">
        <ele>478.7</ele>
        <time>2024-10-31T11:48:35Z</time>
      </trkpt>
      <trkpt lat="48.12955" lon="6.61664">
        <ele>479.4</ele>
        <time>2024-10-31T11:48:46Z</time>
      </trkpt>
      <trkpt lat="48.1296" lon="6.61653">
        <ele>479.9</ele>
        <time>2024-10-31T11:48:56Z</time>
      </trkpt>
      <trkpt lat="48.12967" lon="6.61643">
        <ele>480.5</ele>
        <time>2024-10-31T11:49:04Z</time>
      </trkpt>
      <trkpt lat="48.12973" lon="6.61631">
        <ele>481.1</ele>
        <time>2024-10-31T11:49:13Z</time>
      </trkpt>
      <trkpt lat="48.1298" lon="6.61622">
        <ele>481.6</ele>
        <time>2024-10-31T11:49:20Z</time>
      </trkpt>
      <trkpt lat="48.12984" lon="6.61609">
        <ele>482</ele>
        <time>2024-10-31T11:49:30Z</time>
      </trkpt>
      <trkpt lat="48.12989" lon="6.61596">
        <ele>482.4</ele>
        <time>2024-10-31T11:49:40Z</time>
      </trkpt>
      <trkpt lat="48.12993" lon="6.61583">
        <ele>482.7</ele>
        <time>2024-10-31T11:49:50Z</time>
      </trkpt>
      <trkpt lat="48.13" lon="6.61573">
        <ele>483.1</ele>
        <time>2024-10-31T11:50:00Z</time>
      </trkpt>
      <trkpt lat="48.13007" lon="6.61563">
        <ele>483.5</ele>
        <time>2024-10-31T11:50:07Z</time>
      </trkpt>
      <trkpt lat="48.13012" lon="6.61552">
        <ele>483.9</ele>
        <time>2024-10-31T11:50:16Z</time>
      </trkpt>
      <trkpt lat="48.13018" lon="6.6154">
        <ele>484.2</ele>
        <time>2024-10-31T11:50:30Z</time>
      </trkpt>
      <trkpt lat="48.13023" lon="6.61527">
        <ele>484.4</ele>
        <time>2024-10-31T11:50:40Z</time>
      </trkpt>
      <trkpt lat="48.13029" lon="6.61516">
        <ele>484.7</ele>
        <time>2024-10-31T11:50:50Z</time>
      </trkpt>
      <trkpt lat="48.13035" lon="6.61506">
        <ele>484.8</ele>
        <time>2024-10-31T11:50:57Z</time>
      </trkpt>
      <trkpt lat="48.13038" lon="6.61493">
        <ele>484.3</ele>
        <time>2024-10-31T11:51:07Z</time>
      </trkpt>
      <trkpt lat="48.13036" lon="6.61479">
        <ele>483.8</ele>
        <time>2024-10-31T11:51:18Z</time>
      </trkpt>
      <trkpt lat="48.13036" lon="6.61478">
        <ele>483.8</ele>
        <time>2024-10-31T11:51:22Z</time>
      </trkpt>
      <trkpt lat="48.13036" lon="6.61478">
        <ele>483.8</ele>
        <time>2024-10-31T11:51:23Z</time>
      </trkpt>
      <trkpt lat="48.13036" lon="6.61476">
        <ele>483.7</ele>
        <time>2024-10-31T11:51:27Z</time>
      </trkpt>
      <trkpt lat="48.13036" lon="6.61475">
        <ele>483.7</ele>
        <time>2024-10-31T11:51:28Z</time>
      </trkpt>
      <trkpt lat="48.13035" lon="6.61474">
        <ele>483.6</ele>
        <time>2024-10-31T11:51:29Z</time>
      </trkpt>
      <trkpt lat="48.13035" lon="6.61474">
        <ele>483.6</ele>
        <time>2024-10-31T11:51:30Z</time>
      </trkpt>
      <trkpt lat="48.13035" lon="6.61474">
        <ele>483.6</ele>
        <time>2024-10-31T11:51:31Z</time>
      </trkpt>
      <trkpt lat="48.13035" lon="6.61473">
        <ele>483.5</ele>
        <time>2024-10-31T11:51:32Z</time>
      </trkpt>
      <trkpt lat="48.13035" lon="6.61471">
        <ele>483.5</ele>
        <time>2024-10-31T11:51:33Z</time>
      </trkpt>
      <trkpt lat="48.13036" lon="6.6147">
        <ele>483.4</ele>
        <time>2024-10-31T11:51:34Z</time>
      </trkpt>
      <trkpt lat="48.13036" lon="6.61455">
        <ele>482.8</ele>
        <time>2024-10-31T11:51:44Z</time>
      </trkpt>
      <trkpt lat="48.13036" lon="6.61441">
        <ele>482.2</ele>
        <time>2024-10-31T11:51:52Z</time>
      </trkpt>
      <trkpt lat="48.13041" lon="6.6143">
        <ele>481.6</ele>
        <time>2024-10-31T11:52:04Z</time>
      </trkpt>
      <trkpt lat="48.13044" lon="6.61417">
        <ele>481.1</ele>
        <time>2024-10-31T11:52:16Z</time>
      </trkpt>
      <trkpt lat="48.13051" lon="6.61408">
        <ele>480.5</ele>
        <time>2024-10-31T11:52:24Z</time>
      </trkpt>
      <trkpt lat="48.13054" lon="6.61404">
        <ele>480.2</ele>
        <time>2024-10-31T11:52:37Z</time>
      </trkpt>
      <trkpt lat="48.13054" lon="6.61404">
        <ele>480.2</ele>
        <time>2024-10-31T11:52:38Z</time>
      </trkpt>
      <trkpt lat="48.13054" lon="6.61405">
        <ele>480.1</ele>
        <time>2024-10-31T11:52:53Z</time>
      </trkpt>
      <trkpt lat="48.13054" lon="6.61406">
        <ele>480.1</ele>
        <time>2024-10-31T11:52:54Z</time>
      </trkpt>
      <trkpt lat="48.13054" lon="6.61406">
        <ele>480.1</ele>
        <time>2024-10-31T11:52:55Z</time>
      </trkpt>
      <trkpt lat="48.13054" lon="6.61406">
        <ele>480.1</ele>
        <time>2024-10-31T11:52:56Z</time>
      </trkpt>
      <trkpt lat="48.13053" lon="6.61406">
        <ele>480</ele>
        <time>2024-10-31T11:52:59Z</time>
      </trkpt>
      <trkpt lat="48.13053" lon="6.61406">
        <ele>480</ele>
        <time>2024-10-31T11:53:00Z</time>
      </trkpt>
      <trkpt lat="48.13053" lon="6.61406">
        <ele>480</ele>
        <time>2024-10-31T11:53:01Z</time>
      </trkpt>
      <trkpt lat="48.13053" lon="6.61406">
        <ele>480</ele>
        <time>2024-10-31T11:53:04Z</time>
      </trkpt>
      <trkpt lat="48.13053" lon="6.61406">
        <ele>480</ele>
        <time>2024-10-31T11:53:05Z</time>
      </trkpt>
      <trkpt lat="48.13053" lon="6.61406">
        <ele>480</ele>
        <time>2024-10-31T11:53:06Z</time>
      </trkpt>
      <trkpt lat="48.13053" lon="6.61406">
        <ele>480</ele>
        <time>2024-10-31T11:53:12Z</time>
      </trkpt>
      <trkpt lat="48.13053" lon="6.61406">
        <ele>480</ele>
        <time>2024-10-31T11:53:13Z</time>
      </trkpt>
      <trkpt lat="48.13046" lon="6.61412">
        <ele>479.3</ele>
        <time>2024-10-31T11:53:30Z</time>
      </trkpt>
      <trkpt lat="48.13046" lon="6.61412">
        <ele>479.3</ele>
        <time>2024-10-31T11:53:31Z</time>
      </trkpt>
      <trkpt lat="48.13046" lon="6.61412">
        <ele>479.3</ele>
        <time>2024-10-31T11:53:32Z</time>
      </trkpt>
      <trkpt lat="48.13046" lon="6.61412">
        <ele>479.2</ele>
        <time>2024-10-31T11:53:49Z</time>
      </trkpt>
      <trkpt lat="48.13046" lon="6.61411">
        <ele>479.2</ele>
        <time>2024-10-31T11:53:50Z</time>
      </trkpt>
      <trkpt lat="48.13046" lon="6.61411">
        <ele>479.2</ele>
        <time>2024-10-31T11:53:51Z</time>
      </trkpt>
      <trkpt lat="48.13046" lon="6.61411">
        <ele>479.2</ele>
        <time>2024-10-31T11:53:54Z</time>
      </trkpt>
      <trkpt lat="48.13046" lon="6.61411">
        <ele>479.2</ele>
        <time>2024-10-31T11:53:55Z</time>
      </trkpt>
      <trkpt lat="48.13046" lon="6.61411">
        <ele>479.2</ele>
        <time>2024-10-31T11:53:56Z</time>
      </trkpt>
      <trkpt lat="48.13044" lon="6.61417">
        <ele>478.8</ele>
        <time>2024-10-31T11:55:27Z</time>
      </trkpt>
      <trkpt lat="48.13044" lon="6.61417">
        <ele>478.7</ele>
        <time>2024-10-31T11:55:28Z</time>
      </trkpt>
      <trkpt lat="48.13045" lon="6.61418">
        <ele>478.7</ele>
        <time>2024-10-31T11:55:29Z</time>
      </trkpt>
      <trkpt lat="48.13044" lon="6.61419">
        <ele>478.6</ele>
        <time>2024-10-31T11:55:32Z</time>
      </trkpt>
      <trkpt lat="48.13044" lon="6.61419">
        <ele>478.6</ele>
        <time>2024-10-31T11:55:33Z</time>
      </trkpt>
      <trkpt lat="48.13044" lon="6.61419">
        <ele>478.6</ele>
        <time>2024-10-31T11:55:34Z</time>
      </trkpt>
      <trkpt lat="48.13044" lon="6.61419">
        <ele>478.6</ele>
        <time>2024-10-31T11:55:35Z</time>
      </trkpt>
      <trkpt lat="48.13045" lon="6.61419">
        <ele>478.5</ele>
        <time>2024-10-31T11:55:36Z</time>
      </trkpt>
      <trkpt lat="48.13044" lon="6.6142">
        <ele>478.5</ele>
        <time>2024-10-31T11:55:43Z</time>
      </trkpt>
      <trkpt lat="48.13044" lon="6.6142">
        <ele>478.5</ele>
        <time>2024-10-31T11:55:44Z</time>
      </trkpt>
      <trkpt lat="48.13046" lon="6.6142">
        <ele>478.4</ele>
        <time>2024-10-31T11:56:02Z</time>
      </trkpt>
      <trkpt lat="48.13046" lon="6.6142">
        <ele>478.4</ele>
        <time>2024-10-31T11:56:03Z</time>
      </trkpt>
      <trkpt lat="48.13046" lon="6.6142">
        <ele>478.4</ele>
        <time>2024-10-31T11:56:04Z</time>
      </trkpt>
      <trkpt lat="48.13046" lon="6.6142">
        <ele>478.3</ele>
        <time>2024-10-31T11:56:05Z</time>
      </trkpt>
      <trkpt lat="48.13046" lon="6.6142">
        <ele>478.3</ele>
        <time>2024-10-31T11:56:06Z</time>
      </trkpt>
      <trkpt lat="48.13046" lon="6.6142">
        <ele>478.3</ele>
        <time>2024-10-31T11:56:07Z</time>
      </trkpt>
      <trkpt lat="48.13046" lon="6.6142">
        <ele>478.2</ele>
        <time>2024-10-31T11:56:13Z</time>
      </trkpt>
      <trkpt lat="48.13047" lon="6.61421">
        <ele>478.2</ele>
        <time>2024-10-31T11:56:14Z</time>
      </trkpt>
      <trkpt lat="48.13049" lon="6.61421">
        <ele>478</ele>
        <time>2024-10-31T11:56:24Z</time>
      </trkpt>
      <trkpt lat="48.13048" lon="6.6142">
        <ele>478</ele>
        <time>2024-10-31T11:56:25Z</time>
      </trkpt>
      <trkpt lat="48.13049" lon="6.6142">
        <ele>477.9</ele>
        <time>2024-10-31T11:56:26Z</time>
      </trkpt>
      <trkpt lat="48.13049" lon="6.6142">
        <ele>477.9</ele>
        <time>2024-10-31T11:56:27Z</time>
      </trkpt>
      <trkpt lat="48.13049" lon="6.61421">
        <ele>477.9</ele>
        <time>2024-10-31T11:56:28Z</time>
      </trkpt>
      <trkpt lat="48.13049" lon="6.61421">
        <ele>477.9</ele>
        <time>2024-10-31T11:56:29Z</time>
      </trkpt>
      <trkpt lat="48.13049" lon="6.61421">
        <ele>477.9</ele>
        <time>2024-10-31T11:56:30Z</time>
      </trkpt>
      <trkpt lat="48.13049" lon="6.61421">
        <ele>477.9</ele>
        <time>2024-10-31T11:56:31Z</time>
      </trkpt>
      <trkpt lat="48.13049" lon="6.61421">
        <ele>477.9</ele>
        <time>2024-10-31T11:56:32Z</time>
      </trkpt>
      <trkpt lat="48.13049" lon="6.61421">
        <ele>477.9</ele>
        <time>2024-10-31T11:56:35Z</time>
      </trkpt>
      <trkpt lat="48.13049" lon="6.61421">
        <ele>477.9</ele>
        <time>2024-10-31T11:56:36Z</time>
      </trkpt>
      <trkpt lat="48.13049" lon="6.61421">
        <ele>477.9</ele>
        <time>2024-10-31T11:56:37Z</time>
      </trkpt>
      <trkpt lat="48.13049" lon="6.61421">
        <ele>477.9</ele>
        <time>2024-10-31T11:56:38Z</time>
      </trkpt>
      <trkpt lat="48.13049" lon="6.61421">
        <ele>477.9</ele>
        <time>2024-10-31T11:56:39Z</time>
      </trkpt>
      <trkpt lat="48.13049" lon="6.61418">
        <ele>477.7</ele>
        <time>2024-10-31T11:57:29Z</time>
      </trkpt>
      <trkpt lat="48.13049" lon="6.61417">
        <ele>477.6</ele>
        <time>2024-10-31T11:57:30Z</time>
      </trkpt>
      <trkpt lat="48.1305" lon="6.61415">
        <ele>477.5</ele>
        <time>2024-10-31T11:57:31Z</time>
      </trkpt>
      <trkpt lat="48.13053" lon="6.61407">
        <ele>476.8</ele>
        <time>2024-10-31T11:57:42Z</time>
      </trkpt>
      <trkpt lat="48.13053" lon="6.61407">
        <ele>476.8</ele>
        <time>2024-10-31T11:57:43Z</time>
      </trkpt>
      <trkpt lat="48.13053" lon="6.61407">
        <ele>476.8</ele>
        <time>2024-10-31T11:57:44Z</time>
      </trkpt>
      <trkpt lat="48.13054" lon="6.61404">
        <ele>476.6</ele>
        <time>2024-10-31T11:57:48Z</time>
      </trkpt>
      <trkpt lat="48.13055" lon="6.61402">
        <ele>476.5</ele>
        <time>2024-10-31T11:57:49Z</time>
      </trkpt>
      <trkpt lat="48.13059" lon="6.6139">
        <ele>475.5</ele>
        <time>2024-10-31T11:57:57Z</time>
      </trkpt>
      <trkpt lat="48.13064" lon="6.61378">
        <ele>474.5</ele>
        <time>2024-10-31T11:58:05Z</time>
      </trkpt>
      <trkpt lat="48.1307" lon="6.61366">
        <ele>473.5</ele>
        <time>2024-10-31T11:58:13Z</time>
      </trkpt>
      <trkpt lat="48.13077" lon="6.61356">
        <ele>472.4</ele>
        <time>2024-10-31T11:58:21Z</time>
      </trkpt>
      <trkpt lat="48.13076" lon="6.61343">
        <ele>471.3</ele>
        <time>2024-10-31T11:58:35Z</time>
      </trkpt>
      <trkpt lat="48.13076" lon="6.61343">
        <ele>471.3</ele>
        <time>2024-10-31T11:58:36Z</time>
      </trkpt>
      <trkpt lat="48.13077" lon="6.61341">
        <ele>471.1</ele>
        <time>2024-10-31T11:58:48Z</time>
      </trkpt>
      <trkpt lat="48.13077" lon="6.61339">
        <ele>470.9</ele>
        <time>2024-10-31T11:58:49Z</time>
      </trkpt>
      <trkpt lat="48.13081" lon="6.61326">
        <ele>469.6</ele>
        <time>2024-10-31T11:58:58Z</time>
      </trkpt>
      <trkpt lat="48.13087" lon="6.61315">
        <ele>468.1</ele>
        <time>2024-10-31T11:59:06Z</time>
      </trkpt>
      <trkpt lat="48.13088" lon="6.61301">
        <ele>466.6</ele>
        <time>2024-10-31T11:59:33Z</time>
      </trkpt>
      <trkpt lat="48.13093" lon="6.6129">
        <ele>465.1</ele>
        <time>2024-10-31T11:59:42Z</time>
      </trkpt>
      <trkpt lat="48.13099" lon="6.6128">
        <ele>463.8</ele>
        <time>2024-10-31T11:59:50Z</time>
      </trkpt>
      <trkpt lat="48.13102" lon="6.61265">
        <ele>462.5</ele>
        <time>2024-10-31T12:00:00Z</time>
      </trkpt>
      <trkpt lat="48.13106" lon="6.61251">
        <ele>461.5</ele>
        <time>2024-10-31T12:00:10Z</time>
      </trkpt>
      <trkpt lat="48.13112" lon="6.6124">
        <ele>460.6</ele>
        <time>2024-10-31T12:00:17Z</time>
      </trkpt>
      <trkpt lat="48.13116" lon="6.61228">
        <ele>459.6</ele>
        <time>2024-10-31T12:00:26Z</time>
      </trkpt>
      <trkpt lat="48.13122" lon="6.61217">
        <ele>458.5</ele>
        <time>2024-10-31T12:00:36Z</time>
      </trkpt>
      <trkpt lat="48.13125" lon="6.61204">
        <ele>457.3</ele>
        <time>2024-10-31T12:00:48Z</time>
      </trkpt>
      <trkpt lat="48.13127" lon="6.61191">
        <ele>456.1</ele>
        <time>2024-10-31T12:00:59Z</time>
      </trkpt>
      <trkpt lat="48.13131" lon="6.61178">
        <ele>454.7</ele>
        <time>2024-10-31T12:01:07Z</time>
      </trkpt>
      <trkpt lat="48.13136" lon="6.61165">
        <ele>453.5</ele>
        <time>2024-10-31T12:01:16Z</time>
      </trkpt>
      <trkpt lat="48.13141" lon="6.61154">
        <ele>452.3</ele>
        <time>2024-10-31T12:01:25Z</time>
      </trkpt>
      <trkpt lat="48.13146" lon="6.61141">
        <ele>451.2</ele>
        <time>2024-10-31T12:01:32Z</time>
      </trkpt>
      <trkpt lat="48.13147" lon="6.61128">
        <ele>450.3</ele>
        <time>2024-10-31T12:01:41Z</time>
      </trkpt>
      <trkpt lat="48.13147" lon="6.61114">
        <ele>449.4</ele>
        <time>2024-10-31T12:01:49Z</time>
      </trkpt>
      <trkpt lat="48.13143" lon="6.611">
        <ele>448.4</ele>
        <time>2024-10-31T12:01:58Z</time>
      </trkpt>
      <trkpt lat="48.1314" lon="6.61087">
        <ele>447.5</ele>
        <time>2024-10-31T12:02:05Z</time>
      </trkpt>
      <trkpt lat="48.13136" lon="6.61073">
        <ele>446.5</ele>
        <time>2024-10-31T12:02:14Z</time>
      </trkpt>
      <trkpt lat="48.13132" lon="6.61061">
        <ele>445.7</ele>
        <time>2024-10-31T12:02:22Z</time>
      </trkpt>
      <trkpt lat="48.13124" lon="6.61051">
        <ele>444.9</ele>
        <time>2024-10-31T12:02:29Z</time>
      </trkpt>
      <trkpt lat="48.13124" lon="6.61052">
        <ele>444.8</ele>
        <time>2024-10-31T12:02:35Z</time>
      </trkpt>
      <trkpt lat="48.13124" lon="6.61052">
        <ele>444.8</ele>
        <time>2024-10-31T12:02:36Z</time>
      </trkpt>
      <trkpt lat="48.13124" lon="6.61052">
        <ele>444.8</ele>
        <time>2024-10-31T12:02:37Z</time>
      </trkpt>
      <trkpt lat="48.13124" lon="6.6105">
        <ele>444.7</ele>
        <time>2024-10-31T12:02:47Z</time>
      </trkpt>
      <trkpt lat="48.13124" lon="6.6105">
        <ele>444.7</ele>
        <time>2024-10-31T12:02:48Z</time>
      </trkpt>
      <trkpt lat="48.13124" lon="6.6105">
        <ele>444.7</ele>
        <time>2024-10-31T12:02:52Z</time>
      </trkpt>
      <trkpt lat="48.13124" lon="6.6105">
        <ele>444.7</ele>
        <time>2024-10-31T12:02:53Z</time>
      </trkpt>
      <trkpt lat="48.13125" lon="6.6105">
        <ele>444.6</ele>
        <time>2024-10-31T12:03:05Z</time>
      </trkpt>
      <trkpt lat="48.13125" lon="6.6105">
        <ele>444.6</ele>
        <time>2024-10-31T12:03:06Z</time>
      </trkpt>
      <trkpt lat="48.13125" lon="6.61051">
        <ele>444.6</ele>
        <time>2024-10-31T12:03:07Z</time>
      </trkpt>
      <trkpt lat="48.13125" lon="6.61051">
        <ele>444.6</ele>
        <time>2024-10-31T12:03:08Z</time>
      </trkpt>
      <trkpt lat="48.13125" lon="6.61051">
        <ele>444.6</ele>
        <time>2024-10-31T12:03:09Z</time>
      </trkpt>
      <trkpt lat="48.13125" lon="6.61052">
        <ele>444.5</ele>
        <time>2024-10-31T12:03:18Z</time>
      </trkpt>
      <trkpt lat="48.13124" lon="6.61051">
        <ele>444.4</ele>
        <time>2024-10-31T12:03:19Z</time>
      </trkpt>
      <trkpt lat="48.1312" lon="6.61038">
        <ele>443.6</ele>
        <time>2024-10-31T12:03:27Z</time>
      </trkpt>
      <trkpt lat="48.13114" lon="6.61027">
        <ele>442.7</ele>
        <time>2024-10-31T12:03:37Z</time>
      </trkpt>
      <trkpt lat="48.13105" lon="6.61019">
        <ele>441.8</ele>
        <time>2024-10-31T12:03:45Z</time>
      </trkpt>
      <trkpt lat="48.13098" lon="6.61011">
        <ele>441</ele>
        <time>2024-10-31T12:03:52Z</time>
      </trkpt>
      <trkpt lat="48.13091" lon="6.61003">
        <ele>440.3</ele>
        <time>2024-10-31T12:03:58Z</time>
      </trkpt>
      <trkpt lat="48.13089" lon="6.60999">
        <ele>440</ele>
        <time>2024-10-31T12:04:05Z</time>
      </trkpt>
      <trkpt lat="48.13089" lon="6.60999">
        <ele>440</ele>
        <time>2024-10-31T12:04:06Z</time>
      </trkpt>
      <trkpt lat="48.13089" lon="6.60999">
        <ele>440</ele>
        <time>2024-10-31T12:04:22Z</time>
      </trkpt>
      <trkpt lat="48.13089" lon="6.60999">
        <ele>440</ele>
        <time>2024-10-31T12:04:23Z</time>
      </trkpt>
      <trkpt lat="48.13089" lon="6.60999">
        <ele>440</ele>
        <time>2024-10-31T12:04:24Z</time>
      </trkpt>
      <trkpt lat="48.13089" lon="6.61">
        <ele>439.9</ele>
        <time>2024-10-31T12:04:35Z</time>
      </trkpt>
      <trkpt lat="48.13089" lon="6.61">
        <ele>439.9</ele>
        <time>2024-10-31T12:04:36Z</time>
      </trkpt>
      <trkpt lat="48.13089" lon="6.61">
        <ele>439.9</ele>
        <time>2024-10-31T12:04:44Z</time>
      </trkpt>
      <trkpt lat="48.13089" lon="6.61">
        <ele>439.9</ele>
        <time>2024-10-31T12:04:45Z</time>
      </trkpt>
      <trkpt lat="48.13089" lon="6.61">
        <ele>439.9</ele>
        <time>2024-10-31T12:04:46Z</time>
      </trkpt>
      <trkpt lat="48.13089" lon="6.61">
        <ele>439.9</ele>
        <time>2024-10-31T12:04:47Z</time>
      </trkpt>
      <trkpt lat="48.13089" lon="6.61">
        <ele>439.9</ele>
        <time>2024-10-31T12:04:48Z</time>
      </trkpt>
      <trkpt lat="48.13089" lon="6.61">
        <ele>439.9</ele>
        <time>2024-10-31T12:04:49Z</time>
      </trkpt>
      <trkpt lat="48.13088" lon="6.61">
        <ele>439.9</ele>
        <time>2024-10-31T12:05:12Z</time>
      </trkpt>
      <trkpt lat="48.13088" lon="6.61">
        <ele>439.8</ele>
        <time>2024-10-31T12:05:13Z</time>
      </trkpt>
      <trkpt lat="48.13088" lon="6.61">
        <ele>439.8</ele>
        <time>2024-10-31T12:05:20Z</time>
      </trkpt>
      <trkpt lat="48.13088" lon="6.61">
        <ele>439.8</ele>
        <time>2024-10-31T12:05:21Z</time>
      </trkpt>
      <trkpt lat="48.13087" lon="6.61001">
        <ele>439.7</ele>
        <time>2024-10-31T12:05:45Z</time>
      </trkpt>
      <trkpt lat="48.13085" lon="6.61">
        <ele>439.6</ele>
        <time>2024-10-31T12:05:46Z</time>
      </trkpt>
      <trkpt lat="48.13084" lon="6.61">
        <ele>439.5</ele>
        <time>2024-10-31T12:05:47Z</time>
      </trkpt>
      <trkpt lat="48.13075" lon="6.60995">
        <ele>438.8</ele>
        <time>2024-10-31T12:05:57Z</time>
      </trkpt>
      <trkpt lat="48.13065" lon="6.60991">
        <ele>438</ele>
        <time>2024-10-31T12:06:07Z</time>
      </trkpt>
      <trkpt lat="48.13056" lon="6.60986">
        <ele>437.1</ele>
        <time>2024-10-31T12:06:16Z</time>
      </trkpt>
      <trkpt lat="48.13047" lon="6.60985">
        <ele>436.3</ele>
        <time>2024-10-31T12:06:25Z</time>
      </trkpt>
      <trkpt lat="48.13043" lon="6.60984">
        <ele>435.8</ele>
        <time>2024-10-31T12:06:33Z</time>
      </trkpt>
      <trkpt lat="48.13043" lon="6.60984">
        <ele>435.8</ele>
        <time>2024-10-31T12:06:34Z</time>
      </trkpt>
      <trkpt lat="48.13042" lon="6.60983">
        <ele>435.8</ele>
        <time>2024-10-31T12:06:49Z</time>
      </trkpt>
      <trkpt lat="48.13042" lon="6.60983">
        <ele>435.7</ele>
        <time>2024-10-31T12:06:50Z</time>
      </trkpt>
      <trkpt lat="48.13041" lon="6.60982">
        <ele>435.6</ele>
        <time>2024-10-31T12:06:51Z</time>
      </trkpt>
      <trkpt lat="48.13032" lon="6.60978">
        <ele>434.7</ele>
        <time>2024-10-31T12:07:01Z</time>
      </trkpt>
      <trkpt lat="48.13024" lon="6.60974">
        <ele>433.8</ele>
        <time>2024-10-31T12:07:09Z</time>
      </trkpt>
      <trkpt lat="48.13015" lon="6.60969">
        <ele>432.9</ele>
        <time>2024-10-31T12:07:17Z</time>
      </trkpt>
      <trkpt lat="48.13006" lon="6.60965">
        <ele>432</ele>
        <time>2024-10-31T12:07:25Z</time>
      </trkpt>
      <trkpt lat="48.12996" lon="6.60962">
        <ele>431</ele>
        <time>2024-10-31T12:07:34Z</time>
      </trkpt>
      <trkpt lat="48.12987" lon="6.60961">
        <ele>430</ele>
        <time>2024-10-31T12:07:44Z</time>
      </trkpt>
      <trkpt lat="48.12978" lon="6.6096">
        <ele>429</ele>
        <time>2024-10-31T12:07:54Z</time>
      </trkpt>
      <trkpt lat="48.12976" lon="6.60959">
        <ele>428.9</ele>
        <time>2024-10-31T12:07:59Z</time>
      </trkpt>
      <trkpt lat="48.12976" lon="6.60959">
        <ele>428.9</ele>
        <time>2024-10-31T12:08:00Z</time>
      </trkpt>
      <trkpt lat="48.12976" lon="6.60959">
        <ele>428.9</ele>
        <time>2024-10-31T12:08:01Z</time>
      </trkpt>
      <trkpt lat="48.12975" lon="6.60959">
        <ele>428.7</ele>
        <time>2024-10-31T12:08:14Z</time>
      </trkpt>
      <trkpt lat="48.12974" lon="6.60958">
        <ele>428.7</ele>
        <time>2024-10-31T12:08:15Z</time>
      </trkpt>
      <trkpt lat="48.12973" lon="6.60958">
        <ele>428.6</ele>
        <time>2024-10-31T12:08:16Z</time>
      </trkpt>
      <trkpt lat="48.12971" lon="6.60958">
        <ele>428.3</ele>
        <time>2024-10-31T12:08:23Z</time>
      </trkpt>
      <trkpt lat="48.12971" lon="6.60958">
        <ele>428.3</ele>
        <time>2024-10-31T12:08:24Z</time>
      </trkpt>
      <trkpt lat="48.1297" lon="6.60958">
        <ele>428.2</ele>
        <time>2024-10-31T12:08:35Z</time>
      </trkpt>
      <trkpt lat="48.1297" lon="6.60957">
        <ele>428.2</ele>
        <time>2024-10-31T12:08:36Z</time>
      </trkpt>
      <trkpt lat="48.1297" lon="6.60957">
        <ele>428.1</ele>
        <time>2024-10-31T12:08:37Z</time>
      </trkpt>
      <trkpt lat="48.1297" lon="6.60957">
        <ele>428.1</ele>
        <time>2024-10-31T12:08:40Z</time>
      </trkpt>
      <trkpt lat="48.1297" lon="6.60957">
        <ele>428.1</ele>
        <time>2024-10-31T12:08:41Z</time>
      </trkpt>
      <trkpt lat="48.1297" lon="6.60959">
        <ele>428</ele>
        <time>2024-10-31T12:08:47Z</time>
      </trkpt>
      <trkpt lat="48.1297" lon="6.6096">
        <ele>428</ele>
        <time>2024-10-31T12:08:48Z</time>
      </trkpt>
      <trkpt lat="48.12971" lon="6.6096">
        <ele>428</ele>
        <time>2024-10-31T12:08:49Z</time>
      </trkpt>
      <trkpt lat="48.12971" lon="6.6096">
        <ele>428</ele>
        <time>2024-10-31T12:08:53Z</time>
      </trkpt>
      <trkpt lat="48.12971" lon="6.6096">
        <ele>428</ele>
        <time>2024-10-31T12:08:54Z</time>
      </trkpt>
      <trkpt lat="48.12973" lon="6.60959">
        <ele>427.7</ele>
        <time>2024-10-31T12:09:02Z</time>
      </trkpt>
      <trkpt lat="48.12973" lon="6.60958">
        <ele>427.7</ele>
        <time>2024-10-31T12:09:07Z</time>
      </trkpt>
      <trkpt lat="48.12973" lon="6.60958">
        <ele>427.7</ele>
        <time>2024-10-31T12:09:08Z</time>
      </trkpt>
      <trkpt lat="48.12972" lon="6.60961">
        <ele>427.9</ele>
        <time>2024-10-31T12:09:25Z</time>
      </trkpt>
      <trkpt lat="48.12972" lon="6.60962">
        <ele>428</ele>
        <time>2024-10-31T12:09:26Z</time>
      </trkpt>
      <trkpt lat="48.12966" lon="6.60973">
        <ele>429</ele>
        <time>2024-10-31T12:09:35Z</time>
      </trkpt>
      <trkpt lat="48.1297" lon="6.60973">
        <ele>429.5</ele>
        <time>2024-10-31T12:09:47Z</time>
      </trkpt>
      <trkpt lat="48.1297" lon="6.60973">
        <ele>429.5</ele>
        <time>2024-10-31T12:09:48Z</time>
      </trkpt>
      <trkpt lat="48.12969" lon="6.60973">
        <ele>429.5</ele>
        <time>2024-10-31T12:09:55Z</time>
      </trkpt>
      <trkpt lat="48.12968" lon="6.60973">
        <ele>429.7</ele>
        <time>2024-10-31T12:09:56Z</time>
      </trkpt>
      <trkpt lat="48.12961" lon="6.60983">
        <ele>430.9</ele>
        <time>2024-10-31T12:10:05Z</time>
      </trkpt>
      <trkpt lat="48.12953" lon="6.60991">
        <ele>431.9</ele>
        <time>2024-10-31T12:10:13Z</time>
      </trkpt>
      <trkpt lat="48.12945" lon="6.61">
        <ele>433.1</ele>
        <time>2024-10-31T12:10:23Z</time>
      </trkpt>
      <trkpt lat="48.12937" lon="6.61007">
        <ele>434.1</ele>
        <time>2024-10-31T12:10:33Z</time>
      </trkpt>
      <trkpt lat="48.12928" lon="6.61012">
        <ele>434.8</ele>
        <time>2024-10-31T12:10:43Z</time>
      </trkpt>
      <trkpt lat="48.12919" lon="6.61016">
        <ele>435.3</ele>
        <time>2024-10-31T12:10:55Z</time>
      </trkpt>
      <trkpt lat="48.12909" lon="6.61019">
        <ele>435.8</ele>
        <time>2024-10-31T12:11:05Z</time>
      </trkpt>
      <trkpt lat="48.129" lon="6.61022">
        <ele>435.7</ele>
        <time>2024-10-31T12:11:14Z</time>
      </trkpt>
      <trkpt lat="48.12891" lon="6.61026">
        <ele>435.6</ele>
        <time>2024-10-31T12:11:23Z</time>
      </trkpt>
      <trkpt lat="48.12881" lon="6.61031">
        <ele>435.7</ele>
        <time>2024-10-31T12:11:32Z</time>
      </trkpt>
      <trkpt lat="48.12872" lon="6.61036">
        <ele>436</ele>
        <time>2024-10-31T12:11:40Z</time>
      </trkpt>
      <trkpt lat="48.12863" lon="6.61039">
        <ele>436.5</ele>
        <time>2024-10-31T12:11:48Z</time>
      </trkpt>
      <trkpt lat="48.12855" lon="6.61043">
        <ele>437</ele>
        <time>2024-10-31T12:11:56Z</time>
      </trkpt>
      <trkpt lat="48.12845" lon="6.61047">
        <ele>437.7</ele>
        <time>2024-10-31T12:12:05Z</time>
      </trkpt>
      <trkpt lat="48.12836" lon="6.61051">
        <ele>438.4</ele>
        <time>2024-10-31T12:12:14Z</time>
      </trkpt>
      <trkpt lat="48.12827" lon="6.61055">
        <ele>439.1</ele>
        <time>2024-10-31T12:12:23Z</time>
      </trkpt>
      <trkpt lat="48.12819" lon="6.61061">
        <ele>439.7</ele>
        <time>2024-10-31T12:12:35Z</time>
      </trkpt>
      <trkpt lat="48.12809" lon="6.61064">
        <ele>440.3</ele>
        <time>2024-10-31T12:12:44Z</time>
      </trkpt>
      <trkpt lat="48.128" lon="6.61065">
        <ele>440.8</ele>
        <time>2024-10-31T12:12:52Z</time>
      </trkpt>
      <trkpt lat="48.12791" lon="6.6107">
        <ele>441.4</ele>
        <time>2024-10-31T12:13:01Z</time>
      </trkpt>
      <trkpt lat="48.12781" lon="6.61075">
        <ele>442</ele>
        <time>2024-10-31T12:13:10Z</time>
      </trkpt>
      <trkpt lat="48.12772" lon="6.61079">
        <ele>442.7</ele>
        <time>2024-10-31T12:13:19Z</time>
      </trkpt>
      <trkpt lat="48.12763" lon="6.61084">
        <ele>443.4</ele>
        <time>2024-10-31T12:13:28Z</time>
      </trkpt>
      <trkpt lat="48.12754" lon="6.61089">
        <ele>444.3</ele>
        <time>2024-10-31T12:13:37Z</time>
      </trkpt>
      <trkpt lat="48.12746" lon="6.61095">
        <ele>445.2</ele>
        <time>2024-10-31T12:13:47Z</time>
      </trkpt>
      <trkpt lat="48.12743" lon="6.61097">
        <ele>445.6</ele>
        <time>2024-10-31T12:13:54Z</time>
      </trkpt>
      <trkpt lat="48.12743" lon="6.61097">
        <ele>445.6</ele>
        <time>2024-10-31T12:13:55Z</time>
      </trkpt>
      <trkpt lat="48.12743" lon="6.61097">
        <ele>445.6</ele>
        <time>2024-10-31T12:13:56Z</time>
      </trkpt>
      <trkpt lat="48.12742" lon="6.61099">
        <ele>445.8</ele>
        <time>2024-10-31T12:14:32Z</time>
      </trkpt>
      <trkpt lat="48.12738" lon="6.61111">
        <ele>447</ele>
        <time>2024-10-31T12:14:42Z</time>
      </trkpt>
      <trkpt lat="48.12737" lon="6.61113">
        <ele>447.1</ele>
        <time>2024-10-31T12:14:47Z</time>
      </trkpt>
      <trkpt lat="48.12736" lon="6.61115">
        <ele>447.4</ele>
        <time>2024-10-31T12:15:20Z</time>
      </trkpt>
      <trkpt lat="48.12735" lon="6.61116">
        <ele>447.5</ele>
        <time>2024-10-31T12:15:21Z</time>
      </trkpt>
      <trkpt lat="48.12729" lon="6.61128">
        <ele>448.8</ele>
        <time>2024-10-31T12:15:31Z</time>
      </trkpt>
      <trkpt lat="48.12721" lon="6.61136">
        <ele>450</ele>
        <time>2024-10-31T12:15:40Z</time>
      </trkpt>
      <trkpt lat="48.12713" lon="6.61144">
        <ele>451.3</ele>
        <time>2024-10-31T12:15:51Z</time>
      </trkpt>
      <trkpt lat="48.12704" lon="6.61142">
        <ele>452.4</ele>
        <time>2024-10-31T12:15:58Z</time>
      </trkpt>
      <trkpt lat="48.12694" lon="6.61139">
        <ele>453.5</ele>
        <time>2024-10-31T12:16:07Z</time>
      </trkpt>
      <trkpt lat="48.12687" lon="6.61132">
        <ele>454.3</ele>
        <time>2024-10-31T12:16:16Z</time>
      </trkpt>
      <trkpt lat="48.1268" lon="6.61123">
        <ele>455.1</ele>
        <time>2024-10-31T12:16:29Z</time>
      </trkpt>
      <trkpt lat="48.12676" lon="6.6111">
        <ele>455.8</ele>
        <time>2024-10-31T12:16:38Z</time>
      </trkpt>
      <trkpt lat="48.12676" lon="6.61096">
        <ele>456.6</ele>
        <time>2024-10-31T12:16:47Z</time>
      </trkpt>
      <trkpt lat="48.12676" lon="6.61082">
        <ele>457.3</ele>
        <time>2024-10-31T12:16:57Z</time>
      </trkpt>
      <trkpt lat="48.12673" lon="6.61067">
        <ele>458.1</ele>
        <time>2024-10-31T12:17:06Z</time>
      </trkpt>
      <trkpt lat="48.12669" lon="6.61055">
        <ele>458.8</ele>
        <time>2024-10-31T12:17:13Z</time>
      </trkpt>
      <trkpt lat="48.12664" lon="6.61042">
        <ele>459.6</ele>
        <time>2024-10-31T12:17:21Z</time>
      </trkpt>
      <trkpt lat="48.12659" lon="6.6103">
        <ele>460.3</ele>
        <time>2024-10-31T12:17:29Z</time>
      </trkpt>
      <trkpt lat="48.12653" lon="6.61019">
        <ele>461</ele>
        <time>2024-10-31T12:17:37Z</time>
      </trkpt>
      <trkpt lat="48.12648" lon="6.61007">
        <ele>461.7</ele>
        <time>2024-10-31T12:17:45Z</time>
      </trkpt>
      <trkpt lat="48.12644" lon="6.60995">
        <ele>462.4</ele>
        <time>2024-10-31T12:17:53Z</time>
      </trkpt>
      <trkpt lat="48.12638" lon="6.60983">
        <ele>463.1</ele>
        <time>2024-10-31T12:18:01Z</time>
      </trkpt>
      <trkpt lat="48.12633" lon="6.60971">
        <ele>463.7</ele>
        <time>2024-10-31T12:18:10Z</time>
      </trkpt>
      <trkpt lat="48.12629" lon="6.60958">
        <ele>464.4</ele>
        <time>2024-10-31T12:18:19Z</time>
      </trkpt>
      <trkpt lat="48.12624" lon="6.60946">
        <ele>465.1</ele>
        <time>2024-10-31T12:18:27Z</time>
      </trkpt>
      <trkpt lat="48.12619" lon="6.60934">
        <ele>465.7</ele>
        <time>2024-10-31T12:18:35Z</time>
      </trkpt>
      <trkpt lat="48.12615" lon="6.6092">
        <ele>466.4</ele>
        <time>2024-10-31T12:18:44Z</time>
      </trkpt>
      <trkpt lat="48.12611" lon="6.60908">
        <ele>467</ele>
        <time>2024-10-31T12:18:52Z</time>
      </trkpt>
      <trkpt lat="48.12605" lon="6.60895">
        <ele>467.6</ele>
        <time>2024-10-31T12:19:01Z</time>
      </trkpt>
      <trkpt lat="48.12599" lon="6.60884">
        <ele>468.2</ele>
        <time>2024-10-31T12:19:10Z</time>
      </trkpt>
      <trkpt lat="48.12593" lon="6.60873">
        <ele>468.7</ele>
        <time>2024-10-31T12:19:19Z</time>
      </trkpt>
      <trkpt lat="48.12587" lon="6.60863">
        <ele>469.2</ele>
        <time>2024-10-31T12:19:27Z</time>
      </trkpt>
      <trkpt lat="48.1258" lon="6.60852">
        <ele>469.6</ele>
        <time>2024-10-31T12:19:35Z</time>
      </trkpt>
      <trkpt lat="48.12574" lon="6.60842">
        <ele>469.9</ele>
        <time>2024-10-31T12:19:43Z</time>
      </trkpt>
      <trkpt lat="48.12567" lon="6.60832">
        <ele>470.2</ele>
        <time>2024-10-31T12:19:51Z</time>
      </trkpt>
      <trkpt lat="48.12558" lon="6.60824">
        <ele>470.5</ele>
        <time>2024-10-31T12:20:00Z</time>
      </trkpt>
      <trkpt lat="48.12551" lon="6.60816">
        <ele>470.8</ele>
        <time>2024-10-31T12:20:09Z</time>
      </trkpt>
      <trkpt lat="48.12542" lon="6.60811">
        <ele>471.1</ele>
        <time>2024-10-31T12:20:17Z</time>
      </trkpt>
      <trkpt lat="48.12533" lon="6.60806">
        <ele>471.4</ele>
        <time>2024-10-31T12:20:25Z</time>
      </trkpt>
      <trkpt lat="48.12524" lon="6.60801">
        <ele>471.7</ele>
        <time>2024-10-31T12:20:34Z</time>
      </trkpt>
      <trkpt lat="48.12515" lon="6.60798">
        <ele>471.9</ele>
        <time>2024-10-31T12:20:43Z</time>
      </trkpt>
      <trkpt lat="48.12506" lon="6.60794">
        <ele>472.2</ele>
        <time>2024-10-31T12:20:51Z</time>
      </trkpt>
      <trkpt lat="48.12497" lon="6.60792">
        <ele>472.4</ele>
        <time>2024-10-31T12:21:00Z</time>
      </trkpt>
      <trkpt lat="48.12488" lon="6.60791">
        <ele>472.7</ele>
        <time>2024-10-31T12:21:09Z</time>
      </trkpt>
      <trkpt lat="48.12478" lon="6.60792">
        <ele>473.1</ele>
        <time>2024-10-31T12:21:17Z</time>
      </trkpt>
      <trkpt lat="48.12469" lon="6.60796">
        <ele>473.5</ele>
        <time>2024-10-31T12:21:26Z</time>
      </trkpt>
      <trkpt lat="48.12459" lon="6.60801">
        <ele>473.9</ele>
        <time>2024-10-31T12:21:35Z</time>
      </trkpt>
      <trkpt lat="48.12451" lon="6.60807">
        <ele>474.4</ele>
        <time>2024-10-31T12:21:43Z</time>
      </trkpt>
      <trkpt lat="48.12444" lon="6.60817">
        <ele>474.9</ele>
        <time>2024-10-31T12:21:52Z</time>
      </trkpt>
      <trkpt lat="48.12438" lon="6.60829">
        <ele>475.3</ele>
        <time>2024-10-31T12:22:00Z</time>
      </trkpt>
      <trkpt lat="48.12434" lon="6.60841">
        <ele>475.7</ele>
        <time>2024-10-31T12:22:08Z</time>
      </trkpt>
      <trkpt lat="48.12429" lon="6.60854">
        <ele>475.9</ele>
        <time>2024-10-31T12:22:17Z</time>
      </trkpt>
      <trkpt lat="48.12425" lon="6.60866">
        <ele>475.8</ele>
        <time>2024-10-31T12:22:25Z</time>
      </trkpt>
      <trkpt lat="48.12418" lon="6.60876">
        <ele>475.5</ele>
        <time>2024-10-31T12:22:34Z</time>
      </trkpt>
      <trkpt lat="48.12409" lon="6.60876">
        <ele>475.1</ele>
        <time>2024-10-31T12:22:44Z</time>
      </trkpt>
      <trkpt lat="48.124" lon="6.60869">
        <ele>474.6</ele>
        <time>2024-10-31T12:22:53Z</time>
      </trkpt>
      <trkpt lat="48.12394" lon="6.60858">
        <ele>474</ele>
        <time>2024-10-31T12:23:02Z</time>
      </trkpt>
      <trkpt lat="48.12387" lon="6.60848">
        <ele>473.4</ele>
        <time>2024-10-31T12:23:12Z</time>
      </trkpt>
      <trkpt lat="48.12381" lon="6.60838">
        <ele>472.8</ele>
        <time>2024-10-31T12:23:24Z</time>
      </trkpt>
      <trkpt lat="48.12374" lon="6.60828">
        <ele>472.4</ele>
        <time>2024-10-31T12:23:33Z</time>
      </trkpt>
      <trkpt lat="48.12367" lon="6.60819">
        <ele>472</ele>
        <time>2024-10-31T12:23:42Z</time>
      </trkpt>
      <trkpt lat="48.1236" lon="6.60809">
        <ele>471.6</ele>
        <time>2024-10-31T12:23:51Z</time>
      </trkpt>
      <trkpt lat="48.12353" lon="6.608">
        <ele>471.2</ele>
        <time>2024-10-31T12:24:00Z</time>
      </trkpt>
      <trkpt lat="48.12345" lon="6.60792">
        <ele>470.6</ele>
        <time>2024-10-31T12:24:10Z</time>
      </trkpt>
      <trkpt lat="48.1234" lon="6.60781">
        <ele>469.9</ele>
        <time>2024-10-31T12:24:20Z</time>
      </trkpt>
      <trkpt lat="48.12334" lon="6.6077">
        <ele>469</ele>
        <time>2024-10-31T12:24:32Z</time>
      </trkpt>
      <trkpt lat="48.12331" lon="6.60756">
        <ele>468</ele>
        <time>2024-10-31T12:24:43Z</time>
      </trkpt>
      <trkpt lat="48.12326" lon="6.60744">
        <ele>466.9</ele>
        <time>2024-10-31T12:24:54Z</time>
      </trkpt>
      <trkpt lat="48.12324" lon="6.60731">
        <ele>465.9</ele>
        <time>2024-10-31T12:25:05Z</time>
      </trkpt>
      <trkpt lat="48.12323" lon="6.60717">
        <ele>464.9</ele>
        <time>2024-10-31T12:25:16Z</time>
      </trkpt>
      <trkpt lat="48.1232" lon="6.60704">
        <ele>464</ele>
        <time>2024-10-31T12:25:26Z</time>
      </trkpt>
      <trkpt lat="48.12318" lon="6.6069">
        <ele>463.3</ele>
        <time>2024-10-31T12:25:36Z</time>
      </trkpt>
      <trkpt lat="48.12313" lon="6.60679">
        <ele>462.6</ele>
        <time>2024-10-31T12:25:45Z</time>
      </trkpt>
      <trkpt lat="48.12309" lon="6.60667">
        <ele>462.1</ele>
        <time>2024-10-31T12:25:54Z</time>
      </trkpt>
      <trkpt lat="48.12306" lon="6.60654">
        <ele>461.6</ele>
        <time>2024-10-31T12:26:03Z</time>
      </trkpt>
      <trkpt lat="48.12304" lon="6.6064">
        <ele>461.1</ele>
        <time>2024-10-31T12:26:12Z</time>
      </trkpt>
      <trkpt lat="48.12302" lon="6.60626">
        <ele>460.6</ele>
        <time>2024-10-31T12:26:24Z</time>
      </trkpt>
      <trkpt lat="48.12304" lon="6.60612">
        <ele>460.1</ele>
        <time>2024-10-31T12:26:33Z</time>
      </trkpt>
      <trkpt lat="48.12307" lon="6.60599">
        <ele>459.6</ele>
        <time>2024-10-31T12:26:42Z</time>
      </trkpt>
      <trkpt lat="48.12308" lon="6.60584">
        <ele>458.9</ele>
        <time>2024-10-31T12:26:52Z</time>
      </trkpt>
      <trkpt lat="48.1231" lon="6.60571">
        <ele>458.1</ele>
        <time>2024-10-31T12:27:02Z</time>
      </trkpt>
      <trkpt lat="48.12312" lon="6.60557">
        <ele>457.4</ele>
        <time>2024-10-31T12:27:12Z</time>
      </trkpt>
      <trkpt lat="48.12314" lon="6.60543">
        <ele>456.6</ele>
        <time>2024-10-31T12:27:24Z</time>
      </trkpt>
      <trkpt lat="48.12317" lon="6.6053">
        <ele>456</ele>
        <time>2024-10-31T12:27:35Z</time>
      </trkpt>
      <trkpt lat="48.12318" lon="6.60515">
        <ele>455.3</ele>
        <time>2024-10-31T12:27:47Z</time>
      </trkpt>
      <trkpt lat="48.12318" lon="6.60501">
        <ele>454.6</ele>
        <time>2024-10-31T12:28:01Z</time>
      </trkpt>
      <trkpt lat="48.12322" lon="6.60488">
        <ele>453.9</ele>
        <time>2024-10-31T12:28:13Z</time>
      </trkpt>
      <trkpt lat="48.12322" lon="6.60474">
        <ele>453.5</ele>
        <time>2024-10-31T12:28:29Z</time>
      </trkpt>
      <trkpt lat="48.12322" lon="6.60474">
        <ele>453.5</ele>
        <time>2024-10-31T12:28:32Z</time>
      </trkpt>
      <trkpt lat="48.12322" lon="6.60474">
        <ele>453.5</ele>
        <time>2024-10-31T12:28:33Z</time>
      </trkpt>
      <trkpt lat="48.12322" lon="6.60474">
        <ele>453.5</ele>
        <time>2024-10-31T12:28:34Z</time>
      </trkpt>
      <trkpt lat="48.12322" lon="6.60474">
        <ele>453.5</ele>
        <time>2024-10-31T12:28:35Z</time>
      </trkpt>
      <trkpt lat="48.12322" lon="6.60474">
        <ele>453.5</ele>
        <time>2024-10-31T12:28:36Z</time>
      </trkpt>
      <trkpt lat="48.12322" lon="6.60474">
        <ele>453.5</ele>
        <time>2024-10-31T12:28:37Z</time>
      </trkpt>
      <trkpt lat="48.12322" lon="6.60474">
        <ele>453.5</ele>
        <time>2024-10-31T12:28:38Z</time>
      </trkpt>
      <trkpt lat="48.12322" lon="6.60474">
        <ele>453.5</ele>
        <time>2024-10-31T12:28:39Z</time>
      </trkpt>
      <trkpt lat="48.12323" lon="6.60475">
        <ele>453.4</ele>
        <time>2024-10-31T12:29:57Z</time>
      </trkpt>
      <trkpt lat="48.12323" lon="6.60474">
        <ele>453.4</ele>
        <time>2024-10-31T12:29:58Z</time>
      </trkpt>
      <trkpt lat="48.12325" lon="6.60465">
        <ele>453.2</ele>
        <time>2024-10-31T12:30:12Z</time>
      </trkpt>
      <trkpt lat="48.12325" lon="6.60465">
        <ele>453.2</ele>
        <time>2024-10-31T12:30:13Z</time>
      </trkpt>
      <trkpt lat="48.12327" lon="6.60462">
        <ele>453.1</ele>
        <time>2024-10-31T12:31:08Z</time>
      </trkpt>
      <trkpt lat="48.12328" lon="6.60461">
        <ele>453.1</ele>
        <time>2024-10-31T12:31:09Z</time>
      </trkpt>
      <trkpt lat="48.12328" lon="6.60447">
        <ele>452.8</ele>
        <time>2024-10-31T12:31:20Z</time>
      </trkpt>
      <trkpt lat="48.12322" lon="6.60436">
        <ele>453</ele>
        <time>2024-10-31T12:31:33Z</time>
      </trkpt>
      <trkpt lat="48.12322" lon="6.60436">
        <ele>453</ele>
        <time>2024-10-31T12:31:34Z</time>
      </trkpt>
      <trkpt lat="48.12322" lon="6.60436">
        <ele>453</ele>
        <time>2024-10-31T12:31:35Z</time>
      </trkpt>
      <trkpt lat="48.12322" lon="6.60436">
        <ele>453</ele>
        <time>2024-10-31T12:31:36Z</time>
      </trkpt>
      <trkpt lat="48.12321" lon="6.60435">
        <ele>452.1</ele>
        <time>2024-10-31T12:31:50Z</time>
      </trkpt>
      <trkpt lat="48.1232" lon="6.60435">
        <ele>451.1</ele>
        <time>2024-10-31T12:31:51Z</time>
      </trkpt>
      <trkpt lat="48.12319" lon="6.60436">
        <ele>450.3</ele>
        <time>2024-10-31T12:31:52Z</time>
      </trkpt>
      <trkpt lat="48.12312" lon="6.60437">
        <ele>448.8</ele>
        <time>2024-10-31T12:32:05Z</time>
      </trkpt>
      <trkpt lat="48.12312" lon="6.60437">
        <ele>448.8</ele>
        <time>2024-10-31T12:32:06Z</time>
      </trkpt>
      <trkpt lat="48.12312" lon="6.60437">
        <ele>448.8</ele>
        <time>2024-10-31T12:32:35Z</time>
      </trkpt>
      <trkpt lat="48.12312" lon="6.60437">
        <ele>448.8</ele>
        <time>2024-10-31T12:32:36Z</time>
      </trkpt>
      <trkpt lat="48.12312" lon="6.60437">
        <ele>448.8</ele>
        <time>2024-10-31T12:32:37Z</time>
      </trkpt>
      <trkpt lat="48.12312" lon="6.60437">
        <ele>448.8</ele>
        <time>2024-10-31T12:32:38Z</time>
      </trkpt>
      <trkpt lat="48.12312" lon="6.60437">
        <ele>448.8</ele>
        <time>2024-10-31T12:32:39Z</time>
      </trkpt>
      <trkpt lat="48.12313" lon="6.60437">
        <ele>448.8</ele>
        <time>2024-10-31T12:33:34Z</time>
      </trkpt>
      <trkpt lat="48.12313" lon="6.60438">
        <ele>448.9</ele>
        <time>2024-10-31T12:33:35Z</time>
      </trkpt>
      <trkpt lat="48.12312" lon="6.60438">
        <ele>448.9</ele>
        <time>2024-10-31T12:33:36Z</time>
      </trkpt>
      <trkpt lat="48.12312" lon="6.60439">
        <ele>448.9</ele>
        <time>2024-10-31T12:33:37Z</time>
      </trkpt>
      <trkpt lat="48.12313" lon="6.60439">
        <ele>449</ele>
        <time>2024-10-31T12:33:38Z</time>
      </trkpt>
      <trkpt lat="48.12313" lon="6.6044">
        <ele>449</ele>
        <time>2024-10-31T12:33:39Z</time>
      </trkpt>
      <trkpt lat="48.12313" lon="6.6044">
        <ele>449</ele>
        <time>2024-10-31T12:33:40Z</time>
      </trkpt>
      <trkpt lat="48.12313" lon="6.6044">
        <ele>449</ele>
        <time>2024-10-31T12:33:41Z</time>
      </trkpt>
      <trkpt lat="48.12312" lon="6.6044">
        <ele>449</ele>
        <time>2024-10-31T12:33:47Z</time>
      </trkpt>
      <trkpt lat="48.12312" lon="6.6044">
        <ele>449</ele>
        <time>2024-10-31T12:33:48Z</time>
      </trkpt>
      <trkpt lat="48.12312" lon="6.6044">
        <ele>449</ele>
        <time>2024-10-31T12:34:00Z</time>
      </trkpt>
      <trkpt lat="48.12312" lon="6.6044">
        <ele>449</ele>
        <time>2024-10-31T12:34:01Z</time>
      </trkpt>
      <trkpt lat="48.12312" lon="6.6044">
        <ele>449</ele>
        <time>2024-10-31T12:34:04Z</time>
      </trkpt>
      <trkpt lat="48.12312" lon="6.6044">
        <ele>449</ele>
        <time>2024-10-31T12:34:05Z</time>
      </trkpt>
      <trkpt lat="48.12312" lon="6.6044">
        <ele>449</ele>
        <time>2024-10-31T12:34:06Z</time>
      </trkpt>
      <trkpt lat="48.12311" lon="6.60442">
        <ele>449.2</ele>
        <time>2024-10-31T12:37:12Z</time>
      </trkpt>
      <trkpt lat="48.12311" lon="6.60442">
        <ele>449.2</ele>
        <time>2024-10-31T12:37:13Z</time>
      </trkpt>
      <trkpt lat="48.12311" lon="6.60442">
        <ele>449.2</ele>
        <time>2024-10-31T12:37:19Z</time>
      </trkpt>
      <trkpt lat="48.12311" lon="6.60442">
        <ele>449.2</ele>
        <time>2024-10-31T12:37:20Z</time>
      </trkpt>
      <trkpt lat="48.12311" lon="6.60442">
        <ele>449.2</ele>
        <time>2024-10-31T12:37:21Z</time>
      </trkpt>
      <trkpt lat="48.12311" lon="6.60444">
        <ele>449.3</ele>
        <time>2024-10-31T12:45:04Z</time>
      </trkpt>
      <trkpt lat="48.12311" lon="6.60443">
        <ele>449.3</ele>
        <time>2024-10-31T12:45:05Z</time>
      </trkpt>
      <trkpt lat="48.1231" lon="6.60442">
        <ele>449.4</ele>
        <time>2024-10-31T12:45:06Z</time>
      </trkpt>
      <trkpt lat="48.12301" lon="6.60437">
        <ele>450.3</ele>
        <time>2024-10-31T12:45:17Z</time>
      </trkpt>
      <trkpt lat="48.12292" lon="6.60436">
        <ele>451.4</ele>
        <time>2024-10-31T12:45:26Z</time>
      </trkpt>
      <trkpt lat="48.12283" lon="6.6044">
        <ele>452.7</ele>
        <time>2024-10-31T12:45:42Z</time>
      </trkpt>
      <trkpt lat="48.12283" lon="6.60439">
        <ele>452.8</ele>
        <time>2024-10-31T12:45:59Z</time>
      </trkpt>
      <trkpt lat="48.12283" lon="6.6044">
        <ele>452.9</ele>
        <time>2024-10-31T12:46:00Z</time>
      </trkpt>
      <trkpt lat="48.12283" lon="6.6044">
        <ele>453</ele>
        <time>2024-10-31T12:46:01Z</time>
      </trkpt>
      <trkpt lat="48.12275" lon="6.60447">
        <ele>454.6</ele>
        <time>2024-10-31T12:46:18Z</time>
      </trkpt>
      <trkpt lat="48.12265" lon="6.60448">
        <ele>456.2</ele>
        <time>2024-10-31T12:46:30Z</time>
      </trkpt>
      <trkpt lat="48.12257" lon="6.60451">
        <ele>457.9</ele>
        <time>2024-10-31T12:46:42Z</time>
      </trkpt>
      <trkpt lat="48.12248" lon="6.60455">
        <ele>459.5</ele>
        <time>2024-10-31T12:46:56Z</time>
      </trkpt>
      <trkpt lat="48.12238" lon="6.60456">
        <ele>461.3</ele>
        <time>2024-10-31T12:47:05Z</time>
      </trkpt>
      <trkpt lat="48.12228" lon="6.60457">
        <ele>463</ele>
        <time>2024-10-31T12:47:17Z</time>
      </trkpt>
      <trkpt lat="48.12219" lon="6.6045">
        <ele>464.5</ele>
        <time>2024-10-31T12:47:26Z</time>
      </trkpt>
      <trkpt lat="48.1221" lon="6.60446">
        <ele>465.9</ele>
        <time>2024-10-31T12:47:33Z</time>
      </trkpt>
      <trkpt lat="48.12201" lon="6.60441">
        <ele>467.2</ele>
        <time>2024-10-31T12:47:42Z</time>
      </trkpt>
      <trkpt lat="48.12192" lon="6.60439">
        <ele>468.4</ele>
        <time>2024-10-31T12:47:52Z</time>
      </trkpt>
      <trkpt lat="48.12183" lon="6.6044">
        <ele>469.6</ele>
        <time>2024-10-31T12:48:05Z</time>
      </trkpt>
      <trkpt lat="48.12173" lon="6.60439">
        <ele>470.8</ele>
        <time>2024-10-31T12:48:14Z</time>
      </trkpt>
      <trkpt lat="48.12164" lon="6.60438">
        <ele>471.8</ele>
        <time>2024-10-31T12:48:22Z</time>
      </trkpt>
      <trkpt lat="48.12154" lon="6.60439">
        <ele>472.9</ele>
        <time>2024-10-31T12:48:30Z</time>
      </trkpt>
      <trkpt lat="48.12146" lon="6.60444">
        <ele>474</ele>
        <time>2024-10-31T12:48:39Z</time>
      </trkpt>
      <trkpt lat="48.12137" lon="6.60446">
        <ele>475.3</ele>
        <time>2024-10-31T12:48:49Z</time>
      </trkpt>
      <trkpt lat="48.12128" lon="6.60449">
        <ele>476.6</ele>
        <time>2024-10-31T12:48:59Z</time>
      </trkpt>
      <trkpt lat="48.12118" lon="6.60454">
        <ele>477.8</ele>
        <time>2024-10-31T12:49:09Z</time>
      </trkpt>
      <trkpt lat="48.1211" lon="6.6046">
        <ele>478.9</ele>
        <time>2024-10-31T12:49:19Z</time>
      </trkpt>
      <trkpt lat="48.12101" lon="6.60465">
        <ele>479.8</ele>
        <time>2024-10-31T12:49:28Z</time>
      </trkpt>
      <trkpt lat="48.12093" lon="6.60473">
        <ele>480.4</ele>
        <time>2024-10-31T12:49:38Z</time>
      </trkpt>
      <trkpt lat="48.12084" lon="6.60478">
        <ele>480.8</ele>
        <time>2024-10-31T12:49:48Z</time>
      </trkpt>
      <trkpt lat="48.12076" lon="6.60483">
        <ele>481.1</ele>
        <time>2024-10-31T12:49:56Z</time>
      </trkpt>
      <trkpt lat="48.12068" lon="6.6049">
        <ele>481.3</ele>
        <time>2024-10-31T12:50:04Z</time>
      </trkpt>
      <trkpt lat="48.1206" lon="6.60499">
        <ele>481.6</ele>
        <time>2024-10-31T12:50:13Z</time>
      </trkpt>
      <trkpt lat="48.12052" lon="6.60507">
        <ele>481.8</ele>
        <time>2024-10-31T12:50:22Z</time>
      </trkpt>
      <trkpt lat="48.12044" lon="6.60516">
        <ele>482</ele>
        <time>2024-10-31T12:50:31Z</time>
      </trkpt>
      <trkpt lat="48.12036" lon="6.60523">
        <ele>482.2</ele>
        <time>2024-10-31T12:50:40Z</time>
      </trkpt>
      <trkpt lat="48.12029" lon="6.60531">
        <ele>482.2</ele>
        <time>2024-10-31T12:50:49Z</time>
      </trkpt>
      <trkpt lat="48.12021" lon="6.60539">
        <ele>482</ele>
        <time>2024-10-31T12:50:57Z</time>
      </trkpt>
      <trkpt lat="48.12013" lon="6.60549">
        <ele>481.7</ele>
        <time>2024-10-31T12:51:06Z</time>
      </trkpt>
      <trkpt lat="48.12005" lon="6.60559">
        <ele>481.4</ele>
        <time>2024-10-31T12:51:15Z</time>
      </trkpt>
      <trkpt lat="48.11998" lon="6.60569">
        <ele>481</ele>
        <time>2024-10-31T12:51:23Z</time>
      </trkpt>
      <trkpt lat="48.1199" lon="6.60577">
        <ele>480.6</ele>
        <time>2024-10-31T12:51:33Z</time>
      </trkpt>
      <trkpt lat="48.11983" lon="6.60587">
        <ele>480.3</ele>
        <time>2024-10-31T12:51:43Z</time>
      </trkpt>
      <trkpt lat="48.11976" lon="6.60597">
        <ele>480.2</ele>
        <time>2024-10-31T12:51:52Z</time>
      </trkpt>
      <trkpt lat="48.11969" lon="6.60608">
        <ele>480.1</ele>
        <time>2024-10-31T12:52:01Z</time>
      </trkpt>
      <trkpt lat="48.11964" lon="6.60619">
        <ele>480.3</ele>
        <time>2024-10-31T12:52:09Z</time>
      </trkpt>
      <trkpt lat="48.11959" lon="6.60632">
        <ele>480.6</ele>
        <time>2024-10-31T12:52:18Z</time>
      </trkpt>
      <trkpt lat="48.11954" lon="6.60644">
        <ele>481</ele>
        <time>2024-10-31T12:52:27Z</time>
      </trkpt>
      <trkpt lat="48.11948" lon="6.60656">
        <ele>481.4</ele>
        <time>2024-10-31T12:52:35Z</time>
      </trkpt>
      <trkpt lat="48.11942" lon="6.60667">
        <ele>481.9</ele>
        <time>2024-10-31T12:52:43Z</time>
      </trkpt>
      <trkpt lat="48.11938" lon="6.6068">
        <ele>482.4</ele>
        <time>2024-10-31T12:52:52Z</time>
      </trkpt>
      <trkpt lat="48.11935" lon="6.60694">
        <ele>482.9</ele>
        <time>2024-10-31T12:53:00Z</time>
      </trkpt>
      <trkpt lat="48.11932" lon="6.60707">
        <ele>483.5</ele>
        <time>2024-10-31T12:53:08Z</time>
      </trkpt>
      <trkpt lat="48.11929" lon="6.6072">
        <ele>484</ele>
        <time>2024-10-31T12:53:16Z</time>
      </trkpt>
      <trkpt lat="48.11926" lon="6.60733">
        <ele>484.6</ele>
        <time>2024-10-31T12:53:24Z</time>
      </trkpt>
      <trkpt lat="48.11922" lon="6.60746">
        <ele>485.3</ele>
        <time>2024-10-31T12:53:33Z</time>
      </trkpt>
      <trkpt lat="48.11919" lon="6.6076">
        <ele>486</ele>
        <time>2024-10-31T12:53:42Z</time>
      </trkpt>
      <trkpt lat="48.11916" lon="6.60774">
        <ele>486.7</ele>
        <time>2024-10-31T12:53:51Z</time>
      </trkpt>
      <trkpt lat="48.11913" lon="6.60787">
        <ele>487.3</ele>
        <time>2024-10-31T12:54:00Z</time>
      </trkpt>
      <trkpt lat="48.11909" lon="6.60801">
        <ele>487.9</ele>
        <time>2024-10-31T12:54:08Z</time>
      </trkpt>
      <trkpt lat="48.11905" lon="6.60814">
        <ele>488.5</ele>
        <time>2024-10-31T12:54:16Z</time>
      </trkpt>
      <trkpt lat="48.11902" lon="6.60826">
        <ele>489.1</ele>
        <time>2024-10-31T12:54:24Z</time>
      </trkpt>
      <trkpt lat="48.11898" lon="6.60841">
        <ele>489.8</ele>
        <time>2024-10-31T12:54:33Z</time>
      </trkpt>
      <trkpt lat="48.11895" lon="6.60854">
        <ele>490.5</ele>
        <time>2024-10-31T12:54:41Z</time>
      </trkpt>
      <trkpt lat="48.11892" lon="6.60868">
        <ele>491.2</ele>
        <time>2024-10-31T12:54:50Z</time>
      </trkpt>
      <trkpt lat="48.11891" lon="6.60882">
        <ele>491.8</ele>
        <time>2024-10-31T12:54:59Z</time>
      </trkpt>
      <trkpt lat="48.1189" lon="6.60897">
        <ele>492.4</ele>
        <time>2024-10-31T12:55:08Z</time>
      </trkpt>
      <trkpt lat="48.11889" lon="6.60911">
        <ele>492.8</ele>
        <time>2024-10-31T12:55:17Z</time>
      </trkpt>
      <trkpt lat="48.11886" lon="6.60924">
        <ele>493.2</ele>
        <time>2024-10-31T12:55:25Z</time>
      </trkpt>
      <trkpt lat="48.11885" lon="6.60938">
        <ele>493.8</ele>
        <time>2024-10-31T12:55:34Z</time>
      </trkpt>
      <trkpt lat="48.11881" lon="6.6095">
        <ele>494.5</ele>
        <time>2024-10-31T12:55:41Z</time>
      </trkpt>
      <trkpt lat="48.11873" lon="6.60958">
        <ele>495.2</ele>
        <time>2024-10-31T12:55:53Z</time>
      </trkpt>
      <trkpt lat="48.11864" lon="6.60964">
        <ele>495.9</ele>
        <time>2024-10-31T12:56:06Z</time>
      </trkpt>
      <trkpt lat="48.11855" lon="6.60971">
        <ele>496.4</ele>
        <time>2024-10-31T12:56:14Z</time>
      </trkpt>
      <trkpt lat="48.11848" lon="6.6098">
        <ele>496.8</ele>
        <time>2024-10-31T12:56:22Z</time>
      </trkpt>
      <trkpt lat="48.1184" lon="6.60988">
        <ele>497.1</ele>
        <time>2024-10-31T12:56:32Z</time>
      </trkpt>
      <trkpt lat="48.11832" lon="6.60995">
        <ele>497.5</ele>
        <time>2024-10-31T12:56:41Z</time>
      </trkpt>
      <trkpt lat="48.11823" lon="6.61002">
        <ele>498.1</ele>
        <time>2024-10-31T12:56:50Z</time>
      </trkpt>
      <trkpt lat="48.11814" lon="6.61009">
        <ele>498.8</ele>
        <time>2024-10-31T12:56:58Z</time>
      </trkpt>
      <trkpt lat="48.11806" lon="6.61018">
        <ele>499.5</ele>
        <time>2024-10-31T12:57:08Z</time>
      </trkpt>
      <trkpt lat="48.11799" lon="6.61025">
        <ele>500.2</ele>
        <time>2024-10-31T12:57:17Z</time>
      </trkpt>
      <trkpt lat="48.11791" lon="6.61034">
        <ele>500.8</ele>
        <time>2024-10-31T12:57:26Z</time>
      </trkpt>
      <trkpt lat="48.11782" lon="6.6104">
        <ele>501.5</ele>
        <time>2024-10-31T12:57:35Z</time>
      </trkpt>
      <trkpt lat="48.11773" lon="6.61048">
        <ele>502</ele>
        <time>2024-10-31T12:57:44Z</time>
      </trkpt>
      <trkpt lat="48.11766" lon="6.61059">
        <ele>502.3</ele>
        <time>2024-10-31T12:57:52Z</time>
      </trkpt>
      <trkpt lat="48.11758" lon="6.61069">
        <ele>502.6</ele>
        <time>2024-10-31T12:57:59Z</time>
      </trkpt>
      <trkpt lat="48.11752" lon="6.6108">
        <ele>502.8</ele>
        <time>2024-10-31T12:58:07Z</time>
      </trkpt>
      <trkpt lat="48.11746" lon="6.61091">
        <ele>503.1</ele>
        <time>2024-10-31T12:58:16Z</time>
      </trkpt>
      <trkpt lat="48.11741" lon="6.61102">
        <ele>503.4</ele>
        <time>2024-10-31T12:58:27Z</time>
      </trkpt>
      <trkpt lat="48.11741" lon="6.61103">
        <ele>503.4</ele>
        <time>2024-10-31T12:58:30Z</time>
      </trkpt>
      <trkpt lat="48.11741" lon="6.61103">
        <ele>503.4</ele>
        <time>2024-10-31T12:58:31Z</time>
      </trkpt>
      <trkpt lat="48.11741" lon="6.61103">
        <ele>503.5</ele>
        <time>2024-10-31T12:58:37Z</time>
      </trkpt>
      <trkpt lat="48.1174" lon="6.61104">
        <ele>503.5</ele>
        <time>2024-10-31T12:58:38Z</time>
      </trkpt>
      <trkpt lat="48.11734" lon="6.61114">
        <ele>503.8</ele>
        <time>2024-10-31T12:58:48Z</time>
      </trkpt>
      <trkpt lat="48.11728" lon="6.61124">
        <ele>504</ele>
        <time>2024-10-31T12:58:57Z</time>
      </trkpt>
      <trkpt lat="48.11722" lon="6.61135">
        <ele>504.2</ele>
        <time>2024-10-31T12:59:08Z</time>
      </trkpt>
      <trkpt lat="48.11717" lon="6.61147">
        <ele>504.4</ele>
        <time>2024-10-31T12:59:17Z</time>
      </trkpt>
      <trkpt lat="48.1171" lon="6.61158">
        <ele>504.6</ele>
        <time>2024-10-31T12:59:26Z</time>
      </trkpt>
      <trkpt lat="48.11705" lon="6.61168">
        <ele>504.9</ele>
        <time>2024-10-31T12:59:34Z</time>
      </trkpt>
      <trkpt lat="48.11699" lon="6.6118">
        <ele>505.2</ele>
        <time>2024-10-31T12:59:43Z</time>
      </trkpt>
      <trkpt lat="48.11693" lon="6.61192">
        <ele>505.7</ele>
        <time>2024-10-31T12:59:52Z</time>
      </trkpt>
      <trkpt lat="48.11687" lon="6.61203">
        <ele>506.1</ele>
        <time>2024-10-31T13:00:01Z</time>
      </trkpt>
      <trkpt lat="48.11681" lon="6.61214">
        <ele>506.5</ele>
        <time>2024-10-31T13:00:10Z</time>
      </trkpt>
      <trkpt lat="48.11674" lon="6.61225">
        <ele>506.7</ele>
        <time>2024-10-31T13:00:17Z</time>
      </trkpt>
      <trkpt lat="48.1167" lon="6.61238">
        <ele>507</ele>
        <time>2024-10-31T13:00:26Z</time>
      </trkpt>
      <trkpt lat="48.11668" lon="6.61246">
        <ele>507.2</ele>
        <time>2024-10-31T13:00:38Z</time>
      </trkpt>
      <trkpt lat="48.11668" lon="6.61246">
        <ele>507.2</ele>
        <time>2024-10-31T13:00:39Z</time>
      </trkpt>
      <trkpt lat="48.11667" lon="6.61247">
        <ele>507.2</ele>
        <time>2024-10-31T13:00:54Z</time>
      </trkpt>
      <trkpt lat="48.11667" lon="6.61248">
        <ele>507.3</ele>
        <time>2024-10-31T13:00:55Z</time>
      </trkpt>
      <trkpt lat="48.11667" lon="6.6125">
        <ele>507.3</ele>
        <time>2024-10-31T13:00:56Z</time>
      </trkpt>
      <trkpt lat="48.11665" lon="6.61257">
        <ele>507.5</ele>
        <time>2024-10-31T13:01:05Z</time>
      </trkpt>
      <trkpt lat="48.11665" lon="6.61257">
        <ele>507.5</ele>
        <time>2024-10-31T13:01:06Z</time>
      </trkpt>
      <trkpt lat="48.11664" lon="6.61259">
        <ele>507.5</ele>
        <time>2024-10-31T13:01:24Z</time>
      </trkpt>
      <trkpt lat="48.11664" lon="6.6126">
        <ele>507.6</ele>
        <time>2024-10-31T13:01:25Z</time>
      </trkpt>
      <trkpt lat="48.11664" lon="6.61261">
        <ele>507.6</ele>
        <time>2024-10-31T13:01:26Z</time>
      </trkpt>
      <trkpt lat="48.11663" lon="6.61263">
        <ele>507.6</ele>
        <time>2024-10-31T13:01:33Z</time>
      </trkpt>
      <trkpt lat="48.11663" lon="6.61263">
        <ele>507.6</ele>
        <time>2024-10-31T13:01:34Z</time>
      </trkpt>
      <trkpt lat="48.11662" lon="6.61263">
        <ele>507.7</ele>
        <time>2024-10-31T13:01:43Z</time>
      </trkpt>
      <trkpt lat="48.11662" lon="6.61264">
        <ele>507.7</ele>
        <time>2024-10-31T13:01:44Z</time>
      </trkpt>
      <trkpt lat="48.11663" lon="6.61265">
        <ele>507.7</ele>
        <time>2024-10-31T13:01:48Z</time>
      </trkpt>
      <trkpt lat="48.11663" lon="6.61265">
        <ele>507.7</ele>
        <time>2024-10-31T13:01:49Z</time>
      </trkpt>
      <trkpt lat="48.11663" lon="6.61266">
        <ele>507.7</ele>
        <time>2024-10-31T13:03:12Z</time>
      </trkpt>
      <trkpt lat="48.11662" lon="6.61267">
        <ele>507.8</ele>
        <time>2024-10-31T13:03:13Z</time>
      </trkpt>
      <trkpt lat="48.11662" lon="6.61267">
        <ele>507.8</ele>
        <time>2024-10-31T13:03:14Z</time>
      </trkpt>
      <trkpt lat="48.11658" lon="6.61279">
        <ele>508.2</ele>
        <time>2024-10-31T13:03:26Z</time>
      </trkpt>
      <trkpt lat="48.11653" lon="6.61292">
        <ele>508.7</ele>
        <time>2024-10-31T13:03:36Z</time>
      </trkpt>
      <trkpt lat="48.11651" lon="6.61301">
        <ele>509.2</ele>
        <time>2024-10-31T13:03:47Z</time>
      </trkpt>
      <trkpt lat="48.11651" lon="6.61301">
        <ele>509.2</ele>
        <time>2024-10-31T13:03:48Z</time>
      </trkpt>
      <trkpt lat="48.1165" lon="6.61306">
        <ele>509.5</ele>
        <time>2024-10-31T13:06:05Z</time>
      </trkpt>
      <trkpt lat="48.1165" lon="6.61307">
        <ele>509.5</ele>
        <time>2024-10-31T13:06:06Z</time>
      </trkpt>
      <trkpt lat="48.1165" lon="6.61308">
        <ele>509.6</ele>
        <time>2024-10-31T13:06:10Z</time>
      </trkpt>
      <trkpt lat="48.1165" lon="6.61308">
        <ele>509.6</ele>
        <time>2024-10-31T13:06:11Z</time>
      </trkpt>
      <trkpt lat="48.1165" lon="6.61308">
        <ele>509.6</ele>
        <time>2024-10-31T13:06:12Z</time>
      </trkpt>
      <trkpt lat="48.1165" lon="6.61308">
        <ele>509.6</ele>
        <time>2024-10-31T13:08:12Z</time>
      </trkpt>
      <trkpt lat="48.1165" lon="6.61309">
        <ele>509.7</ele>
        <time>2024-10-31T13:08:13Z</time>
      </trkpt>
      <trkpt lat="48.11648" lon="6.61322">
        <ele>510.4</ele>
        <time>2024-10-31T13:08:25Z</time>
      </trkpt>
      <trkpt lat="48.11644" lon="6.61335">
        <ele>511.1</ele>
        <time>2024-10-31T13:08:36Z</time>
      </trkpt>
      <trkpt lat="48.11641" lon="6.61343">
        <ele>511.6</ele>
        <time>2024-10-31T13:08:48Z</time>
      </trkpt>
      <trkpt lat="48.11641" lon="6.61343">
        <ele>511.6</ele>
        <time>2024-10-31T13:08:49Z</time>
      </trkpt>
      <trkpt lat="48.1164" lon="6.61345">
        <ele>511.7</ele>
        <time>2024-10-31T13:10:20Z</time>
      </trkpt>
      <trkpt lat="48.1164" lon="6.61346">
        <ele>511.7</ele>
        <time>2024-10-31T13:10:21Z</time>
      </trkpt>
      <trkpt lat="48.1164" lon="6.61346">
        <ele>511.7</ele>
        <time>2024-10-31T13:10:24Z</time>
      </trkpt>
      <trkpt lat="48.1164" lon="6.61346">
        <ele>511.7</ele>
        <time>2024-10-31T13:10:25Z</time>
      </trkpt>
      <trkpt lat="48.1164" lon="6.61346">
        <ele>511.7</ele>
        <time>2024-10-31T13:10:26Z</time>
      </trkpt>
      <trkpt lat="48.1164" lon="6.61346">
        <ele>511.7</ele>
        <time>2024-10-31T13:10:57Z</time>
      </trkpt>
      <trkpt lat="48.1164" lon="6.61346">
        <ele>511.7</ele>
        <time>2024-10-31T13:10:58Z</time>
      </trkpt>
      <trkpt lat="48.1164" lon="6.61346">
        <ele>511.7</ele>
        <time>2024-10-31T13:10:59Z</time>
      </trkpt>
      <trkpt lat="48.1164" lon="6.61346">
        <ele>511.7</ele>
        <time>2024-10-31T13:11:00Z</time>
      </trkpt>
      <trkpt lat="48.1164" lon="6.61346">
        <ele>511.7</ele>
        <time>2024-10-31T13:11:01Z</time>
      </trkpt>
      <trkpt lat="48.11639" lon="6.61347">
        <ele>511.8</ele>
        <time>2024-10-31T13:11:08Z</time>
      </trkpt>
      <trkpt lat="48.11639" lon="6.61348">
        <ele>511.9</ele>
        <time>2024-10-31T13:11:09Z</time>
      </trkpt>
      <trkpt lat="48.11635" lon="6.61361">
        <ele>512.5</ele>
        <time>2024-10-31T13:11:18Z</time>
      </trkpt>
      <trkpt lat="48.11632" lon="6.61373">
        <ele>513.2</ele>
        <time>2024-10-31T13:11:25Z</time>
      </trkpt>
      <trkpt lat="48.11627" lon="6.61386">
        <ele>513.9</ele>
        <time>2024-10-31T13:11:33Z</time>
      </trkpt>
      <trkpt lat="48.11629" lon="6.61384">
        <ele>514.1</ele>
        <time>2024-10-31T13:11:43Z</time>
      </trkpt>
      <trkpt lat="48.11629" lon="6.61384">
        <ele>514.1</ele>
        <time>2024-10-31T13:11:44Z</time>
      </trkpt>
      <trkpt lat="48.11628" lon="6.61386">
        <ele>514.2</ele>
        <time>2024-10-31T13:11:53Z</time>
      </trkpt>
      <trkpt lat="48.11627" lon="6.61388">
        <ele>514.3</ele>
        <time>2024-10-31T13:11:54Z</time>
      </trkpt>
      <trkpt lat="48.11622" lon="6.61399">
        <ele>515</ele>
        <time>2024-10-31T13:12:02Z</time>
      </trkpt>
      <trkpt lat="48.11618" lon="6.61412">
        <ele>515.9</ele>
        <time>2024-10-31T13:12:10Z</time>
      </trkpt>
      <trkpt lat="48.11614" lon="6.61425">
        <ele>516.8</ele>
        <time>2024-10-31T13:12:18Z</time>
      </trkpt>
      <trkpt lat="48.11614" lon="6.61439">
        <ele>518</ele>
        <time>2024-10-31T13:12:26Z</time>
      </trkpt>
      <trkpt lat="48.11615" lon="6.61452">
        <ele>519.5</ele>
        <time>2024-10-31T13:12:34Z</time>
      </trkpt>
      <trkpt lat="48.11619" lon="6.61465">
        <ele>521.5</ele>
        <time>2024-10-31T13:12:44Z</time>
      </trkpt>
      <trkpt lat="48.11624" lon="6.61478">
        <ele>523.8</ele>
        <time>2024-10-31T13:12:56Z</time>
      </trkpt>
      <trkpt lat="48.1163" lon="6.61489">
        <ele>526.3</ele>
        <time>2024-10-31T13:13:05Z</time>
      </trkpt>
      <trkpt lat="48.11628" lon="6.61503">
        <ele>528.9</ele>
        <time>2024-10-31T13:13:18Z</time>
      </trkpt>
      <trkpt lat="48.11621" lon="6.61512">
        <ele>531.4</ele>
        <time>2024-10-31T13:13:37Z</time>
      </trkpt>
      <trkpt lat="48.11614" lon="6.61521">
        <ele>533.7</ele>
        <time>2024-10-31T13:13:53Z</time>
      </trkpt>
      <trkpt lat="48.11607" lon="6.6153">
        <ele>536.2</ele>
        <time>2024-10-31T13:14:09Z</time>
      </trkpt>
      <trkpt lat="48.11603" lon="6.61542">
        <ele>538.6</ele>
        <time>2024-10-31T13:14:20Z</time>
      </trkpt>
      <trkpt lat="48.11602" lon="6.61556">
        <ele>540.9</ele>
        <time>2024-10-31T13:14:30Z</time>
      </trkpt>
      <trkpt lat="48.11605" lon="6.61569">
        <ele>543.2</ele>
        <time>2024-10-31T13:14:50Z</time>
      </trkpt>
      <trkpt lat="48.11603" lon="6.61583">
        <ele>545.6</ele>
        <time>2024-10-31T13:15:03Z</time>
      </trkpt>
      <trkpt lat="48.11605" lon="6.61596">
        <ele>547.7</ele>
        <time>2024-10-31T13:15:15Z</time>
      </trkpt>
      <trkpt lat="48.11611" lon="6.61606">
        <ele>549.8</ele>
        <time>2024-10-31T13:15:28Z</time>
      </trkpt>
      <trkpt lat="48.11613" lon="6.6162">
        <ele>551.9</ele>
        <time>2024-10-31T13:15:44Z</time>
      </trkpt>
      <trkpt lat="48.11614" lon="6.61634">
        <ele>553.9</ele>
        <time>2024-10-31T13:15:58Z</time>
      </trkpt>
      <trkpt lat="48.11612" lon="6.61647">
        <ele>555.8</ele>
        <time>2024-10-31T13:16:08Z</time>
      </trkpt>
      <trkpt lat="48.11613" lon="6.61661">
        <ele>557.5</ele>
        <time>2024-10-31T13:16:24Z</time>
      </trkpt>
      <trkpt lat="48.11607" lon="6.61671">
        <ele>559.2</ele>
        <time>2024-10-31T13:16:33Z</time>
      </trkpt>
      <trkpt lat="48.11606" lon="6.61685">
        <ele>560.5</ele>
        <time>2024-10-31T13:16:47Z</time>
      </trkpt>
      <trkpt lat="48.11602" lon="6.61697">
        <ele>561.6</ele>
        <time>2024-10-31T13:16:56Z</time>
      </trkpt>
      <trkpt lat="48.11598" lon="6.6171">
        <ele>562.6</ele>
        <time>2024-10-31T13:17:08Z</time>
      </trkpt>
      <trkpt lat="48.11594" lon="6.61723">
        <ele>563.5</ele>
        <time>2024-10-31T13:17:18Z</time>
      </trkpt>
      <trkpt lat="48.1159" lon="6.61735">
        <ele>564.1</ele>
        <time>2024-10-31T13:17:32Z</time>
      </trkpt>
      <trkpt lat="48.11584" lon="6.61747">
        <ele>564.4</ele>
        <time>2024-10-31T13:17:40Z</time>
      </trkpt>
      <trkpt lat="48.11577" lon="6.61755">
        <ele>564.6</ele>
        <time>2024-10-31T13:17:49Z</time>
      </trkpt>
      <trkpt lat="48.11568" lon="6.61763">
        <ele>564.8</ele>
        <time>2024-10-31T13:17:58Z</time>
      </trkpt>
      <trkpt lat="48.1156" lon="6.61771">
        <ele>565.1</ele>
        <time>2024-10-31T13:18:07Z</time>
      </trkpt>
      <trkpt lat="48.11552" lon="6.61778">
        <ele>565.8</ele>
        <time>2024-10-31T13:18:17Z</time>
      </trkpt>
      <trkpt lat="48.11545" lon="6.61788">
        <ele>566.2</ele>
        <time>2024-10-31T13:18:25Z</time>
      </trkpt>
      <trkpt lat="48.11541" lon="6.61801">
        <ele>566.4</ele>
        <time>2024-10-31T13:18:33Z</time>
      </trkpt>
      <trkpt lat="48.11535" lon="6.61812">
        <ele>566.2</ele>
        <time>2024-10-31T13:18:43Z</time>
      </trkpt>
      <trkpt lat="48.11527" lon="6.6182">
        <ele>566</ele>
        <time>2024-10-31T13:18:54Z</time>
      </trkpt>
      <trkpt lat="48.1152" lon="6.61829">
        <ele>565.7</ele>
        <time>2024-10-31T13:19:04Z</time>
      </trkpt>
      <trkpt lat="48.11513" lon="6.61839">
        <ele>565.4</ele>
        <time>2024-10-31T13:19:13Z</time>
      </trkpt>
      <trkpt lat="48.11506" lon="6.6185">
        <ele>565.2</ele>
        <time>2024-10-31T13:19:22Z</time>
      </trkpt>
      <trkpt lat="48.11501" lon="6.61861">
        <ele>565</ele>
        <time>2024-10-31T13:19:30Z</time>
      </trkpt>
      <trkpt lat="48.11496" lon="6.61874">
        <ele>565.6</ele>
        <time>2024-10-31T13:19:39Z</time>
      </trkpt>
      <trkpt lat="48.11492" lon="6.61889">
        <ele>567.2</ele>
        <time>2024-10-31T13:19:45Z</time>
      </trkpt>
      <trkpt lat="48.11495" lon="6.61902">
        <ele>568.9</ele>
        <time>2024-10-31T13:19:53Z</time>
      </trkpt>
      <trkpt lat="48.11497" lon="6.61915">
        <ele>570.3</ele>
        <time>2024-10-31T13:20:07Z</time>
      </trkpt>
      <trkpt lat="48.11499" lon="6.61917">
        <ele>570.6</ele>
        <time>2024-10-31T13:20:17Z</time>
      </trkpt>
      <trkpt lat="48.11499" lon="6.61917">
        <ele>570.6</ele>
        <time>2024-10-31T13:20:18Z</time>
      </trkpt>
      <trkpt lat="48.11498" lon="6.61916">
        <ele>570.6</ele>
        <time>2024-10-31T13:20:19Z</time>
      </trkpt>
      <trkpt lat="48.11498" lon="6.61917">
        <ele>570.7</ele>
        <time>2024-10-31T13:20:20Z</time>
      </trkpt>
      <trkpt lat="48.11498" lon="6.61917">
        <ele>570.7</ele>
        <time>2024-10-31T13:20:21Z</time>
      </trkpt>
      <trkpt lat="48.11495" lon="6.6193">
        <ele>571.6</ele>
        <time>2024-10-31T13:20:31Z</time>
      </trkpt>
      <trkpt lat="48.1149" lon="6.61941">
        <ele>572.2</ele>
        <time>2024-10-31T13:20:40Z</time>
      </trkpt>
      <trkpt lat="48.11482" lon="6.6195">
        <ele>572.5</ele>
        <time>2024-10-31T13:20:50Z</time>
      </trkpt>
      <trkpt lat="48.11474" lon="6.61957">
        <ele>572.5</ele>
        <time>2024-10-31T13:21:02Z</time>
      </trkpt>
      <trkpt lat="48.11469" lon="6.61968">
        <ele>572.5</ele>
        <time>2024-10-31T13:21:11Z</time>
      </trkpt>
      <trkpt lat="48.11462" lon="6.61979">
        <ele>572.9</ele>
        <time>2024-10-31T13:21:20Z</time>
      </trkpt>
      <trkpt lat="48.11455" lon="6.61989">
        <ele>573.7</ele>
        <time>2024-10-31T13:21:29Z</time>
      </trkpt>
      <trkpt lat="48.1145" lon="6.62001">
        <ele>575.1</ele>
        <time>2024-10-31T13:21:43Z</time>
      </trkpt>
      <trkpt lat="48.11446" lon="6.62013">
        <ele>577.1</ele>
        <time>2024-10-31T13:21:56Z</time>
      </trkpt>
      <trkpt lat="48.11445" lon="6.62027">
        <ele>580.3</ele>
        <time>2024-10-31T13:22:16Z</time>
      </trkpt>
      <trkpt lat="48.11445" lon="6.62041">
        <ele>583.3</ele>
        <time>2024-10-31T13:22:29Z</time>
      </trkpt>
      <trkpt lat="48.11442" lon="6.62053">
        <ele>586</ele>
        <time>2024-10-31T13:22:44Z</time>
      </trkpt>
      <trkpt lat="48.11441" lon="6.62067">
        <ele>588.3</ele>
        <time>2024-10-31T13:22:57Z</time>
      </trkpt>
      <trkpt lat="48.11436" lon="6.62079">
        <ele>590.3</ele>
        <time>2024-10-31T13:23:09Z</time>
      </trkpt>
      <trkpt lat="48.11434" lon="6.62092">
        <ele>592.1</ele>
        <time>2024-10-31T13:23:23Z</time>
      </trkpt>
      <trkpt lat="48.11432" lon="6.62106">
        <ele>593.9</ele>
        <time>2024-10-31T13:23:37Z</time>
      </trkpt>
      <trkpt lat="48.1143" lon="6.6212">
        <ele>595.6</ele>
        <time>2024-10-31T13:23:48Z</time>
      </trkpt>
      <trkpt lat="48.11427" lon="6.62133">
        <ele>597.4</ele>
        <time>2024-10-31T13:23:59Z</time>
      </trkpt>
      <trkpt lat="48.11428" lon="6.62147">
        <ele>599.1</ele>
        <time>2024-10-31T13:24:11Z</time>
      </trkpt>
      <trkpt lat="48.11424" lon="6.6216">
        <ele>600.9</ele>
        <time>2024-10-31T13:24:21Z</time>
      </trkpt>
      <trkpt lat="48.11423" lon="6.62174">
        <ele>602.5</ele>
        <time>2024-10-31T13:24:32Z</time>
      </trkpt>
      <trkpt lat="48.1142" lon="6.62189">
        <ele>604.1</ele>
        <time>2024-10-31T13:24:44Z</time>
      </trkpt>
      <trkpt lat="48.11417" lon="6.62202">
        <ele>605.5</ele>
        <time>2024-10-31T13:24:54Z</time>
      </trkpt>
      <trkpt lat="48.11416" lon="6.62216">
        <ele>606.6</ele>
        <time>2024-10-31T13:25:03Z</time>
      </trkpt>
      <trkpt lat="48.11408" lon="6.6221">
        <ele>606.5</ele>
        <time>2024-10-31T13:25:21Z</time>
      </trkpt>
      <trkpt lat="48.11401" lon="6.622">
        <ele>606.3</ele>
        <time>2024-10-31T13:25:31Z</time>
      </trkpt>
      <trkpt lat="48.11394" lon="6.6219">
        <ele>606.1</ele>
        <time>2024-10-31T13:25:43Z</time>
      </trkpt>
      <trkpt lat="48.1139" lon="6.62178">
        <ele>605.9</ele>
        <time>2024-10-31T13:25:51Z</time>
      </trkpt>
      <trkpt lat="48.11383" lon="6.62167">
        <ele>605.8</ele>
        <time>2024-10-31T13:25:57Z</time>
      </trkpt>
      <trkpt lat="48.11375" lon="6.62159">
        <ele>605.9</ele>
        <time>2024-10-31T13:26:04Z</time>
      </trkpt>
      <trkpt lat="48.11366" lon="6.62156">
        <ele>606.2</ele>
        <time>2024-10-31T13:26:11Z</time>
      </trkpt>
      <trkpt lat="48.11357" lon="6.62153">
        <ele>606.5</ele>
        <time>2024-10-31T13:26:20Z</time>
      </trkpt>
      <trkpt lat="48.11347" lon="6.6215">
        <ele>606.9</ele>
        <time>2024-10-31T13:26:28Z</time>
      </trkpt>
      <trkpt lat="48.11339" lon="6.62142">
        <ele>607.1</ele>
        <time>2024-10-31T13:26:38Z</time>
      </trkpt>
      <trkpt lat="48.11331" lon="6.62134">
        <ele>607.4</ele>
        <time>2024-10-31T13:26:46Z</time>
      </trkpt>
      <trkpt lat="48.11322" lon="6.62127">
        <ele>607.5</ele>
        <time>2024-10-31T13:26:54Z</time>
      </trkpt>
      <trkpt lat="48.11315" lon="6.62117">
        <ele>607.7</ele>
        <time>2024-10-31T13:27:02Z</time>
      </trkpt>
      <trkpt lat="48.11311" lon="6.62105">
        <ele>607.9</ele>
        <time>2024-10-31T13:27:15Z</time>
      </trkpt>
      <trkpt lat="48.11307" lon="6.62092">
        <ele>608.2</ele>
        <time>2024-10-31T13:27:24Z</time>
      </trkpt>
      <trkpt lat="48.11298" lon="6.62093">
        <ele>608.5</ele>
        <time>2024-10-31T13:27:32Z</time>
      </trkpt>
      <trkpt lat="48.1129" lon="6.62101">
        <ele>609.2</ele>
        <time>2024-10-31T13:27:40Z</time>
      </trkpt>
      <trkpt lat="48.11282" lon="6.62109">
        <ele>610.3</ele>
        <time>2024-10-31T13:27:49Z</time>
      </trkpt>
      <trkpt lat="48.11276" lon="6.6212">
        <ele>611.7</ele>
        <time>2024-10-31T13:27:59Z</time>
      </trkpt>
      <trkpt lat="48.11273" lon="6.62133">
        <ele>612.8</ele>
        <time>2024-10-31T13:28:08Z</time>
      </trkpt>
      <trkpt lat="48.11265" lon="6.6214">
        <ele>613.5</ele>
        <time>2024-10-31T13:28:21Z</time>
      </trkpt>
      <trkpt lat="48.11256" lon="6.62138">
        <ele>613.9</ele>
        <time>2024-10-31T13:28:34Z</time>
      </trkpt>
      <trkpt lat="48.11246" lon="6.62135">
        <ele>614.4</ele>
        <time>2024-10-31T13:28:42Z</time>
      </trkpt>
      <trkpt lat="48.11236" lon="6.62132">
        <ele>614.8</ele>
        <time>2024-10-31T13:28:51Z</time>
      </trkpt>
      <trkpt lat="48.11227" lon="6.62131">
        <ele>615.1</ele>
        <time>2024-10-31T13:28:58Z</time>
      </trkpt>
      <trkpt lat="48.11217" lon="6.62132">
        <ele>615.5</ele>
        <time>2024-10-31T13:29:08Z</time>
      </trkpt>
      <trkpt lat="48.11208" lon="6.62131">
        <ele>615.8</ele>
        <time>2024-10-31T13:29:19Z</time>
      </trkpt>
      <trkpt lat="48.11198" lon="6.62135">
        <ele>616.1</ele>
        <time>2024-10-31T13:29:27Z</time>
      </trkpt>
      <trkpt lat="48.11189" lon="6.62139">
        <ele>616.4</ele>
        <time>2024-10-31T13:29:36Z</time>
      </trkpt>
      <trkpt lat="48.1118" lon="6.62143">
        <ele>616.6</ele>
        <time>2024-10-31T13:29:43Z</time>
      </trkpt>
      <trkpt lat="48.11172" lon="6.62149">
        <ele>616.8</ele>
        <time>2024-10-31T13:29:51Z</time>
      </trkpt>
      <trkpt lat="48.11164" lon="6.62157">
        <ele>617.2</ele>
        <time>2024-10-31T13:30:00Z</time>
      </trkpt>
      <trkpt lat="48.11158" lon="6.62168">
        <ele>617.6</ele>
        <time>2024-10-31T13:30:09Z</time>
      </trkpt>
      <trkpt lat="48.11154" lon="6.62182">
        <ele>618</ele>
        <time>2024-10-31T13:30:18Z</time>
      </trkpt>
      <trkpt lat="48.11151" lon="6.62195">
        <ele>618.4</ele>
        <time>2024-10-31T13:30:27Z</time>
      </trkpt>
      <trkpt lat="48.11149" lon="6.62209">
        <ele>618.8</ele>
        <time>2024-10-31T13:30:37Z</time>
      </trkpt>
      <trkpt lat="48.11146" lon="6.62222">
        <ele>619.1</ele>
        <time>2024-10-31T13:30:45Z</time>
      </trkpt>
      <trkpt lat="48.11142" lon="6.62234">
        <ele>619.4</ele>
        <time>2024-10-31T13:30:53Z</time>
      </trkpt>
      <trkpt lat="48.1114" lon="6.62249">
        <ele>619.8</ele>
        <time>2024-10-31T13:31:02Z</time>
      </trkpt>
      <trkpt lat="48.11136" lon="6.62262">
        <ele>620</ele>
        <time>2024-10-31T13:31:14Z</time>
      </trkpt>
      <trkpt lat="48.11147" lon="6.62262">
        <ele>619.8</ele>
        <time>2024-10-31T13:31:28Z</time>
      </trkpt>
      <trkpt lat="48.11157" lon="6.62261">
        <ele>619.6</ele>
        <time>2024-10-31T13:31:37Z</time>
      </trkpt>
      <trkpt lat="48.11166" lon="6.62258">
        <ele>619.4</ele>
        <time>2024-10-31T13:31:44Z</time>
      </trkpt>
      <trkpt lat="48.11175" lon="6.62252">
        <ele>619.2</ele>
        <time>2024-10-31T13:31:50Z</time>
      </trkpt>
      <trkpt lat="48.11185" lon="6.62252">
        <ele>619.1</ele>
        <time>2024-10-31T13:32:02Z</time>
      </trkpt>
      <trkpt lat="48.11194" lon="6.62255">
        <ele>619.1</ele>
        <time>2024-10-31T13:32:12Z</time>
      </trkpt>
      <trkpt lat="48.11202" lon="6.62263">
        <ele>619.1</ele>
        <time>2024-10-31T13:32:22Z</time>
      </trkpt>
      <trkpt lat="48.11211" lon="6.62268">
        <ele>619.1</ele>
        <time>2024-10-31T13:32:31Z</time>
      </trkpt>
      <trkpt lat="48.11219" lon="6.62275">
        <ele>619.2</ele>
        <time>2024-10-31T13:32:41Z</time>
      </trkpt>
      <trkpt lat="48.11227" lon="6.62281">
        <ele>619.2</ele>
        <time>2024-10-31T13:32:49Z</time>
      </trkpt>
      <trkpt lat="48.11236" lon="6.62285">
        <ele>619.3</ele>
        <time>2024-10-31T13:33:00Z</time>
      </trkpt>
      <trkpt lat="48.11245" lon="6.62291">
        <ele>619.2</ele>
        <time>2024-10-31T13:33:09Z</time>
      </trkpt>
      <trkpt lat="48.11254" lon="6.62294">
        <ele>619.2</ele>
        <time>2024-10-31T13:33:18Z</time>
      </trkpt>
      <trkpt lat="48.11263" lon="6.62296">
        <ele>619.2</ele>
        <time>2024-10-31T13:33:29Z</time>
      </trkpt>
      <trkpt lat="48.11266" lon="6.62296">
        <ele>619.2</ele>
        <time>2024-10-31T13:33:40Z</time>
      </trkpt>
      <trkpt lat="48.11266" lon="6.62296">
        <ele>619.2</ele>
        <time>2024-10-31T13:33:41Z</time>
      </trkpt>
      <trkpt lat="48.11266" lon="6.62297">
        <ele>619.2</ele>
        <time>2024-10-31T13:34:44Z</time>
      </trkpt>
      <trkpt lat="48.11266" lon="6.62297">
        <ele>619.2</ele>
        <time>2024-10-31T13:34:45Z</time>
      </trkpt>
      <trkpt lat="48.11266" lon="6.62297">
        <ele>619.2</ele>
        <time>2024-10-31T13:34:46Z</time>
      </trkpt>
      <trkpt lat="48.11266" lon="6.62297">
        <ele>619.2</ele>
        <time>2024-10-31T13:34:47Z</time>
      </trkpt>
      <trkpt lat="48.11266" lon="6.62297">
        <ele>619.2</ele>
        <time>2024-10-31T13:34:48Z</time>
      </trkpt>
      <trkpt lat="48.11263" lon="6.62294">
        <ele>619.2</ele>
        <time>2024-10-31T13:37:48Z</time>
      </trkpt>
      <trkpt lat="48.11262" lon="6.62295">
        <ele>619.2</ele>
        <time>2024-10-31T13:37:49Z</time>
      </trkpt>
      <trkpt lat="48.11253" lon="6.62289">
        <ele>619.2</ele>
        <time>2024-10-31T13:38:02Z</time>
      </trkpt>
      <trkpt lat="48.11246" lon="6.62278">
        <ele>619.2</ele>
        <time>2024-10-31T13:38:11Z</time>
      </trkpt>
      <trkpt lat="48.11239" lon="6.6227">
        <ele>619.3</ele>
        <time>2024-10-31T13:38:20Z</time>
      </trkpt>
      <trkpt lat="48.1123" lon="6.62263">
        <ele>619.2</ele>
        <time>2024-10-31T13:38:28Z</time>
      </trkpt>
      <trkpt lat="48.11221" lon="6.62257">
        <ele>619.2</ele>
        <time>2024-10-31T13:38:36Z</time>
      </trkpt>
      <trkpt lat="48.11211" lon="6.62253">
        <ele>619.1</ele>
        <time>2024-10-31T13:38:49Z</time>
      </trkpt>
      <trkpt lat="48.11202" lon="6.6225">
        <ele>619.1</ele>
        <time>2024-10-31T13:38:56Z</time>
      </trkpt>
      <trkpt lat="48.11193" lon="6.62245">
        <ele>619.1</ele>
        <time>2024-10-31T13:39:04Z</time>
      </trkpt>
      <trkpt lat="48.11184" lon="6.62242">
        <ele>619.1</ele>
        <time>2024-10-31T13:39:14Z</time>
      </trkpt>
      <trkpt lat="48.11174" lon="6.62239">
        <ele>619.2</ele>
        <time>2024-10-31T13:39:23Z</time>
      </trkpt>
      <trkpt lat="48.11165" lon="6.62241">
        <ele>619.4</ele>
        <time>2024-10-31T13:39:32Z</time>
      </trkpt>
      <trkpt lat="48.11155" lon="6.62245">
        <ele>619.6</ele>
        <time>2024-10-31T13:39:41Z</time>
      </trkpt>
      <trkpt lat="48.11148" lon="6.62255">
        <ele>619.8</ele>
        <time>2024-10-31T13:39:49Z</time>
      </trkpt>
      <trkpt lat="48.11139" lon="6.62259">
        <ele>620</ele>
        <time>2024-10-31T13:39:57Z</time>
      </trkpt>
      <trkpt lat="48.11131" lon="6.62266">
        <ele>620.3</ele>
        <time>2024-10-31T13:40:06Z</time>
      </trkpt>
      <trkpt lat="48.11121" lon="6.62272">
        <ele>620.5</ele>
        <time>2024-10-31T13:40:15Z</time>
      </trkpt>
      <trkpt lat="48.11112" lon="6.62275">
        <ele>620.7</ele>
        <time>2024-10-31T13:40:25Z</time>
      </trkpt>
      <trkpt lat="48.11109" lon="6.62269">
        <ele>620.8</ele>
        <time>2024-10-31T13:40:35Z</time>
      </trkpt>
      <trkpt lat="48.11109" lon="6.62269">
        <ele>620.8</ele>
        <time>2024-10-31T13:40:36Z</time>
      </trkpt>
      <trkpt lat="48.11109" lon="6.62269">
        <ele>620.8</ele>
        <time>2024-10-31T13:40:37Z</time>
      </trkpt>
      <trkpt lat="48.11109" lon="6.62269">
        <ele>620.8</ele>
        <time>2024-10-31T13:40:38Z</time>
      </trkpt>
      <trkpt lat="48.11108" lon="6.6227">
        <ele>620.8</ele>
        <time>2024-10-31T13:40:39Z</time>
      </trkpt>
      <trkpt lat="48.11101" lon="6.62278">
        <ele>621.2</ele>
        <time>2024-10-31T13:40:52Z</time>
      </trkpt>
      <trkpt lat="48.11096" lon="6.62291">
        <ele>621.6</ele>
        <time>2024-10-31T13:41:02Z</time>
      </trkpt>
      <trkpt lat="48.11094" lon="6.62306">
        <ele>622</ele>
        <time>2024-10-31T13:41:13Z</time>
      </trkpt>
      <trkpt lat="48.11095" lon="6.62321">
        <ele>622.4</ele>
        <time>2024-10-31T13:41:23Z</time>
      </trkpt>
      <trkpt lat="48.11097" lon="6.62335">
        <ele>622.8</ele>
        <time>2024-10-31T13:41:31Z</time>
      </trkpt>
      <trkpt lat="48.11097" lon="6.62348">
        <ele>623.3</ele>
        <time>2024-10-31T13:41:40Z</time>
      </trkpt>
      <trkpt lat="48.11095" lon="6.62362">
        <ele>623.8</ele>
        <time>2024-10-31T13:41:48Z</time>
      </trkpt>
      <trkpt lat="48.11092" lon="6.62376">
        <ele>624.3</ele>
        <time>2024-10-31T13:41:58Z</time>
      </trkpt>
      <trkpt lat="48.11091" lon="6.6239">
        <ele>625</ele>
        <time>2024-10-31T13:42:07Z</time>
      </trkpt>
      <trkpt lat="48.11089" lon="6.62404">
        <ele>625.6</ele>
        <time>2024-10-31T13:42:16Z</time>
      </trkpt>
      <trkpt lat="48.11087" lon="6.62418">
        <ele>626.3</ele>
        <time>2024-10-31T13:42:24Z</time>
      </trkpt>
      <trkpt lat="48.11083" lon="6.62431">
        <ele>627</ele>
        <time>2024-10-31T13:42:31Z</time>
      </trkpt>
      <trkpt lat="48.11077" lon="6.62442">
        <ele>627.6</ele>
        <time>2024-10-31T13:42:38Z</time>
      </trkpt>
      <trkpt lat="48.11072" lon="6.62455">
        <ele>628.3</ele>
        <time>2024-10-31T13:42:48Z</time>
      </trkpt>
      <trkpt lat="48.11069" lon="6.62468">
        <ele>629</ele>
        <time>2024-10-31T13:42:59Z</time>
      </trkpt>
      <trkpt lat="48.11064" lon="6.62481">
        <ele>629.8</ele>
        <time>2024-10-31T13:43:08Z</time>
      </trkpt>
      <trkpt lat="48.1106" lon="6.62494">
        <ele>630.9</ele>
        <time>2024-10-31T13:43:17Z</time>
      </trkpt>
      <trkpt lat="48.11053" lon="6.62505">
        <ele>631.9</ele>
        <time>2024-10-31T13:43:27Z</time>
      </trkpt>
      <trkpt lat="48.11047" lon="6.62515">
        <ele>632.9</ele>
        <time>2024-10-31T13:43:36Z</time>
      </trkpt>
      <trkpt lat="48.11041" lon="6.62526">
        <ele>633.8</ele>
        <time>2024-10-31T13:43:46Z</time>
      </trkpt>
      <trkpt lat="48.11037" lon="6.62539">
        <ele>634.5</ele>
        <time>2024-10-31T13:43:54Z</time>
      </trkpt>
      <trkpt lat="48.11032" lon="6.62552">
        <ele>635.2</ele>
        <time>2024-10-31T13:44:01Z</time>
      </trkpt>
      <trkpt lat="48.11029" lon="6.62566">
        <ele>636</ele>
        <time>2024-10-31T13:44:09Z</time>
      </trkpt>
      <trkpt lat="48.1103" lon="6.62579">
        <ele>636.7</ele>
        <time>2024-10-31T13:44:19Z</time>
      </trkpt>
      <trkpt lat="48.11028" lon="6.62594">
        <ele>637.7</ele>
        <time>2024-10-31T13:44:27Z</time>
      </trkpt>
      <trkpt lat="48.11028" lon="6.62608">
        <ele>638.7</ele>
        <time>2024-10-31T13:44:37Z</time>
      </trkpt>
      <trkpt lat="48.11029" lon="6.62622">
        <ele>639.9</ele>
        <time>2024-10-31T13:44:45Z</time>
      </trkpt>
      <trkpt lat="48.11026" lon="6.62636">
        <ele>641.1</ele>
        <time>2024-10-31T13:44:54Z</time>
      </trkpt>
      <trkpt lat="48.11023" lon="6.62649">
        <ele>642.3</ele>
        <time>2024-10-31T13:45:03Z</time>
      </trkpt>
      <trkpt lat="48.11021" lon="6.62663">
        <ele>643.5</ele>
        <time>2024-10-31T13:45:13Z</time>
      </trkpt>
      <trkpt lat="48.1102" lon="6.62677">
        <ele>644.6</ele>
        <time>2024-10-31T13:45:22Z</time>
      </trkpt>
      <trkpt lat="48.1102" lon="6.62691">
        <ele>645.6</ele>
        <time>2024-10-31T13:45:30Z</time>
      </trkpt>
      <trkpt lat="48.11018" lon="6.62705">
        <ele>646.5</ele>
        <time>2024-10-31T13:45:40Z</time>
      </trkpt>
      <trkpt lat="48.11013" lon="6.62716">
        <ele>647.3</ele>
        <time>2024-10-31T13:45:48Z</time>
      </trkpt>
      <trkpt lat="48.11008" lon="6.62728">
        <ele>648.2</ele>
        <time>2024-10-31T13:45:56Z</time>
      </trkpt>
      <trkpt lat="48.11002" lon="6.62739">
        <ele>649.2</ele>
        <time>2024-10-31T13:46:05Z</time>
      </trkpt>
      <trkpt lat="48.10998" lon="6.62753">
        <ele>650.2</ele>
        <time>2024-10-31T13:46:14Z</time>
      </trkpt>
      <trkpt lat="48.10994" lon="6.62765">
        <ele>651.3</ele>
        <time>2024-10-31T13:46:23Z</time>
      </trkpt>
      <trkpt lat="48.10988" lon="6.62775">
        <ele>652.4</ele>
        <time>2024-10-31T13:46:32Z</time>
      </trkpt>
      <trkpt lat="48.10983" lon="6.62789">
        <ele>653.7</ele>
        <time>2024-10-31T13:46:41Z</time>
      </trkpt>
      <trkpt lat="48.10981" lon="6.62802">
        <ele>655</ele>
        <time>2024-10-31T13:46:50Z</time>
      </trkpt>
      <trkpt lat="48.10977" lon="6.62815">
        <ele>656.4</ele>
        <time>2024-10-31T13:47:00Z</time>
      </trkpt>
      <trkpt lat="48.10976" lon="6.6283">
        <ele>657.8</ele>
        <time>2024-10-31T13:47:09Z</time>
      </trkpt>
      <trkpt lat="48.10977" lon="6.62843">
        <ele>659</ele>
        <time>2024-10-31T13:47:17Z</time>
      </trkpt>
      <trkpt lat="48.10977" lon="6.62857">
        <ele>659.9</ele>
        <time>2024-10-31T13:47:28Z</time>
      </trkpt>
      <trkpt lat="48.10975" lon="6.62872">
        <ele>660.7</ele>
        <time>2024-10-31T13:47:36Z</time>
      </trkpt>
      <trkpt lat="48.10973" lon="6.62885">
        <ele>661.2</ele>
        <time>2024-10-31T13:47:44Z</time>
      </trkpt>
      <trkpt lat="48.10969" lon="6.62898">
        <ele>661.7</ele>
        <time>2024-10-31T13:47:54Z</time>
      </trkpt>
      <trkpt lat="48.10964" lon="6.6291">
        <ele>662.1</ele>
        <time>2024-10-31T13:48:01Z</time>
      </trkpt>
      <trkpt lat="48.1096" lon="6.62923">
        <ele>662.4</ele>
        <time>2024-10-31T13:48:09Z</time>
      </trkpt>
      <trkpt lat="48.10954" lon="6.62934">
        <ele>662.7</ele>
        <time>2024-10-31T13:48:19Z</time>
      </trkpt>
      <trkpt lat="48.10948" lon="6.62944">
        <ele>663</ele>
        <time>2024-10-31T13:48:28Z</time>
      </trkpt>
      <trkpt lat="48.10941" lon="6.62955">
        <ele>663.4</ele>
        <time>2024-10-31T13:48:37Z</time>
      </trkpt>
      <trkpt lat="48.10937" lon="6.62968">
        <ele>663.8</ele>
        <time>2024-10-31T13:48:46Z</time>
      </trkpt>
      <trkpt lat="48.10932" lon="6.62979">
        <ele>664.1</ele>
        <time>2024-10-31T13:48:54Z</time>
      </trkpt>
      <trkpt lat="48.10928" lon="6.62992">
        <ele>664.5</ele>
        <time>2024-10-31T13:49:01Z</time>
      </trkpt>
      <trkpt lat="48.10923" lon="6.63005">
        <ele>664.9</ele>
        <time>2024-10-31T13:49:08Z</time>
      </trkpt>
      <trkpt lat="48.10921" lon="6.63016">
        <ele>665.3</ele>
        <time>2024-10-31T13:49:19Z</time>
      </trkpt>
      <trkpt lat="48.10921" lon="6.63016">
        <ele>665.3</ele>
        <time>2024-10-31T13:49:20Z</time>
      </trkpt>
      <trkpt lat="48.10921" lon="6.63016">
        <ele>665.3</ele>
        <time>2024-10-31T13:49:21Z</time>
      </trkpt>
      <trkpt lat="48.1092" lon="6.63018">
        <ele>665.4</ele>
        <time>2024-10-31T13:49:35Z</time>
      </trkpt>
      <trkpt lat="48.1092" lon="6.63019">
        <ele>665.4</ele>
        <time>2024-10-31T13:49:36Z</time>
      </trkpt>
      <trkpt lat="48.10921" lon="6.63034">
        <ele>665.9</ele>
        <time>2024-10-31T13:49:44Z</time>
      </trkpt>
      <trkpt lat="48.10917" lon="6.63047">
        <ele>666.4</ele>
        <time>2024-10-31T13:49:52Z</time>
      </trkpt>
      <trkpt lat="48.10917" lon="6.63062">
        <ele>666.9</ele>
        <time>2024-10-31T13:50:01Z</time>
      </trkpt>
      <trkpt lat="48.10917" lon="6.63076">
        <ele>667.3</ele>
        <time>2024-10-31T13:50:09Z</time>
      </trkpt>
      <trkpt lat="48.10919" lon="6.6309">
        <ele>667.7</ele>
        <time>2024-10-31T13:50:18Z</time>
      </trkpt>
      <trkpt lat="48.10918" lon="6.63104">
        <ele>668.2</ele>
        <time>2024-10-31T13:50:26Z</time>
      </trkpt>
      <trkpt lat="48.10917" lon="6.63118">
        <ele>668.7</ele>
        <time>2024-10-31T13:50:33Z</time>
      </trkpt>
      <trkpt lat="48.10918" lon="6.63132">
        <ele>669.2</ele>
        <time>2024-10-31T13:50:42Z</time>
      </trkpt>
      <trkpt lat="48.10917" lon="6.63146">
        <ele>669.7</ele>
        <time>2024-10-31T13:50:49Z</time>
      </trkpt>
      <trkpt lat="48.10917" lon="6.6316">
        <ele>670.2</ele>
        <time>2024-10-31T13:50:57Z</time>
      </trkpt>
      <trkpt lat="48.10923" lon="6.63173">
        <ele>670.7</ele>
        <time>2024-10-31T13:51:05Z</time>
      </trkpt>
      <trkpt lat="48.10928" lon="6.63185">
        <ele>671.2</ele>
        <time>2024-10-31T13:51:12Z</time>
      </trkpt>
      <trkpt lat="48.10933" lon="6.63199">
        <ele>671.8</ele>
        <time>2024-10-31T13:51:20Z</time>
      </trkpt>
      <trkpt lat="48.10938" lon="6.63212">
        <ele>672.2</ele>
        <time>2024-10-31T13:51:29Z</time>
      </trkpt>
      <trkpt lat="48.10943" lon="6.63225">
        <ele>672.7</ele>
        <time>2024-10-31T13:51:38Z</time>
      </trkpt>
      <trkpt lat="48.10948" lon="6.63237">
        <ele>673.1</ele>
        <time>2024-10-31T13:51:46Z</time>
      </trkpt>
      <trkpt lat="48.10953" lon="6.6325">
        <ele>673.5</ele>
        <time>2024-10-31T13:51:53Z</time>
      </trkpt>
      <trkpt lat="48.1096" lon="6.63261">
        <ele>673.9</ele>
        <time>2024-10-31T13:52:00Z</time>
      </trkpt>
      <trkpt lat="48.10964" lon="6.63273">
        <ele>674.3</ele>
        <time>2024-10-31T13:52:07Z</time>
      </trkpt>
      <trkpt lat="48.10971" lon="6.63283">
        <ele>674.7</ele>
        <time>2024-10-31T13:52:15Z</time>
      </trkpt>
      <trkpt lat="48.10975" lon="6.63295">
        <ele>675.1</ele>
        <time>2024-10-31T13:52:24Z</time>
      </trkpt>
      <trkpt lat="48.1098" lon="6.63308">
        <ele>675.6</ele>
        <time>2024-10-31T13:52:32Z</time>
      </trkpt>
      <trkpt lat="48.10986" lon="6.63321">
        <ele>676</ele>
        <time>2024-10-31T13:52:41Z</time>
      </trkpt>
      <trkpt lat="48.10992" lon="6.63332">
        <ele>676.4</ele>
        <time>2024-10-31T13:52:48Z</time>
      </trkpt>
      <trkpt lat="48.10998" lon="6.63343">
        <ele>676.7</ele>
        <time>2024-10-31T13:52:57Z</time>
      </trkpt>
      <trkpt lat="48.11004" lon="6.63355">
        <ele>677</ele>
        <time>2024-10-31T13:53:06Z</time>
      </trkpt>
      <trkpt lat="48.11013" lon="6.63363">
        <ele>677.2</ele>
        <time>2024-10-31T13:53:12Z</time>
      </trkpt>
      <trkpt lat="48.11022" lon="6.6337">
        <ele>677.5</ele>
        <time>2024-10-31T13:53:20Z</time>
      </trkpt>
      <trkpt lat="48.11031" lon="6.63377">
        <ele>677.7</ele>
        <time>2024-10-31T13:53:34Z</time>
      </trkpt>
      <trkpt lat="48.11032" lon="6.63387">
        <ele>677.9</ele>
        <time>2024-10-31T13:53:47Z</time>
      </trkpt>
      <trkpt lat="48.11031" lon="6.63387">
        <ele>677.9</ele>
        <time>2024-10-31T13:53:48Z</time>
      </trkpt>
      <trkpt lat="48.11031" lon="6.63388">
        <ele>677.9</ele>
        <time>2024-10-31T13:53:49Z</time>
      </trkpt>
      <trkpt lat="48.11031" lon="6.63389">
        <ele>677.9</ele>
        <time>2024-10-31T13:53:50Z</time>
      </trkpt>
      <trkpt lat="48.11031" lon="6.6339">
        <ele>677.9</ele>
        <time>2024-10-31T13:53:51Z</time>
      </trkpt>
      <trkpt lat="48.11027" lon="6.63403">
        <ele>678.1</ele>
        <time>2024-10-31T13:54:01Z</time>
      </trkpt>
      <trkpt lat="48.11026" lon="6.63417">
        <ele>678.2</ele>
        <time>2024-10-31T13:54:10Z</time>
      </trkpt>
      <trkpt lat="48.11021" lon="6.6343">
        <ele>678.3</ele>
        <time>2024-10-31T13:54:19Z</time>
      </trkpt>
      <trkpt lat="48.11021" lon="6.63444">
        <ele>678.4</ele>
        <time>2024-10-31T13:54:28Z</time>
      </trkpt>
      <trkpt lat="48.11018" lon="6.63458">
        <ele>678.5</ele>
        <time>2024-10-31T13:54:34Z</time>
      </trkpt>
      <trkpt lat="48.11019" lon="6.63472">
        <ele>678.6</ele>
        <time>2024-10-31T13:54:41Z</time>
      </trkpt>
      <trkpt lat="48.11021" lon="6.63486">
        <ele>678.6</ele>
        <time>2024-10-31T13:54:49Z</time>
      </trkpt>
      <trkpt lat="48.11017" lon="6.63498">
        <ele>678.7</ele>
        <time>2024-10-31T13:54:56Z</time>
      </trkpt>
      <trkpt lat="48.11014" lon="6.63512">
        <ele>678.7</ele>
        <time>2024-10-31T13:55:05Z</time>
      </trkpt>
      <trkpt lat="48.11008" lon="6.63523">
        <ele>678.6</ele>
        <time>2024-10-31T13:55:15Z</time>
      </trkpt>
      <trkpt lat="48.11001" lon="6.63533">
        <ele>678.2</ele>
        <time>2024-10-31T13:55:22Z</time>
      </trkpt>
      <trkpt lat="48.10995" lon="6.63543">
        <ele>677.8</ele>
        <time>2024-10-31T13:55:34Z</time>
      </trkpt>
      <trkpt lat="48.10987" lon="6.6355">
        <ele>677.2</ele>
        <time>2024-10-31T13:55:42Z</time>
      </trkpt>
      <trkpt lat="48.10979" lon="6.63559">
        <ele>676.5</ele>
        <time>2024-10-31T13:55:50Z</time>
      </trkpt>
      <trkpt lat="48.10974" lon="6.63572">
        <ele>675.7</ele>
        <time>2024-10-31T13:55:57Z</time>
      </trkpt>
      <trkpt lat="48.10971" lon="6.63585">
        <ele>674.6</ele>
        <time>2024-10-31T13:56:06Z</time>
      </trkpt>
      <trkpt lat="48.10967" lon="6.63598">
        <ele>673.3</ele>
        <time>2024-10-31T13:56:18Z</time>
      </trkpt>
      <trkpt lat="48.10964" lon="6.63612">
        <ele>671.9</ele>
        <time>2024-10-31T13:56:28Z</time>
      </trkpt>
      <trkpt lat="48.10961" lon="6.63626">
        <ele>670.9</ele>
        <time>2024-10-31T13:56:37Z</time>
      </trkpt>
      <trkpt lat="48.10962" lon="6.63639">
        <ele>670.4</ele>
        <time>2024-10-31T13:56:45Z</time>
      </trkpt>
      <trkpt lat="48.10961" lon="6.63654">
        <ele>670</ele>
        <time>2024-10-31T13:56:55Z</time>
      </trkpt>
      <trkpt lat="48.1096" lon="6.63668">
        <ele>669.6</ele>
        <time>2024-10-31T13:57:05Z</time>
      </trkpt>
      <trkpt lat="48.10961" lon="6.63683">
        <ele>669.3</ele>
        <time>2024-10-31T13:57:14Z</time>
      </trkpt>
      <trkpt lat="48.10963" lon="6.63697">
        <ele>669.1</ele>
        <time>2024-10-31T13:57:24Z</time>
      </trkpt>
      <trkpt lat="48.10964" lon="6.63712">
        <ele>668.8</ele>
        <time>2024-10-31T13:57:34Z</time>
      </trkpt>
      <trkpt lat="48.10966" lon="6.63726">
        <ele>668.4</ele>
        <time>2024-10-31T13:57:44Z</time>
      </trkpt>
      <trkpt lat="48.10967" lon="6.6374">
        <ele>668</ele>
        <time>2024-10-31T13:57:53Z</time>
      </trkpt>
      <trkpt lat="48.10967" lon="6.63755">
        <ele>667.5</ele>
        <time>2024-10-31T13:58:03Z</time>
      </trkpt>
      <trkpt lat="48.10968" lon="6.63769">
        <ele>667.1</ele>
        <time>2024-10-31T13:58:13Z</time>
      </trkpt>
      <trkpt lat="48.10971" lon="6.63783">
        <ele>666.8</ele>
        <time>2024-10-31T13:58:23Z</time>
      </trkpt>
      <trkpt lat="48.10975" lon="6.63796">
        <ele>666.6</ele>
        <time>2024-10-31T13:58:33Z</time>
      </trkpt>
      <trkpt lat="48.10976" lon="6.63796">
        <ele>666.6</ele>
        <time>2024-10-31T13:58:37Z</time>
      </trkpt>
      <trkpt lat="48.10976" lon="6.63796">
        <ele>666.6</ele>
        <time>2024-10-31T13:58:38Z</time>
      </trkpt>
      <trkpt lat="48.10976" lon="6.63796">
        <ele>666.6</ele>
        <time>2024-10-31T13:58:39Z</time>
      </trkpt>
      <trkpt lat="48.10978" lon="6.63797">
        <ele>666.5</ele>
        <time>2024-10-31T13:59:09Z</time>
      </trkpt>
      <trkpt lat="48.10979" lon="6.63797">
        <ele>666.5</ele>
        <time>2024-10-31T13:59:10Z</time>
      </trkpt>
      <trkpt lat="48.1098" lon="6.63797">
        <ele>666.5</ele>
        <time>2024-10-31T13:59:11Z</time>
      </trkpt>
      <trkpt lat="48.1099" lon="6.63793">
        <ele>667</ele>
        <time>2024-10-31T13:59:21Z</time>
      </trkpt>
      <trkpt lat="48.10996" lon="6.63783">
        <ele>667.4</ele>
        <time>2024-10-31T13:59:29Z</time>
      </trkpt>
      <trkpt lat="48.11003" lon="6.63773">
        <ele>667.9</ele>
        <time>2024-10-31T13:59:37Z</time>
      </trkpt>
      <trkpt lat="48.11011" lon="6.63764">
        <ele>668.4</ele>
        <time>2024-10-31T13:59:46Z</time>
      </trkpt>
      <trkpt lat="48.11019" lon="6.63759">
        <ele>668.8</ele>
        <time>2024-10-31T13:59:54Z</time>
      </trkpt>
      <trkpt lat="48.11028" lon="6.63755">
        <ele>669.1</ele>
        <time>2024-10-31T14:00:03Z</time>
      </trkpt>
      <trkpt lat="48.11036" lon="6.63749">
        <ele>669.5</ele>
        <time>2024-10-31T14:00:10Z</time>
      </trkpt>
      <trkpt lat="48.11045" lon="6.63742">
        <ele>669.9</ele>
        <time>2024-10-31T14:00:19Z</time>
      </trkpt>
      <trkpt lat="48.11052" lon="6.63734">
        <ele>670.4</ele>
        <time>2024-10-31T14:00:28Z</time>
      </trkpt>
      <trkpt lat="48.11059" lon="6.63726">
        <ele>670.9</ele>
        <time>2024-10-31T14:00:36Z</time>
      </trkpt>
      <trkpt lat="48.11068" lon="6.63719">
        <ele>671.5</ele>
        <time>2024-10-31T14:00:45Z</time>
      </trkpt>
      <trkpt lat="48.11077" lon="6.63715">
        <ele>672.1</ele>
        <time>2024-10-31T14:00:53Z</time>
      </trkpt>
      <trkpt lat="48.11087" lon="6.63709">
        <ele>672.7</ele>
        <time>2024-10-31T14:01:02Z</time>
      </trkpt>
      <trkpt lat="48.11095" lon="6.63701">
        <ele>673.2</ele>
        <time>2024-10-31T14:01:11Z</time>
      </trkpt>
      <trkpt lat="48.11102" lon="6.63692">
        <ele>673.7</ele>
        <time>2024-10-31T14:01:20Z</time>
      </trkpt>
      <trkpt lat="48.11109" lon="6.63683">
        <ele>674.2</ele>
        <time>2024-10-31T14:01:28Z</time>
      </trkpt>
      <trkpt lat="48.11116" lon="6.63674">
        <ele>674.7</ele>
        <time>2024-10-31T14:01:36Z</time>
      </trkpt>
      <trkpt lat="48.11123" lon="6.63664">
        <ele>675.2</ele>
        <time>2024-10-31T14:01:44Z</time>
      </trkpt>
      <trkpt lat="48.1113" lon="6.63656">
        <ele>675.6</ele>
        <time>2024-10-31T14:01:52Z</time>
      </trkpt>
      <trkpt lat="48.11137" lon="6.63646">
        <ele>675.9</ele>
        <time>2024-10-31T14:02:00Z</time>
      </trkpt>
      <trkpt lat="48.11145" lon="6.63638">
        <ele>676</ele>
        <time>2024-10-31T14:02:08Z</time>
      </trkpt>
      <trkpt lat="48.11153" lon="6.63631">
        <ele>675.9</ele>
        <time>2024-10-31T14:02:17Z</time>
      </trkpt>
      <trkpt lat="48.11161" lon="6.63625">
        <ele>675.7</ele>
        <time>2024-10-31T14:02:26Z</time>
      </trkpt>
      <trkpt lat="48.1117" lon="6.6362">
        <ele>675.5</ele>
        <time>2024-10-31T14:02:35Z</time>
      </trkpt>
      <trkpt lat="48.11178" lon="6.63613">
        <ele>675.4</ele>
        <time>2024-10-31T14:02:44Z</time>
      </trkpt>
      <trkpt lat="48.11187" lon="6.63606">
        <ele>675.2</ele>
        <time>2024-10-31T14:02:53Z</time>
      </trkpt>
      <trkpt lat="48.11195" lon="6.636">
        <ele>675</ele>
        <time>2024-10-31T14:03:02Z</time>
      </trkpt>
      <trkpt lat="48.11204" lon="6.63593">
        <ele>674.8</ele>
        <time>2024-10-31T14:03:13Z</time>
      </trkpt>
      <trkpt lat="48.11212" lon="6.63585">
        <ele>674.7</ele>
        <time>2024-10-31T14:03:22Z</time>
      </trkpt>
      <trkpt lat="48.1122" lon="6.63576">
        <ele>674.4</ele>
        <time>2024-10-31T14:03:31Z</time>
      </trkpt>
      <trkpt lat="48.11228" lon="6.6357">
        <ele>674.2</ele>
        <time>2024-10-31T14:03:40Z</time>
      </trkpt>
      <trkpt lat="48.11234" lon="6.63582">
        <ele>674</ele>
        <time>2024-10-31T14:03:50Z</time>
      </trkpt>
      <trkpt lat="48.11239" lon="6.63595">
        <ele>673.8</ele>
        <time>2024-10-31T14:03:59Z</time>
      </trkpt>
      <trkpt lat="48.11245" lon="6.63606">
        <ele>673.6</ele>
        <time>2024-10-31T14:04:09Z</time>
      </trkpt>
      <trkpt lat="48.11251" lon="6.63618">
        <ele>673.5</ele>
        <time>2024-10-31T14:04:19Z</time>
      </trkpt>
      <trkpt lat="48.11256" lon="6.6363">
        <ele>673.3</ele>
        <time>2024-10-31T14:04:29Z</time>
      </trkpt>
      <trkpt lat="48.1126" lon="6.63642">
        <ele>673.1</ele>
        <time>2024-10-31T14:04:37Z</time>
      </trkpt>
      <trkpt lat="48.11266" lon="6.63654">
        <ele>672.9</ele>
        <time>2024-10-31T14:04:46Z</time>
      </trkpt>
      <trkpt lat="48.11272" lon="6.63664">
        <ele>672.7</ele>
        <time>2024-10-31T14:04:53Z</time>
      </trkpt>
      <trkpt lat="48.11277" lon="6.63676">
        <ele>672.4</ele>
        <time>2024-10-31T14:05:03Z</time>
      </trkpt>
      <trkpt lat="48.11278" lon="6.6369">
        <ele>672.2</ele>
        <time>2024-10-31T14:05:15Z</time>
      </trkpt>
      <trkpt lat="48.11279" lon="6.63705">
        <ele>671.9</ele>
        <time>2024-10-31T14:05:23Z</time>
      </trkpt>
      <trkpt lat="48.11281" lon="6.63719">
        <ele>671.8</ele>
        <time>2024-10-31T14:05:33Z</time>
      </trkpt>
      <trkpt lat="48.11288" lon="6.63729">
        <ele>671.6</ele>
        <time>2024-10-31T14:05:41Z</time>
      </trkpt>
      <trkpt lat="48.1129" lon="6.63743">
        <ele>671.5</ele>
        <time>2024-10-31T14:05:51Z</time>
      </trkpt>
      <trkpt lat="48.11291" lon="6.63743">
        <ele>671.4</ele>
        <time>2024-10-31T14:05:55Z</time>
      </trkpt>
      <trkpt lat="48.11291" lon="6.63743">
        <ele>671.4</ele>
        <time>2024-10-31T14:05:56Z</time>
      </trkpt>
      <trkpt lat="48.11291" lon="6.63742">
        <ele>671.4</ele>
        <time>2024-10-31T14:05:57Z</time>
      </trkpt>
      <trkpt lat="48.11291" lon="6.63742">
        <ele>671.5</ele>
        <time>2024-10-31T14:06:10Z</time>
      </trkpt>
      <trkpt lat="48.11291" lon="6.63741">
        <ele>671.5</ele>
        <time>2024-10-31T14:06:11Z</time>
      </trkpt>
      <trkpt lat="48.11291" lon="6.63739">
        <ele>671.5</ele>
        <time>2024-10-31T14:06:12Z</time>
      </trkpt>
      <trkpt lat="48.11287" lon="6.63727">
        <ele>671.5</ele>
        <time>2024-10-31T14:06:20Z</time>
      </trkpt>
      <trkpt lat="48.11282" lon="6.63715">
        <ele>671.6</ele>
        <time>2024-10-31T14:06:28Z</time>
      </trkpt>
      <trkpt lat="48.11284" lon="6.63701">
        <ele>671.7</ele>
        <time>2024-10-31T14:06:35Z</time>
      </trkpt>
      <trkpt lat="48.11282" lon="6.63687">
        <ele>671.7</ele>
        <time>2024-10-31T14:06:43Z</time>
      </trkpt>
      <trkpt lat="48.11279" lon="6.63674">
        <ele>671.8</ele>
        <time>2024-10-31T14:06:50Z</time>
      </trkpt>
      <trkpt lat="48.11275" lon="6.6366">
        <ele>671.9</ele>
        <time>2024-10-31T14:06:58Z</time>
      </trkpt>
      <trkpt lat="48.11271" lon="6.63646">
        <ele>672</ele>
        <time>2024-10-31T14:07:06Z</time>
      </trkpt>
      <trkpt lat="48.11265" lon="6.63637">
        <ele>672.1</ele>
        <time>2024-10-31T14:07:14Z</time>
      </trkpt>
      <trkpt lat="48.1126" lon="6.63624">
        <ele>672.3</ele>
        <time>2024-10-31T14:07:22Z</time>
      </trkpt>
      <trkpt lat="48.11255" lon="6.63612">
        <ele>672.4</ele>
        <time>2024-10-31T14:07:29Z</time>
      </trkpt>
      <trkpt lat="48.11251" lon="6.63599">
        <ele>672.5</ele>
        <time>2024-10-31T14:07:38Z</time>
      </trkpt>
      <trkpt lat="48.11244" lon="6.6359">
        <ele>672.6</ele>
        <time>2024-10-31T14:07:45Z</time>
      </trkpt>
      <trkpt lat="48.11237" lon="6.63579">
        <ele>672.8</ele>
        <time>2024-10-31T14:07:53Z</time>
      </trkpt>
      <trkpt lat="48.1123" lon="6.63569">
        <ele>672.9</ele>
        <time>2024-10-31T14:08:00Z</time>
      </trkpt>
      <trkpt lat="48.11229" lon="6.63564">
        <ele>672.9</ele>
        <time>2024-10-31T14:08:10Z</time>
      </trkpt>
      <trkpt lat="48.11229" lon="6.63564">
        <ele>672.9</ele>
        <time>2024-10-31T14:08:11Z</time>
      </trkpt>
      <trkpt lat="48.11229" lon="6.63564">
        <ele>672.9</ele>
        <time>2024-10-31T14:08:12Z</time>
      </trkpt>
      <trkpt lat="48.1123" lon="6.63564">
        <ele>673</ele>
        <time>2024-10-31T14:08:13Z</time>
      </trkpt>
      <trkpt lat="48.11231" lon="6.63563">
        <ele>673</ele>
        <time>2024-10-31T14:08:14Z</time>
      </trkpt>
      <trkpt lat="48.11234" lon="6.63561">
        <ele>673</ele>
        <time>2024-10-31T14:08:22Z</time>
      </trkpt>
      <trkpt lat="48.11234" lon="6.63561">
        <ele>673</ele>
        <time>2024-10-31T14:08:23Z</time>
      </trkpt>
      <trkpt lat="48.11234" lon="6.6356">
        <ele>673</ele>
        <time>2024-10-31T14:08:29Z</time>
      </trkpt>
      <trkpt lat="48.11234" lon="6.6356">
        <ele>673</ele>
        <time>2024-10-31T14:08:30Z</time>
      </trkpt>
      <trkpt lat="48.11234" lon="6.6356">
        <ele>673</ele>
        <time>2024-10-31T14:08:31Z</time>
      </trkpt>
      <trkpt lat="48.11234" lon="6.6356">
        <ele>673</ele>
        <time>2024-10-31T14:08:32Z</time>
      </trkpt>
      <trkpt lat="48.11234" lon="6.6356">
        <ele>673</ele>
        <time>2024-10-31T14:08:33Z</time>
      </trkpt>
      <trkpt lat="48.11234" lon="6.6356">
        <ele>673</ele>
        <time>2024-10-31T14:08:34Z</time>
      </trkpt>
      <trkpt lat="48.11233" lon="6.6356">
        <ele>673</ele>
        <time>2024-10-31T14:08:44Z</time>
      </trkpt>
      <trkpt lat="48.11233" lon="6.63561">
        <ele>673</ele>
        <time>2024-10-31T14:08:45Z</time>
      </trkpt>
      <trkpt lat="48.11232" lon="6.63561">
        <ele>673</ele>
        <time>2024-10-31T14:08:46Z</time>
      </trkpt>
      <trkpt lat="48.11232" lon="6.63576">
        <ele>673.1</ele>
        <time>2024-10-31T14:08:56Z</time>
      </trkpt>
      <trkpt lat="48.11238" lon="6.63588">
        <ele>673.2</ele>
        <time>2024-10-31T14:09:06Z</time>
      </trkpt>
      <trkpt lat="48.11244" lon="6.63599">
        <ele>673.3</ele>
        <time>2024-10-31T14:09:15Z</time>
      </trkpt>
      <trkpt lat="48.11251" lon="6.6361">
        <ele>673.2</ele>
        <time>2024-10-31T14:09:24Z</time>
      </trkpt>
      <trkpt lat="48.11255" lon="6.63622">
        <ele>672.9</ele>
        <time>2024-10-31T14:09:32Z</time>
      </trkpt>
      <trkpt lat="48.11259" lon="6.63635">
        <ele>672.6</ele>
        <time>2024-10-31T14:09:39Z</time>
      </trkpt>
      <trkpt lat="48.11265" lon="6.63647">
        <ele>672.3</ele>
        <time>2024-10-31T14:09:47Z</time>
      </trkpt>
      <trkpt lat="48.11272" lon="6.63657">
        <ele>672.1</ele>
        <time>2024-10-31T14:09:55Z</time>
      </trkpt>
      <trkpt lat="48.11277" lon="6.6367">
        <ele>671.8</ele>
        <time>2024-10-31T14:10:03Z</time>
      </trkpt>
      <trkpt lat="48.1128" lon="6.63684">
        <ele>671.6</ele>
        <time>2024-10-31T14:10:11Z</time>
      </trkpt>
      <trkpt lat="48.11279" lon="6.63698">
        <ele>671.5</ele>
        <time>2024-10-31T14:10:19Z</time>
      </trkpt>
      <trkpt lat="48.11279" lon="6.63711">
        <ele>671.4</ele>
        <time>2024-10-31T14:10:28Z</time>
      </trkpt>
      <trkpt lat="48.11284" lon="6.63724">
        <ele>671.2</ele>
        <time>2024-10-31T14:10:36Z</time>
      </trkpt>
      <trkpt lat="48.11291" lon="6.63734">
        <ele>671.1</ele>
        <time>2024-10-31T14:10:43Z</time>
      </trkpt>
      <trkpt lat="48.11298" lon="6.63744">
        <ele>670.9</ele>
        <time>2024-10-31T14:10:51Z</time>
      </trkpt>
      <trkpt lat="48.11307" lon="6.63748">
        <ele>670.6</ele>
        <time>2024-10-31T14:10:59Z</time>
      </trkpt>
      <trkpt lat="48.11316" lon="6.63749">
        <ele>670.4</ele>
        <time>2024-10-31T14:11:06Z</time>
      </trkpt>
      <trkpt lat="48.11327" lon="6.63749">
        <ele>670.1</ele>
        <time>2024-10-31T14:11:13Z</time>
      </trkpt>
      <trkpt lat="48.11337" lon="6.6375">
        <ele>670</ele>
        <time>2024-10-31T14:11:21Z</time>
      </trkpt>
      <trkpt lat="48.11346" lon="6.63753">
        <ele>670</ele>
        <time>2024-10-31T14:11:28Z</time>
      </trkpt>
      <trkpt lat="48.11355" lon="6.63756">
        <ele>669.9</ele>
        <time>2024-10-31T14:11:36Z</time>
      </trkpt>
      <trkpt lat="48.11365" lon="6.63756">
        <ele>669.8</ele>
        <time>2024-10-31T14:11:44Z</time>
      </trkpt>
      <trkpt lat="48.11375" lon="6.63758">
        <ele>669.7</ele>
        <time>2024-10-31T14:11:52Z</time>
      </trkpt>
      <trkpt lat="48.11385" lon="6.63764">
        <ele>669.4</ele>
        <time>2024-10-31T14:12:00Z</time>
      </trkpt>
      <trkpt lat="48.11394" lon="6.6377">
        <ele>669</ele>
        <time>2024-10-31T14:12:08Z</time>
      </trkpt>
      <trkpt lat="48.11403" lon="6.63777">
        <ele>668.5</ele>
        <time>2024-10-31T14:12:21Z</time>
      </trkpt>
      <trkpt lat="48.11412" lon="6.63785">
        <ele>668</ele>
        <time>2024-10-31T14:12:27Z</time>
      </trkpt>
      <trkpt lat="48.11419" lon="6.63793">
        <ele>667.7</ele>
        <time>2024-10-31T14:12:36Z</time>
      </trkpt>
      <trkpt lat="48.11425" lon="6.63804">
        <ele>667.4</ele>
        <time>2024-10-31T14:12:45Z</time>
      </trkpt>
      <trkpt lat="48.11434" lon="6.6381">
        <ele>667.1</ele>
        <time>2024-10-31T14:12:53Z</time>
      </trkpt>
      <trkpt lat="48.11443" lon="6.63815">
        <ele>667</ele>
        <time>2024-10-31T14:13:03Z</time>
      </trkpt>
      <trkpt lat="48.11449" lon="6.63816">
        <ele>667</ele>
        <time>2024-10-31T14:13:12Z</time>
      </trkpt>
      <trkpt lat="48.11449" lon="6.63816">
        <ele>667</ele>
        <time>2024-10-31T14:13:13Z</time>
      </trkpt>
      <trkpt lat="48.11447" lon="6.63818">
        <ele>667</ele>
        <time>2024-10-31T14:13:32Z</time>
      </trkpt>
      <trkpt lat="48.11447" lon="6.63818">
        <ele>667</ele>
        <time>2024-10-31T14:13:33Z</time>
      </trkpt>
      <trkpt lat="48.11455" lon="6.63807">
        <ele>667</ele>
        <time>2024-10-31T14:13:45Z</time>
      </trkpt>
      <trkpt lat="48.11464" lon="6.638">
        <ele>667.1</ele>
        <time>2024-10-31T14:13:53Z</time>
      </trkpt>
      <trkpt lat="48.11474" lon="6.63799">
        <ele>667.3</ele>
        <time>2024-10-31T14:14:00Z</time>
      </trkpt>
      <trkpt lat="48.1148" lon="6.63787">
        <ele>667.5</ele>
        <time>2024-10-31T14:14:12Z</time>
      </trkpt>
      <trkpt lat="48.11489" lon="6.63783">
        <ele>667.7</ele>
        <time>2024-10-31T14:14:23Z</time>
      </trkpt>
      <trkpt lat="48.11498" lon="6.6378">
        <ele>667.9</ele>
        <time>2024-10-31T14:14:33Z</time>
      </trkpt>
      <trkpt lat="48.11504" lon="6.63774">
        <ele>668.1</ele>
        <time>2024-10-31T14:14:42Z</time>
      </trkpt>
      <trkpt lat="48.11504" lon="6.63773">
        <ele>668.1</ele>
        <time>2024-10-31T14:14:43Z</time>
      </trkpt>
      <trkpt lat="48.11505" lon="6.63774">
        <ele>668.1</ele>
        <time>2024-10-31T14:14:44Z</time>
      </trkpt>
      <trkpt lat="48.11505" lon="6.63774">
        <ele>668.1</ele>
        <time>2024-10-31T14:14:45Z</time>
      </trkpt>
      <trkpt lat="48.11506" lon="6.63774">
        <ele>668.1</ele>
        <time>2024-10-31T14:14:46Z</time>
      </trkpt>
      <trkpt lat="48.11515" lon="6.63779">
        <ele>668.3</ele>
        <time>2024-10-31T14:14:55Z</time>
      </trkpt>
      <trkpt lat="48.11525" lon="6.63779">
        <ele>668.6</ele>
        <time>2024-10-31T14:15:03Z</time>
      </trkpt>
      <trkpt lat="48.11534" lon="6.63776">
        <ele>668.9</ele>
        <time>2024-10-31T14:15:11Z</time>
      </trkpt>
      <trkpt lat="48.11544" lon="6.63776">
        <ele>669.2</ele>
        <time>2024-10-31T14:15:19Z</time>
      </trkpt>
      <trkpt lat="48.11554" lon="6.63777">
        <ele>669.4</ele>
        <time>2024-10-31T14:15:28Z</time>
      </trkpt>
      <trkpt lat="48.11562" lon="6.63783">
        <ele>669.5</ele>
        <time>2024-10-31T14:15:38Z</time>
      </trkpt>
      <trkpt lat="48.11572" lon="6.63786">
        <ele>669.5</ele>
        <time>2024-10-31T14:15:46Z</time>
      </trkpt>
      <trkpt lat="48.11581" lon="6.63785">
        <ele>669.4</ele>
        <time>2024-10-31T14:15:50Z</time>
      </trkpt>
      <trkpt lat="48.1159" lon="6.6378">
        <ele>669.3</ele>
        <time>2024-10-31T14:15:56Z</time>
      </trkpt>
      <trkpt lat="48.116" lon="6.63782">
        <ele>669.1</ele>
        <time>2024-10-31T14:16:03Z</time>
      </trkpt>
      <trkpt lat="48.11608" lon="6.63791">
        <ele>668.9</ele>
        <time>2024-10-31T14:16:11Z</time>
      </trkpt>
      <trkpt lat="48.11617" lon="6.63795">
        <ele>668.9</ele>
        <time>2024-10-31T14:16:17Z</time>
      </trkpt>
      <trkpt lat="48.11625" lon="6.63804">
        <ele>668.8</ele>
        <time>2024-10-31T14:16:26Z</time>
      </trkpt>
      <trkpt lat="48.11634" lon="6.63809">
        <ele>668.8</ele>
        <time>2024-10-31T14:16:34Z</time>
      </trkpt>
      <trkpt lat="48.11641" lon="6.63818">
        <ele>668.7</ele>
        <time>2024-10-31T14:16:43Z</time>
      </trkpt>
      <trkpt lat="48.11649" lon="6.63827">
        <ele>668.5</ele>
        <time>2024-10-31T14:16:51Z</time>
      </trkpt>
      <trkpt lat="48.11657" lon="6.63834">
        <ele>668.3</ele>
        <time>2024-10-31T14:16:59Z</time>
      </trkpt>
      <trkpt lat="48.11667" lon="6.63839">
        <ele>668</ele>
        <time>2024-10-31T14:17:06Z</time>
      </trkpt>
      <trkpt lat="48.11674" lon="6.63849">
        <ele>667.7</ele>
        <time>2024-10-31T14:17:14Z</time>
      </trkpt>
      <trkpt lat="48.11683" lon="6.63854">
        <ele>667.2</ele>
        <time>2024-10-31T14:17:22Z</time>
      </trkpt>
      <trkpt lat="48.11693" lon="6.6386">
        <ele>666.7</ele>
        <time>2024-10-31T14:17:30Z</time>
      </trkpt>
      <trkpt lat="48.11702" lon="6.63865">
        <ele>666.2</ele>
        <time>2024-10-31T14:17:39Z</time>
      </trkpt>
      <trkpt lat="48.11711" lon="6.63871">
        <ele>665.8</ele>
        <time>2024-10-31T14:17:47Z</time>
      </trkpt>
      <trkpt lat="48.11719" lon="6.63877">
        <ele>665.4</ele>
        <time>2024-10-31T14:17:56Z</time>
      </trkpt>
      <trkpt lat="48.11725" lon="6.63888">
        <ele>664.9</ele>
        <time>2024-10-31T14:18:06Z</time>
      </trkpt>
      <trkpt lat="48.11726" lon="6.63889">
        <ele>664.8</ele>
        <time>2024-10-31T14:18:12Z</time>
      </trkpt>
      <trkpt lat="48.11726" lon="6.63889">
        <ele>664.8</ele>
        <time>2024-10-31T14:18:13Z</time>
      </trkpt>
      <trkpt lat="48.11726" lon="6.63892">
        <ele>664.7</ele>
        <time>2024-10-31T14:18:17Z</time>
      </trkpt>
      <trkpt lat="48.11727" lon="6.63893">
        <ele>664.6</ele>
        <time>2024-10-31T14:18:18Z</time>
      </trkpt>
      <trkpt lat="48.11727" lon="6.63894">
        <ele>664.6</ele>
        <time>2024-10-31T14:18:19Z</time>
      </trkpt>
      <trkpt lat="48.11733" lon="6.63906">
        <ele>663.8</ele>
        <time>2024-10-31T14:18:30Z</time>
      </trkpt>
      <trkpt lat="48.11738" lon="6.63918">
        <ele>662.9</ele>
        <time>2024-10-31T14:18:38Z</time>
      </trkpt>
      <trkpt lat="48.11745" lon="6.63927">
        <ele>661.9</ele>
        <time>2024-10-31T14:18:47Z</time>
      </trkpt>
      <trkpt lat="48.11754" lon="6.63933">
        <ele>660.9</ele>
        <time>2024-10-31T14:18:55Z</time>
      </trkpt>
      <trkpt lat="48.11763" lon="6.63937">
        <ele>659.9</ele>
        <time>2024-10-31T14:19:03Z</time>
      </trkpt>
      <trkpt lat="48.11773" lon="6.6394">
        <ele>659.1</ele>
        <time>2024-10-31T14:19:11Z</time>
      </trkpt>
      <trkpt lat="48.11782" lon="6.63944">
        <ele>658.2</ele>
        <time>2024-10-31T14:19:19Z</time>
      </trkpt>
      <trkpt lat="48.1179" lon="6.63949">
        <ele>657.3</ele>
        <time>2024-10-31T14:19:27Z</time>
      </trkpt>
      <trkpt lat="48.118" lon="6.63952">
        <ele>656.4</ele>
        <time>2024-10-31T14:19:35Z</time>
      </trkpt>
      <trkpt lat="48.11809" lon="6.63953">
        <ele>655.2</ele>
        <time>2024-10-31T14:19:43Z</time>
      </trkpt>
      <trkpt lat="48.11819" lon="6.6395">
        <ele>654</ele>
        <time>2024-10-31T14:19:51Z</time>
      </trkpt>
      <trkpt lat="48.11828" lon="6.63947">
        <ele>652.9</ele>
        <time>2024-10-31T14:19:59Z</time>
      </trkpt>
      <trkpt lat="48.11838" lon="6.63945">
        <ele>651.7</ele>
        <time>2024-10-31T14:20:07Z</time>
      </trkpt>
      <trkpt lat="48.11847" lon="6.63941">
        <ele>650.6</ele>
        <time>2024-10-31T14:20:15Z</time>
      </trkpt>
      <trkpt lat="48.11856" lon="6.6394">
        <ele>649.7</ele>
        <time>2024-10-31T14:20:24Z</time>
      </trkpt>
      <trkpt lat="48.11865" lon="6.63945">
        <ele>648.8</ele>
        <time>2024-10-31T14:20:32Z</time>
      </trkpt>
      <trkpt lat="48.11874" lon="6.63949">
        <ele>647.9</ele>
        <time>2024-10-31T14:20:40Z</time>
      </trkpt>
      <trkpt lat="48.11882" lon="6.63956">
        <ele>647</ele>
        <time>2024-10-31T14:20:48Z</time>
      </trkpt>
      <trkpt lat="48.11891" lon="6.63962">
        <ele>645.9</ele>
        <time>2024-10-31T14:20:57Z</time>
      </trkpt>
      <trkpt lat="48.119" lon="6.63966">
        <ele>645</ele>
        <time>2024-10-31T14:21:05Z</time>
      </trkpt>
      <trkpt lat="48.11909" lon="6.63973">
        <ele>644.3</ele>
        <time>2024-10-31T14:21:14Z</time>
      </trkpt>
      <trkpt lat="48.11918" lon="6.63978">
        <ele>643.5</ele>
        <time>2024-10-31T14:21:22Z</time>
      </trkpt>
      <trkpt lat="48.11928" lon="6.63983">
        <ele>642.7</ele>
        <time>2024-10-31T14:21:30Z</time>
      </trkpt>
      <trkpt lat="48.11936" lon="6.6399">
        <ele>641.9</ele>
        <time>2024-10-31T14:21:39Z</time>
      </trkpt>
      <trkpt lat="48.11945" lon="6.63995">
        <ele>640.3</ele>
        <time>2024-10-31T14:21:47Z</time>
      </trkpt>
      <trkpt lat="48.11951" lon="6.63984">
        <ele>640.3</ele>
        <time>2024-10-31T14:21:54Z</time>
      </trkpt>
      <trkpt lat="48.11954" lon="6.6397">
        <ele>640.3</ele>
        <time>2024-10-31T14:22:01Z</time>
      </trkpt>
      <trkpt lat="48.11956" lon="6.63957">
        <ele>640.2</ele>
        <time>2024-10-31T14:22:08Z</time>
      </trkpt>
      <trkpt lat="48.11957" lon="6.63943">
        <ele>640.2</ele>
        <time>2024-10-31T14:22:15Z</time>
      </trkpt>
      <trkpt lat="48.11959" lon="6.63929">
        <ele>640.2</ele>
        <time>2024-10-31T14:22:23Z</time>
      </trkpt>
      <trkpt lat="48.11966" lon="6.63918">
        <ele>639.9</ele>
        <time>2024-10-31T14:22:32Z</time>
      </trkpt>
      <trkpt lat="48.11976" lon="6.63917">
        <ele>639.5</ele>
        <time>2024-10-31T14:22:42Z</time>
      </trkpt>
      <trkpt lat="48.11985" lon="6.63921">
        <ele>639.1</ele>
        <time>2024-10-31T14:22:51Z</time>
      </trkpt>
      <trkpt lat="48.11993" lon="6.63925">
        <ele>638.7</ele>
        <time>2024-10-31T14:22:59Z</time>
      </trkpt>
      <trkpt lat="48.12002" lon="6.63931">
        <ele>638.2</ele>
        <time>2024-10-31T14:23:07Z</time>
      </trkpt>
      <trkpt lat="48.12011" lon="6.63937">
        <ele>637.5</ele>
        <time>2024-10-31T14:23:16Z</time>
      </trkpt>
      <trkpt lat="48.1202" lon="6.6394">
        <ele>636.8</ele>
        <time>2024-10-31T14:23:25Z</time>
      </trkpt>
      <trkpt lat="48.1203" lon="6.63944">
        <ele>636.3</ele>
        <time>2024-10-31T14:23:34Z</time>
      </trkpt>
      <trkpt lat="48.12039" lon="6.63948">
        <ele>635.9</ele>
        <time>2024-10-31T14:23:42Z</time>
      </trkpt>
      <trkpt lat="48.12048" lon="6.63953">
        <ele>635.6</ele>
        <time>2024-10-31T14:23:51Z</time>
      </trkpt>
      <trkpt lat="48.12058" lon="6.63958">
        <ele>635.3</ele>
        <time>2024-10-31T14:23:59Z</time>
      </trkpt>
      <trkpt lat="48.12067" lon="6.63962">
        <ele>635.2</ele>
        <time>2024-10-31T14:24:07Z</time>
      </trkpt>
      <trkpt lat="48.12076" lon="6.63967">
        <ele>635.1</ele>
        <time>2024-10-31T14:24:15Z</time>
      </trkpt>
      <trkpt lat="48.12084" lon="6.63975">
        <ele>635.1</ele>
        <time>2024-10-31T14:24:23Z</time>
      </trkpt>
      <trkpt lat="48.12093" lon="6.63978">
        <ele>635</ele>
        <time>2024-10-31T14:24:30Z</time>
      </trkpt>
      <trkpt lat="48.12102" lon="6.6398">
        <ele>635</ele>
        <time>2024-10-31T14:24:37Z</time>
      </trkpt>
      <trkpt lat="48.12111" lon="6.63984">
        <ele>635</ele>
        <time>2024-10-31T14:24:45Z</time>
      </trkpt>
      <trkpt lat="48.12121" lon="6.63986">
        <ele>634.8</ele>
        <time>2024-10-31T14:24:53Z</time>
      </trkpt>
      <trkpt lat="48.12131" lon="6.63987">
        <ele>634.7</ele>
        <time>2024-10-31T14:25:01Z</time>
      </trkpt>
      <trkpt lat="48.1214" lon="6.6399">
        <ele>634.5</ele>
        <time>2024-10-31T14:25:08Z</time>
      </trkpt>
      <trkpt lat="48.1215" lon="6.63994">
        <ele>634.4</ele>
        <time>2024-10-31T14:25:16Z</time>
      </trkpt>
      <trkpt lat="48.1216" lon="6.63998">
        <ele>634.2</ele>
        <time>2024-10-31T14:25:24Z</time>
      </trkpt>
      <trkpt lat="48.12169" lon="6.63997">
        <ele>634</ele>
        <time>2024-10-31T14:25:31Z</time>
      </trkpt>
      <trkpt lat="48.12178" lon="6.63993">
        <ele>633.8</ele>
        <time>2024-10-31T14:25:38Z</time>
      </trkpt>
      <trkpt lat="48.12187" lon="6.63989">
        <ele>633.6</ele>
        <time>2024-10-31T14:25:45Z</time>
      </trkpt>
      <trkpt lat="48.12196" lon="6.63986">
        <ele>633.4</ele>
        <time>2024-10-31T14:25:53Z</time>
      </trkpt>
      <trkpt lat="48.12206" lon="6.63983">
        <ele>633.2</ele>
        <time>2024-10-31T14:26:02Z</time>
      </trkpt>
      <trkpt lat="48.12215" lon="6.63981">
        <ele>632.9</ele>
        <time>2024-10-31T14:26:10Z</time>
      </trkpt>
      <trkpt lat="48.12225" lon="6.63981">
        <ele>632.4</ele>
        <time>2024-10-31T14:26:18Z</time>
      </trkpt>
      <trkpt lat="48.12234" lon="6.63981">
        <ele>631.8</ele>
        <time>2024-10-31T14:26:25Z</time>
      </trkpt>
      <trkpt lat="48.12244" lon="6.63978">
        <ele>630.9</ele>
        <time>2024-10-31T14:26:33Z</time>
      </trkpt>
      <trkpt lat="48.12252" lon="6.63971">
        <ele>629.7</ele>
        <time>2024-10-31T14:26:42Z</time>
      </trkpt>
      <trkpt lat="48.1226" lon="6.63963">
        <ele>628.5</ele>
        <time>2024-10-31T14:26:50Z</time>
      </trkpt>
      <trkpt lat="48.12267" lon="6.63954">
        <ele>627.1</ele>
        <time>2024-10-31T14:26:58Z</time>
      </trkpt>
      <trkpt lat="48.12276" lon="6.63946">
        <ele>625.8</ele>
        <time>2024-10-31T14:27:06Z</time>
      </trkpt>
      <trkpt lat="48.12284" lon="6.63938">
        <ele>624.6</ele>
        <time>2024-10-31T14:27:14Z</time>
      </trkpt>
      <trkpt lat="48.12293" lon="6.63931">
        <ele>623.7</ele>
        <time>2024-10-31T14:27:23Z</time>
      </trkpt>
      <trkpt lat="48.12303" lon="6.63928">
        <ele>623</ele>
        <time>2024-10-31T14:27:31Z</time>
      </trkpt>
      <trkpt lat="48.12312" lon="6.63929">
        <ele>622.5</ele>
        <time>2024-10-31T14:27:39Z</time>
      </trkpt>
      <trkpt lat="48.12322" lon="6.63929">
        <ele>622.2</ele>
        <time>2024-10-31T14:27:47Z</time>
      </trkpt>
      <trkpt lat="48.12331" lon="6.63934">
        <ele>621.9</ele>
        <time>2024-10-31T14:27:55Z</time>
      </trkpt>
      <trkpt lat="48.12339" lon="6.6394">
        <ele>621.5</ele>
        <time>2024-10-31T14:28:02Z</time>
      </trkpt>
      <trkpt lat="48.12349" lon="6.63945">
        <ele>620.9</ele>
        <time>2024-10-31T14:28:10Z</time>
      </trkpt>
      <trkpt lat="48.12358" lon="6.63947">
        <ele>620.3</ele>
        <time>2024-10-31T14:28:17Z</time>
      </trkpt>
      <trkpt lat="48.12367" lon="6.63948">
        <ele>619.5</ele>
        <time>2024-10-31T14:28:25Z</time>
      </trkpt>
      <trkpt lat="48.12376" lon="6.63946">
        <ele>618.6</ele>
        <time>2024-10-31T14:28:33Z</time>
      </trkpt>
      <trkpt lat="48.12386" lon="6.63946">
        <ele>617.5</ele>
        <time>2024-10-31T14:28:41Z</time>
      </trkpt>
      <trkpt lat="48.12395" lon="6.63945">
        <ele>616.2</ele>
        <time>2024-10-31T14:28:50Z</time>
      </trkpt>
      <trkpt lat="48.12405" lon="6.63944">
        <ele>614.8</ele>
        <time>2024-10-31T14:28:58Z</time>
      </trkpt>
      <trkpt lat="48.12415" lon="6.63942">
        <ele>613.5</ele>
        <time>2024-10-31T14:29:07Z</time>
      </trkpt>
      <trkpt lat="48.12425" lon="6.63942">
        <ele>612.1</ele>
        <time>2024-10-31T14:29:15Z</time>
      </trkpt>
      <trkpt lat="48.12435" lon="6.63942">
        <ele>610.7</ele>
        <time>2024-10-31T14:29:23Z</time>
      </trkpt>
      <trkpt lat="48.12444" lon="6.63944">
        <ele>609.4</ele>
        <time>2024-10-31T14:29:31Z</time>
      </trkpt>
      <trkpt lat="48.12453" lon="6.63944">
        <ele>608.5</ele>
        <time>2024-10-31T14:29:40Z</time>
      </trkpt>
      <trkpt lat="48.12453" lon="6.63944">
        <ele>608.5</ele>
        <time>2024-10-31T14:29:44Z</time>
      </trkpt>
      <trkpt lat="48.12453" lon="6.63944">
        <ele>608.5</ele>
        <time>2024-10-31T14:29:45Z</time>
      </trkpt>
      <trkpt lat="48.12453" lon="6.63944">
        <ele>608.5</ele>
        <time>2024-10-31T14:29:46Z</time>
      </trkpt>
      <trkpt lat="48.12453" lon="6.63944">
        <ele>608.5</ele>
        <time>2024-10-31T14:29:59Z</time>
      </trkpt>
      <trkpt lat="48.12454" lon="6.63945">
        <ele>608.5</ele>
        <time>2024-10-31T14:30:00Z</time>
      </trkpt>
      <trkpt lat="48.12454" lon="6.63945">
        <ele>608.4</ele>
        <time>2024-10-31T14:30:01Z</time>
      </trkpt>
      <trkpt lat="48.12459" lon="6.63943">
        <ele>608</ele>
        <time>2024-10-31T14:30:17Z</time>
      </trkpt>
      <trkpt lat="48.12459" lon="6.63943">
        <ele>608</ele>
        <time>2024-10-31T14:30:18Z</time>
      </trkpt>
      <trkpt lat="48.12459" lon="6.63943">
        <ele>608</ele>
        <time>2024-10-31T14:30:19Z</time>
      </trkpt>
      <trkpt lat="48.12459" lon="6.63942">
        <ele>607.9</ele>
        <time>2024-10-31T14:30:24Z</time>
      </trkpt>
      <trkpt lat="48.1246" lon="6.63941">
        <ele>607.8</ele>
        <time>2024-10-31T14:30:25Z</time>
      </trkpt>
      <trkpt lat="48.12461" lon="6.6394">
        <ele>607.7</ele>
        <time>2024-10-31T14:30:26Z</time>
      </trkpt>
      <trkpt lat="48.1247" lon="6.63936">
        <ele>606.7</ele>
        <time>2024-10-31T14:30:34Z</time>
      </trkpt>
      <trkpt lat="48.12479" lon="6.63929">
        <ele>605.5</ele>
        <time>2024-10-31T14:30:42Z</time>
      </trkpt>
      <trkpt lat="48.12488" lon="6.63924">
        <ele>604.6</ele>
        <time>2024-10-31T14:30:50Z</time>
      </trkpt>
      <trkpt lat="48.12498" lon="6.63922">
        <ele>603.9</ele>
        <time>2024-10-31T14:30:58Z</time>
      </trkpt>
      <trkpt lat="48.12508" lon="6.63922">
        <ele>603.3</ele>
        <time>2024-10-31T14:31:06Z</time>
      </trkpt>
      <trkpt lat="48.12517" lon="6.63923">
        <ele>602.9</ele>
        <time>2024-10-31T14:31:14Z</time>
      </trkpt>
      <trkpt lat="48.12526" lon="6.63922">
        <ele>602.6</ele>
        <time>2024-10-31T14:31:21Z</time>
      </trkpt>
      <trkpt lat="48.12535" lon="6.63922">
        <ele>602.2</ele>
        <time>2024-10-31T14:31:28Z</time>
      </trkpt>
      <trkpt lat="48.12544" lon="6.63926">
        <ele>601.9</ele>
        <time>2024-10-31T14:31:36Z</time>
      </trkpt>
      <trkpt lat="48.12554" lon="6.63928">
        <ele>601.5</ele>
        <time>2024-10-31T14:31:44Z</time>
      </trkpt>
      <trkpt lat="48.12563" lon="6.63931">
        <ele>601.2</ele>
        <time>2024-10-31T14:31:51Z</time>
      </trkpt>
      <trkpt lat="48.12572" lon="6.63931">
        <ele>600.9</ele>
        <time>2024-10-31T14:31:59Z</time>
      </trkpt>
      <trkpt lat="48.12582" lon="6.63927">
        <ele>600.7</ele>
        <time>2024-10-31T14:32:07Z</time>
      </trkpt>
      <trkpt lat="48.1259" lon="6.63922">
        <ele>600.4</ele>
        <time>2024-10-31T14:32:17Z</time>
      </trkpt>
      <trkpt lat="48.126" lon="6.6392">
        <ele>600.1</ele>
        <time>2024-10-31T14:32:33Z</time>
      </trkpt>
      <trkpt lat="48.12608" lon="6.63927">
        <ele>599.7</ele>
        <time>2024-10-31T14:32:46Z</time>
      </trkpt>
      <trkpt lat="48.12616" lon="6.63935">
        <ele>599.3</ele>
        <time>2024-10-31T14:32:53Z</time>
      </trkpt>
      <trkpt lat="48.12625" lon="6.63941">
        <ele>598.9</ele>
        <time>2024-10-31T14:33:01Z</time>
      </trkpt>
      <trkpt lat="48.12634" lon="6.63947">
        <ele>598.6</ele>
        <time>2024-10-31T14:33:11Z</time>
      </trkpt>
      <trkpt lat="48.12643" lon="6.63953">
        <ele>598.2</ele>
        <time>2024-10-31T14:33:24Z</time>
      </trkpt>
      <trkpt lat="48.12651" lon="6.63961">
        <ele>597.9</ele>
        <time>2024-10-31T14:33:32Z</time>
      </trkpt>
      <trkpt lat="48.1266" lon="6.63967">
        <ele>597.7</ele>
        <time>2024-10-31T14:33:41Z</time>
      </trkpt>
      <trkpt lat="48.12669" lon="6.63972">
        <ele>597.4</ele>
        <time>2024-10-31T14:33:49Z</time>
      </trkpt>
      <trkpt lat="48.12678" lon="6.63977">
        <ele>597.1</ele>
        <time>2024-10-31T14:33:57Z</time>
      </trkpt>
      <trkpt lat="48.12687" lon="6.6398">
        <ele>596.8</ele>
        <time>2024-10-31T14:34:05Z</time>
      </trkpt>
      <trkpt lat="48.12696" lon="6.63984">
        <ele>596.4</ele>
        <time>2024-10-31T14:34:13Z</time>
      </trkpt>
      <trkpt lat="48.12705" lon="6.63991">
        <ele>595.9</ele>
        <time>2024-10-31T14:34:21Z</time>
      </trkpt>
      <trkpt lat="48.12713" lon="6.63996">
        <ele>595.5</ele>
        <time>2024-10-31T14:34:29Z</time>
      </trkpt>
      <trkpt lat="48.12722" lon="6.64003">
        <ele>595.1</ele>
        <time>2024-10-31T14:34:37Z</time>
      </trkpt>
      <trkpt lat="48.1273" lon="6.64009">
        <ele>594.8</ele>
        <time>2024-10-31T14:34:45Z</time>
      </trkpt>
      <trkpt lat="48.12738" lon="6.64014">
        <ele>594.6</ele>
        <time>2024-10-31T14:34:53Z</time>
      </trkpt>
      <trkpt lat="48.12744" lon="6.64016">
        <ele>594.4</ele>
        <time>2024-10-31T14:35:04Z</time>
      </trkpt>
      <trkpt lat="48.12744" lon="6.64016">
        <ele>594.4</ele>
        <time>2024-10-31T14:35:05Z</time>
      </trkpt>
      <trkpt lat="48.12744" lon="6.64016">
        <ele>594.4</ele>
        <time>2024-10-31T14:35:06Z</time>
      </trkpt>
      <trkpt lat="48.12744" lon="6.64015">
        <ele>594.4</ele>
        <time>2024-10-31T14:35:17Z</time>
      </trkpt>
      <trkpt lat="48.12745" lon="6.64015">
        <ele>594.4</ele>
        <time>2024-10-31T14:35:18Z</time>
      </trkpt>
      <trkpt lat="48.12753" lon="6.6402">
        <ele>594.2</ele>
        <time>2024-10-31T14:35:26Z</time>
      </trkpt>
      <trkpt lat="48.12762" lon="6.64027">
        <ele>594</ele>
        <time>2024-10-31T14:35:34Z</time>
      </trkpt>
      <trkpt lat="48.12771" lon="6.64031">
        <ele>594</ele>
        <time>2024-10-31T14:35:42Z</time>
      </trkpt>
      <trkpt lat="48.1278" lon="6.64034">
        <ele>593.9</ele>
        <time>2024-10-31T14:35:50Z</time>
      </trkpt>
      <trkpt lat="48.12789" lon="6.64037">
        <ele>593.8</ele>
        <time>2024-10-31T14:35:58Z</time>
      </trkpt>
      <trkpt lat="48.12799" lon="6.64038">
        <ele>593.6</ele>
        <time>2024-10-31T14:36:06Z</time>
      </trkpt>
      <trkpt lat="48.12808" lon="6.64039">
        <ele>593.2</ele>
        <time>2024-10-31T14:36:14Z</time>
      </trkpt>
      <trkpt lat="48.12818" lon="6.64036">
        <ele>592.8</ele>
        <time>2024-10-31T14:36:21Z</time>
      </trkpt>
      <trkpt lat="48.12828" lon="6.64035">
        <ele>592.4</ele>
        <time>2024-10-31T14:36:29Z</time>
      </trkpt>
      <trkpt lat="48.12839" lon="6.64036">
        <ele>591.9</ele>
        <time>2024-10-31T14:36:38Z</time>
      </trkpt>
      <trkpt lat="48.12848" lon="6.64034">
        <ele>591.5</ele>
        <time>2024-10-31T14:36:45Z</time>
      </trkpt>
      <trkpt lat="48.12857" lon="6.6403">
        <ele>591.1</ele>
        <time>2024-10-31T14:36:54Z</time>
      </trkpt>
      <trkpt lat="48.12867" lon="6.64027">
        <ele>590.6</ele>
        <time>2024-10-31T14:37:03Z</time>
      </trkpt>
      <trkpt lat="48.12876" lon="6.6402">
        <ele>590.1</ele>
        <time>2024-10-31T14:37:12Z</time>
      </trkpt>
      <trkpt lat="48.12884" lon="6.64016">
        <ele>589.6</ele>
        <time>2024-10-31T14:37:20Z</time>
      </trkpt>
      <trkpt lat="48.12893" lon="6.64013">
        <ele>589.1</ele>
        <time>2024-10-31T14:37:29Z</time>
      </trkpt>
      <trkpt lat="48.12903" lon="6.6401">
        <ele>588.4</ele>
        <time>2024-10-31T14:37:38Z</time>
      </trkpt>
      <trkpt lat="48.12912" lon="6.64005">
        <ele>587.8</ele>
        <time>2024-10-31T14:37:46Z</time>
      </trkpt>
      <trkpt lat="48.12921" lon="6.64004">
        <ele>587</ele>
        <time>2024-10-31T14:37:55Z</time>
      </trkpt>
      <trkpt lat="48.1293" lon="6.64001">
        <ele>586.2</ele>
        <time>2024-10-31T14:38:04Z</time>
      </trkpt>
      <trkpt lat="48.1294" lon="6.63999">
        <ele>585.4</ele>
        <time>2024-10-31T14:38:12Z</time>
      </trkpt>
      <trkpt lat="48.12949" lon="6.63997">
        <ele>584.6</ele>
        <time>2024-10-31T14:38:20Z</time>
      </trkpt>
      <trkpt lat="48.12959" lon="6.63992">
        <ele>583.6</ele>
        <time>2024-10-31T14:38:28Z</time>
      </trkpt>
      <trkpt lat="48.12968" lon="6.63991">
        <ele>582.7</ele>
        <time>2024-10-31T14:38:37Z</time>
      </trkpt>
      <trkpt lat="48.12976" lon="6.63983">
        <ele>581.7</ele>
        <time>2024-10-31T14:38:49Z</time>
      </trkpt>
      <trkpt lat="48.12982" lon="6.63975">
        <ele>581</ele>
        <time>2024-10-31T14:38:59Z</time>
      </trkpt>
      <trkpt lat="48.12982" lon="6.63975">
        <ele>581</ele>
        <time>2024-10-31T14:39:00Z</time>
      </trkpt>
      <trkpt lat="48.12982" lon="6.63975">
        <ele>581</ele>
        <time>2024-10-31T14:39:01Z</time>
      </trkpt>
      <trkpt lat="48.12982" lon="6.63975">
        <ele>581</ele>
        <time>2024-10-31T14:39:05Z</time>
      </trkpt>
      <trkpt lat="48.12982" lon="6.63975">
        <ele>581</ele>
        <time>2024-10-31T14:39:06Z</time>
      </trkpt>
      <trkpt lat="48.12983" lon="6.63973">
        <ele>580.8</ele>
        <time>2024-10-31T14:39:12Z</time>
      </trkpt>
      <trkpt lat="48.12983" lon="6.63973">
        <ele>580.8</ele>
        <time>2024-10-31T14:39:13Z</time>
      </trkpt>
      <trkpt lat="48.12983" lon="6.63973">
        <ele>580.8</ele>
        <time>2024-10-31T14:39:21Z</time>
      </trkpt>
      <trkpt lat="48.12984" lon="6.63971">
        <ele>580.6</ele>
        <time>2024-10-31T14:39:30Z</time>
      </trkpt>
      <trkpt lat="48.12984" lon="6.63971">
        <ele>580.6</ele>
        <time>2024-10-31T14:39:31Z</time>
      </trkpt>
      <trkpt lat="48.12986" lon="6.63969">
        <ele>580.5</ele>
        <time>2024-10-31T14:40:15Z</time>
      </trkpt>
      <trkpt lat="48.12985" lon="6.63969">
        <ele>580.4</ele>
        <time>2024-10-31T14:40:16Z</time>
      </trkpt>
      <trkpt lat="48.12985" lon="6.63969">
        <ele>580.4</ele>
        <time>2024-10-31T14:40:19Z</time>
      </trkpt>
      <trkpt lat="48.12985" lon="6.63969">
        <ele>580.4</ele>
        <time>2024-10-31T14:40:20Z</time>
      </trkpt>
      <trkpt lat="48.12985" lon="6.63969">
        <ele>580.4</ele>
        <time>2024-10-31T14:40:21Z</time>
      </trkpt>
      <trkpt lat="48.12987" lon="6.63965">
        <ele>580.4</ele>
        <time>2024-10-31T14:40:24Z</time>
      </trkpt>
      <trkpt lat="48.12987" lon="6.63964">
        <ele>580.3</ele>
        <time>2024-10-31T14:40:25Z</time>
      </trkpt>
      <trkpt lat="48.12988" lon="6.63962">
        <ele>580.3</ele>
        <time>2024-10-31T14:40:26Z</time>
      </trkpt>
      <trkpt lat="48.12993" lon="6.63948">
        <ele>579.8</ele>
        <time>2024-10-31T14:40:36Z</time>
      </trkpt>
      <trkpt lat="48.12998" lon="6.63937">
        <ele>579.3</ele>
        <time>2024-10-31T14:40:44Z</time>
      </trkpt>
      <trkpt lat="48.13002" lon="6.63924">
        <ele>578.9</ele>
        <time>2024-10-31T14:40:52Z</time>
      </trkpt>
      <trkpt lat="48.13006" lon="6.63912">
        <ele>578.3</ele>
        <time>2024-10-31T14:40:59Z</time>
      </trkpt>
      <trkpt lat="48.13009" lon="6.63898">
        <ele>577.9</ele>
        <time>2024-10-31T14:41:08Z</time>
      </trkpt>
      <trkpt lat="48.13011" lon="6.63884">
        <ele>577.4</ele>
        <time>2024-10-31T14:41:17Z</time>
      </trkpt>
      <trkpt lat="48.1301" lon="6.63871">
        <ele>577</ele>
        <time>2024-10-31T14:41:27Z</time>
      </trkpt>
      <trkpt lat="48.1301" lon="6.63871">
        <ele>577</ele>
        <time>2024-10-31T14:41:28Z</time>
      </trkpt>
      <trkpt lat="48.1301" lon="6.63871">
        <ele>577</ele>
        <time>2024-10-31T14:41:29Z</time>
      </trkpt>
      <trkpt lat="48.1301" lon="6.63868">
        <ele>576.9</ele>
        <time>2024-10-31T14:41:55Z</time>
      </trkpt>
      <trkpt lat="48.1301" lon="6.63867">
        <ele>576.9</ele>
        <time>2024-10-31T14:41:56Z</time>
      </trkpt>
      <trkpt lat="48.1301" lon="6.63865">
        <ele>576.8</ele>
        <time>2024-10-31T14:41:57Z</time>
      </trkpt>
      <trkpt lat="48.13011" lon="6.63852">
        <ele>576.3</ele>
        <time>2024-10-31T14:42:09Z</time>
      </trkpt>
      <trkpt lat="48.13009" lon="6.63837">
        <ele>575.8</ele>
        <time>2024-10-31T14:42:19Z</time>
      </trkpt>
      <trkpt lat="48.13008" lon="6.63823">
        <ele>575.2</ele>
        <time>2024-10-31T14:42:32Z</time>
      </trkpt>
      <trkpt lat="48.13008" lon="6.63821">
        <ele>575.2</ele>
        <time>2024-10-31T14:42:37Z</time>
      </trkpt>
      <trkpt lat="48.13008" lon="6.63821">
        <ele>575.2</ele>
        <time>2024-10-31T14:42:38Z</time>
      </trkpt>
      <trkpt lat="48.13008" lon="6.63821">
        <ele>575.2</ele>
        <time>2024-10-31T14:42:39Z</time>
      </trkpt>
      <trkpt lat="48.13008" lon="6.63821">
        <ele>575.2</ele>
        <time>2024-10-31T14:42:55Z</time>
      </trkpt>
      <trkpt lat="48.13008" lon="6.63821">
        <ele>575.2</ele>
        <time>2024-10-31T14:42:56Z</time>
      </trkpt>
      <trkpt lat="48.13008" lon="6.63821">
        <ele>575.2</ele>
        <time>2024-10-31T14:42:57Z</time>
      </trkpt>
      <trkpt lat="48.13008" lon="6.63821">
        <ele>575.2</ele>
        <time>2024-10-31T14:42:58Z</time>
      </trkpt>
      <trkpt lat="48.13008" lon="6.63821">
        <ele>575.2</ele>
        <time>2024-10-31T14:42:59Z</time>
      </trkpt>
      <trkpt lat="48.13007" lon="6.63818">
        <ele>575</ele>
        <time>2024-10-31T14:43:14Z</time>
      </trkpt>
      <trkpt lat="48.13007" lon="6.63818">
        <ele>575</ele>
        <time>2024-10-31T14:43:15Z</time>
      </trkpt>
      <trkpt lat="48.13007" lon="6.63818">
        <ele>575</ele>
        <time>2024-10-31T14:43:16Z</time>
      </trkpt>
      <trkpt lat="48.13007" lon="6.63818">
        <ele>575</ele>
        <time>2024-10-31T14:43:19Z</time>
      </trkpt>
      <trkpt lat="48.13007" lon="6.63818">
        <ele>575</ele>
        <time>2024-10-31T14:43:20Z</time>
      </trkpt>
      <trkpt lat="48.13007" lon="6.63818">
        <ele>575</ele>
        <time>2024-10-31T14:43:21Z</time>
      </trkpt>
      <trkpt lat="48.13007" lon="6.63815">
        <ele>574.9</ele>
        <time>2024-10-31T14:43:25Z</time>
      </trkpt>
      <trkpt lat="48.13006" lon="6.63802">
        <ele>574.4</ele>
        <time>2024-10-31T14:43:35Z</time>
      </trkpt>
      <trkpt lat="48.13006" lon="6.63788">
        <ele>574</ele>
        <time>2024-10-31T14:43:42Z</time>
      </trkpt>
      <trkpt lat="48.13004" lon="6.63774">
        <ele>573.6</ele>
        <time>2024-10-31T14:43:49Z</time>
      </trkpt>
      <trkpt lat="48.12999" lon="6.63762">
        <ele>573.2</ele>
        <time>2024-10-31T14:43:57Z</time>
      </trkpt>
      <trkpt lat="48.12992" lon="6.63753">
        <ele>572.9</ele>
        <time>2024-10-31T14:44:04Z</time>
      </trkpt>
      <trkpt lat="48.12986" lon="6.63743">
        <ele>572.6</ele>
        <time>2024-10-31T14:44:11Z</time>
      </trkpt>
      <trkpt lat="48.12979" lon="6.63732">
        <ele>572.4</ele>
        <time>2024-10-31T14:44:20Z</time>
      </trkpt>
      <trkpt lat="48.12972" lon="6.63723">
        <ele>572.3</ele>
        <time>2024-10-31T14:44:28Z</time>
      </trkpt>
      <trkpt lat="48.12963" lon="6.63714">
        <ele>572.3</ele>
        <time>2024-10-31T14:44:36Z</time>
      </trkpt>
      <trkpt lat="48.12954" lon="6.63705">
        <ele>572.2</ele>
        <time>2024-10-31T14:44:44Z</time>
      </trkpt>
      <trkpt lat="48.12945" lon="6.63699">
        <ele>572.1</ele>
        <time>2024-10-31T14:44:52Z</time>
      </trkpt>
      <trkpt lat="48.12936" lon="6.63694">
        <ele>571.9</ele>
        <time>2024-10-31T14:45:00Z</time>
      </trkpt>
      <trkpt lat="48.12928" lon="6.63688">
        <ele>571.7</ele>
        <time>2024-10-31T14:45:07Z</time>
      </trkpt>
      <trkpt lat="48.1292" lon="6.63683">
        <ele>571.3</ele>
        <time>2024-10-31T14:45:15Z</time>
      </trkpt>
      <trkpt lat="48.12911" lon="6.63677">
        <ele>571</ele>
        <time>2024-10-31T14:45:22Z</time>
      </trkpt>
      <trkpt lat="48.12902" lon="6.63672">
        <ele>570.5</ele>
        <time>2024-10-31T14:45:29Z</time>
      </trkpt>
      <trkpt lat="48.12894" lon="6.63665">
        <ele>570</ele>
        <time>2024-10-31T14:45:37Z</time>
      </trkpt>
      <trkpt lat="48.12885" lon="6.6366">
        <ele>569.4</ele>
        <time>2024-10-31T14:45:45Z</time>
      </trkpt>
      <trkpt lat="48.12876" lon="6.63653">
        <ele>568.7</ele>
        <time>2024-10-31T14:45:53Z</time>
      </trkpt>
      <trkpt lat="48.12867" lon="6.6365">
        <ele>568</ele>
        <time>2024-10-31T14:46:01Z</time>
      </trkpt>
      <trkpt lat="48.12857" lon="6.63648">
        <ele>567.2</ele>
        <time>2024-10-31T14:46:09Z</time>
      </trkpt>
      <trkpt lat="48.12848" lon="6.63647">
        <ele>566.5</ele>
        <time>2024-10-31T14:46:16Z</time>
      </trkpt>
      <trkpt lat="48.12838" lon="6.63648">
        <ele>565.8</ele>
        <time>2024-10-31T14:46:24Z</time>
      </trkpt>
      <trkpt lat="48.12828" lon="6.6365">
        <ele>565.1</ele>
        <time>2024-10-31T14:46:32Z</time>
      </trkpt>
      <trkpt lat="48.12818" lon="6.63652">
        <ele>564.4</ele>
        <time>2024-10-31T14:46:40Z</time>
      </trkpt>
      <trkpt lat="48.12809" lon="6.63653">
        <ele>563.8</ele>
        <time>2024-10-31T14:46:48Z</time>
      </trkpt>
      <trkpt lat="48.128" lon="6.63652">
        <ele>563</ele>
        <time>2024-10-31T14:46:56Z</time>
      </trkpt>
      <trkpt lat="48.1279" lon="6.63649">
        <ele>562.2</ele>
        <time>2024-10-31T14:47:04Z</time>
      </trkpt>
      <trkpt lat="48.12781" lon="6.63647">
        <ele>561.5</ele>
        <time>2024-10-31T14:47:12Z</time>
      </trkpt>
      <trkpt lat="48.12772" lon="6.63647">
        <ele>561</ele>
        <time>2024-10-31T14:47:20Z</time>
      </trkpt>
      <trkpt lat="48.12762" lon="6.63647">
        <ele>560.6</ele>
        <time>2024-10-31T14:47:29Z</time>
      </trkpt>
      <trkpt lat="48.12753" lon="6.63644">
        <ele>560.4</ele>
        <time>2024-10-31T14:47:36Z</time>
      </trkpt>
      <trkpt lat="48.12744" lon="6.63641">
        <ele>560.2</ele>
        <time>2024-10-31T14:47:42Z</time>
      </trkpt>
      <trkpt lat="48.12735" lon="6.63638">
        <ele>559.9</ele>
        <time>2024-10-31T14:47:49Z</time>
      </trkpt>
      <trkpt lat="48.12725" lon="6.63636">
        <ele>559.6</ele>
        <time>2024-10-31T14:47:57Z</time>
      </trkpt>
      <trkpt lat="48.12715" lon="6.63635">
        <ele>559.3</ele>
        <time>2024-10-31T14:48:06Z</time>
      </trkpt>
      <trkpt lat="48.12706" lon="6.63635">
        <ele>559</ele>
        <time>2024-10-31T14:48:15Z</time>
      </trkpt>
      <trkpt lat="48.12697" lon="6.63632">
        <ele>558.7</ele>
        <time>2024-10-31T14:48:24Z</time>
      </trkpt>
      <trkpt lat="48.12689" lon="6.63624">
        <ele>558.4</ele>
        <time>2024-10-31T14:48:33Z</time>
      </trkpt>
      <trkpt lat="48.1269" lon="6.6361">
        <ele>557.8</ele>
        <time>2024-10-31T14:48:45Z</time>
      </trkpt>
      <trkpt lat="48.12694" lon="6.63598">
        <ele>557.2</ele>
        <time>2024-10-31T14:48:55Z</time>
      </trkpt>
      <trkpt lat="48.12699" lon="6.6359">
        <ele>556.7</ele>
        <time>2024-10-31T14:49:12Z</time>
      </trkpt>
      <trkpt lat="48.12699" lon="6.6359">
        <ele>556.7</ele>
        <time>2024-10-31T14:49:13Z</time>
      </trkpt>
      <trkpt lat="48.12699" lon="6.6359">
        <ele>556.7</ele>
        <time>2024-10-31T14:49:14Z</time>
      </trkpt>
      <trkpt lat="48.127" lon="6.6359">
        <ele>556.5</ele>
        <time>2024-10-31T14:51:30Z</time>
      </trkpt>
      <trkpt lat="48.127" lon="6.6359">
        <ele>556.5</ele>
        <time>2024-10-31T14:51:31Z</time>
      </trkpt>
      <trkpt lat="48.12702" lon="6.63603">
        <ele>555.8</ele>
        <time>2024-10-31T14:51:41Z</time>
      </trkpt>
      <trkpt lat="48.1271" lon="6.63597">
        <ele>555</ele>
        <time>2024-10-31T14:51:55Z</time>
      </trkpt>
      <trkpt lat="48.1271" lon="6.63594">
        <ele>554.8</ele>
        <time>2024-10-31T14:52:01Z</time>
      </trkpt>
      <trkpt lat="48.12711" lon="6.63595">
        <ele>554.7</ele>
        <time>2024-10-31T14:52:10Z</time>
      </trkpt>
      <trkpt lat="48.12711" lon="6.63595">
        <ele>554.7</ele>
        <time>2024-10-31T14:52:11Z</time>
      </trkpt>
      <trkpt lat="48.12711" lon="6.63595">
        <ele>554.7</ele>
        <time>2024-10-31T14:52:12Z</time>
      </trkpt>
      <trkpt lat="48.12711" lon="6.63595">
        <ele>554.7</ele>
        <time>2024-10-31T14:52:13Z</time>
      </trkpt>
      <trkpt lat="48.12711" lon="6.63595">
        <ele>554.7</ele>
        <time>2024-10-31T14:52:14Z</time>
      </trkpt>
      <trkpt lat="48.12712" lon="6.63594">
        <ele>554.6</ele>
        <time>2024-10-31T14:52:20Z</time>
      </trkpt>
      <trkpt lat="48.12713" lon="6.63593">
        <ele>554.5</ele>
        <time>2024-10-31T14:52:21Z</time>
      </trkpt>
      <trkpt lat="48.12722" lon="6.63592">
        <ele>553.7</ele>
        <time>2024-10-31T14:52:32Z</time>
      </trkpt>
      <trkpt lat="48.12732" lon="6.6359">
        <ele>552.9</ele>
        <time>2024-10-31T14:52:41Z</time>
      </trkpt>
      <trkpt lat="48.1274" lon="6.63587">
        <ele>552</ele>
        <time>2024-10-31T14:52:48Z</time>
      </trkpt>
      <trkpt lat="48.12748" lon="6.6358">
        <ele>551.1</ele>
        <time>2024-10-31T14:52:56Z</time>
      </trkpt>
      <trkpt lat="48.12757" lon="6.63573">
        <ele>550</ele>
        <time>2024-10-31T14:53:06Z</time>
      </trkpt>
      <trkpt lat="48.12766" lon="6.63567">
        <ele>549.1</ele>
        <time>2024-10-31T14:53:13Z</time>
      </trkpt>
      <trkpt lat="48.12774" lon="6.63563">
        <ele>548.3</ele>
        <time>2024-10-31T14:53:21Z</time>
      </trkpt>
      <trkpt lat="48.12782" lon="6.63554">
        <ele>547</ele>
        <time>2024-10-31T14:53:33Z</time>
      </trkpt>
      <trkpt lat="48.1279" lon="6.63546">
        <ele>545.7</ele>
        <time>2024-10-31T14:53:40Z</time>
      </trkpt>
      <trkpt lat="48.12797" lon="6.63536">
        <ele>544.7</ele>
        <time>2024-10-31T14:53:49Z</time>
      </trkpt>
      <trkpt lat="48.12806" lon="6.63528">
        <ele>543.8</ele>
        <time>2024-10-31T14:53:57Z</time>
      </trkpt>
      <trkpt lat="48.12809" lon="6.63525">
        <ele>543.4</ele>
        <time>2024-10-31T14:54:05Z</time>
      </trkpt>
      <trkpt lat="48.1281" lon="6.63524">
        <ele>543.3</ele>
        <time>2024-10-31T14:54:06Z</time>
      </trkpt>
      <trkpt lat="48.12811" lon="6.63524">
        <ele>543.3</ele>
        <time>2024-10-31T14:54:07Z</time>
      </trkpt>
      <trkpt lat="48.12811" lon="6.63524">
        <ele>543.2</ele>
        <time>2024-10-31T14:54:08Z</time>
      </trkpt>
      <trkpt lat="48.12811" lon="6.63522">
        <ele>543.1</ele>
        <time>2024-10-31T14:54:18Z</time>
      </trkpt>
      <trkpt lat="48.12811" lon="6.63521">
        <ele>543.1</ele>
        <time>2024-10-31T14:54:19Z</time>
      </trkpt>
      <trkpt lat="48.12811" lon="6.63521">
        <ele>543</ele>
        <time>2024-10-31T14:54:20Z</time>
      </trkpt>
      <trkpt lat="48.12811" lon="6.6352">
        <ele>543</ele>
        <time>2024-10-31T14:54:21Z</time>
      </trkpt>
      <trkpt lat="48.12811" lon="6.63521">
        <ele>542.9</ele>
        <time>2024-10-31T14:54:25Z</time>
      </trkpt>
      <trkpt lat="48.12812" lon="6.63522">
        <ele>542.8</ele>
        <time>2024-10-31T14:54:26Z</time>
      </trkpt>
      <trkpt lat="48.12812" lon="6.63521">
        <ele>542.7</ele>
        <time>2024-10-31T14:54:27Z</time>
      </trkpt>
      <trkpt lat="48.12813" lon="6.63518">
        <ele>542.5</ele>
        <time>2024-10-31T14:54:33Z</time>
      </trkpt>
      <trkpt lat="48.12813" lon="6.63517">
        <ele>542.4</ele>
        <time>2024-10-31T14:54:34Z</time>
      </trkpt>
      <trkpt lat="48.12821" lon="6.63509">
        <ele>541.4</ele>
        <time>2024-10-31T14:54:44Z</time>
      </trkpt>
      <trkpt lat="48.12829" lon="6.63502">
        <ele>540.4</ele>
        <time>2024-10-31T14:54:53Z</time>
      </trkpt>
      <trkpt lat="48.12836" lon="6.63492">
        <ele>539.4</ele>
        <time>2024-10-31T14:55:01Z</time>
      </trkpt>
      <trkpt lat="48.12844" lon="6.63484">
        <ele>537.6</ele>
        <time>2024-10-31T14:55:11Z</time>
      </trkpt>
      <trkpt lat="48.12848" lon="6.63472">
        <ele>534.8</ele>
        <time>2024-10-31T14:55:18Z</time>
      </trkpt>
      <trkpt lat="48.12853" lon="6.63459">
        <ele>532.2</ele>
        <time>2024-10-31T14:55:26Z</time>
      </trkpt>
      <trkpt lat="48.12856" lon="6.63447">
        <ele>529.6</ele>
        <time>2024-10-31T14:55:32Z</time>
      </trkpt>
      <trkpt lat="48.12866" lon="6.63442">
        <ele>526.7</ele>
        <time>2024-10-31T14:55:41Z</time>
      </trkpt>
      <trkpt lat="48.12872" lon="6.63432">
        <ele>523.9</ele>
        <time>2024-10-31T14:55:53Z</time>
      </trkpt>
      <trkpt lat="48.12882" lon="6.63429">
        <ele>520.6</ele>
        <time>2024-10-31T14:56:03Z</time>
      </trkpt>
      <trkpt lat="48.12886" lon="6.63417">
        <ele>517.5</ele>
        <time>2024-10-31T14:56:12Z</time>
      </trkpt>
      <trkpt lat="48.12892" lon="6.63405">
        <ele>514.1</ele>
        <time>2024-10-31T14:56:23Z</time>
      </trkpt>
      <trkpt lat="48.12897" lon="6.63413">
        <ele>511.3</ele>
        <time>2024-10-31T14:56:32Z</time>
      </trkpt>
      <trkpt lat="48.12898" lon="6.63414">
        <ele>511.1</ele>
        <time>2024-10-31T14:56:33Z</time>
      </trkpt>
      <trkpt lat="48.12898" lon="6.63413">
        <ele>510.8</ele>
        <time>2024-10-31T14:56:34Z</time>
      </trkpt>
      <trkpt lat="48.12899" lon="6.63412">
        <ele>510.3</ele>
        <time>2024-10-31T14:56:35Z</time>
      </trkpt>
      <trkpt lat="48.12899" lon="6.6341">
        <ele>509.9</ele>
        <time>2024-10-31T14:56:36Z</time>
      </trkpt>
      <trkpt lat="48.12906" lon="6.634">
        <ele>506.5</ele>
        <time>2024-10-31T14:57:01Z</time>
      </trkpt>
      <trkpt lat="48.12914" lon="6.63392">
        <ele>502.9</ele>
        <time>2024-10-31T14:57:16Z</time>
      </trkpt>
      <trkpt lat="48.1292" lon="6.63382">
        <ele>499.6</ele>
        <time>2024-10-31T14:57:26Z</time>
      </trkpt>
      <trkpt lat="48.12927" lon="6.63372">
        <ele>496.1</ele>
        <time>2024-10-31T14:57:43Z</time>
      </trkpt>
      <trkpt lat="48.12927" lon="6.63371">
        <ele>495.8</ele>
        <time>2024-10-31T14:57:44Z</time>
      </trkpt>
      <trkpt lat="48.12931" lon="6.6337">
        <ele>494.6</ele>
        <time>2024-10-31T14:57:52Z</time>
      </trkpt>
      <trkpt lat="48.12931" lon="6.63369">
        <ele>494.5</ele>
        <time>2024-10-31T14:57:53Z</time>
      </trkpt>
      <trkpt lat="48.12937" lon="6.63358">
        <ele>491.1</ele>
        <time>2024-10-31T14:58:09Z</time>
      </trkpt>
      <trkpt lat="48.12941" lon="6.63349">
        <ele>488.7</ele>
        <time>2024-10-31T14:58:25Z</time>
      </trkpt>
      <trkpt lat="48.12949" lon="6.63354">
        <ele>485.7</ele>
        <time>2024-10-31T14:58:39Z</time>
      </trkpt>
      <trkpt lat="48.1295" lon="6.63353">
        <ele>485.5</ele>
        <time>2024-10-31T14:58:40Z</time>
      </trkpt>
      <trkpt lat="48.1295" lon="6.63353">
        <ele>485.3</ele>
        <time>2024-10-31T14:58:41Z</time>
      </trkpt>
      <trkpt lat="48.12956" lon="6.63343">
        <ele>482.2</ele>
        <time>2024-10-31T14:59:04Z</time>
      </trkpt>
      <trkpt lat="48.12964" lon="6.63335">
        <ele>478.4</ele>
        <time>2024-10-31T14:59:16Z</time>
      </trkpt>
      <trkpt lat="48.12971" lon="6.63325">
        <ele>477</ele>
        <time>2024-10-31T14:59:28Z</time>
      </trkpt>
      <trkpt lat="48.12969" lon="6.63316">
        <ele>475.9</ele>
        <time>2024-10-31T14:59:37Z</time>
      </trkpt>
      <trkpt lat="48.12969" lon="6.63315">
        <ele>475.9</ele>
        <time>2024-10-31T14:59:38Z</time>
      </trkpt>
      <trkpt lat="48.12969" lon="6.63315">
        <ele>475.8</ele>
        <time>2024-10-31T14:59:39Z</time>
      </trkpt>
      <trkpt lat="48.12969" lon="6.63314">
        <ele>475.8</ele>
        <time>2024-10-31T14:59:40Z</time>
      </trkpt>
      <trkpt lat="48.12969" lon="6.63314">
        <ele>475.7</ele>
        <time>2024-10-31T14:59:41Z</time>
      </trkpt>
      <trkpt lat="48.12976" lon="6.63303">
        <ele>474.1</ele>
        <time>2024-10-31T15:00:06Z</time>
      </trkpt>
      <trkpt lat="48.12979" lon="6.63298">
        <ele>473.2</ele>
        <time>2024-10-31T15:00:19Z</time>
      </trkpt>
      <trkpt lat="48.1298" lon="6.63298">
        <ele>473.1</ele>
        <time>2024-10-31T15:00:20Z</time>
      </trkpt>
      <trkpt lat="48.12979" lon="6.63298">
        <ele>473.1</ele>
        <time>2024-10-31T15:00:21Z</time>
      </trkpt>
      <trkpt lat="48.1298" lon="6.63297">
        <ele>473</ele>
        <time>2024-10-31T15:00:22Z</time>
      </trkpt>
      <trkpt lat="48.12981" lon="6.63297">
        <ele>472.8</ele>
        <time>2024-10-31T15:00:23Z</time>
      </trkpt>
      <trkpt lat="48.1299" lon="6.6329">
        <ele>470.9</ele>
        <time>2024-10-31T15:00:28Z</time>
      </trkpt>
      <trkpt lat="48.12999" lon="6.63294">
        <ele>469.2</ele>
        <time>2024-10-31T15:00:35Z</time>
      </trkpt>
      <trkpt lat="48.13009" lon="6.63293">
        <ele>467.5</ele>
        <time>2024-10-31T15:00:44Z</time>
      </trkpt>
      <trkpt lat="48.13017" lon="6.63286">
        <ele>466</ele>
        <time>2024-10-31T15:00:51Z</time>
      </trkpt>
      <trkpt lat="48.13026" lon="6.63284">
        <ele>464.8</ele>
        <time>2024-10-31T15:00:58Z</time>
      </trkpt>
      <trkpt lat="48.13031" lon="6.63276">
        <ele>464.1</ele>
        <time>2024-10-31T15:01:10Z</time>
      </trkpt>
      <trkpt lat="48.13031" lon="6.63276">
        <ele>464.1</ele>
        <time>2024-10-31T15:01:11Z</time>
      </trkpt>
      <trkpt lat="48.13031" lon="6.63273">
        <ele>463.9</ele>
        <time>2024-10-31T15:01:43Z</time>
      </trkpt>
      <trkpt lat="48.1303" lon="6.63272">
        <ele>463.8</ele>
        <time>2024-10-31T15:01:44Z</time>
      </trkpt>
      <trkpt lat="48.1303" lon="6.63272">
        <ele>463.8</ele>
        <time>2024-10-31T15:01:45Z</time>
      </trkpt>
      <trkpt lat="48.1303" lon="6.63272">
        <ele>463.8</ele>
        <time>2024-10-31T15:01:46Z</time>
      </trkpt>
      <trkpt lat="48.1303" lon="6.63272">
        <ele>463.8</ele>
        <time>2024-10-31T15:01:47Z</time>
      </trkpt>
      <trkpt lat="48.1303" lon="6.63271">
        <ele>463.7</ele>
        <time>2024-10-31T15:01:48Z</time>
      </trkpt>
      <trkpt lat="48.13031" lon="6.6327">
        <ele>463.6</ele>
        <time>2024-10-31T15:01:49Z</time>
      </trkpt>
      <trkpt lat="48.13037" lon="6.63259">
        <ele>462.8</ele>
        <time>2024-10-31T15:02:02Z</time>
      </trkpt>
      <trkpt lat="48.13046" lon="6.63254">
        <ele>462.3</ele>
        <time>2024-10-31T15:02:21Z</time>
      </trkpt>
      <trkpt lat="48.13053" lon="6.63245">
        <ele>461.9</ele>
        <time>2024-10-31T15:02:29Z</time>
      </trkpt>
      <trkpt lat="48.13061" lon="6.63237">
        <ele>461.8</ele>
        <time>2024-10-31T15:02:37Z</time>
      </trkpt>
      <trkpt lat="48.13069" lon="6.63231">
        <ele>461.8</ele>
        <time>2024-10-31T15:02:49Z</time>
      </trkpt>
      <trkpt lat="48.1308" lon="6.63225">
        <ele>461.9</ele>
        <time>2024-10-31T15:02:57Z</time>
      </trkpt>
      <trkpt lat="48.13088" lon="6.6322">
        <ele>462.1</ele>
        <time>2024-10-31T15:03:03Z</time>
      </trkpt>
      <trkpt lat="48.13099" lon="6.63219">
        <ele>462.4</ele>
        <time>2024-10-31T15:03:13Z</time>
      </trkpt>
      <trkpt lat="48.13108" lon="6.63217">
        <ele>462.7</ele>
        <time>2024-10-31T15:03:22Z</time>
      </trkpt>
      <trkpt lat="48.13118" lon="6.63217">
        <ele>463</ele>
        <time>2024-10-31T15:03:30Z</time>
      </trkpt>
      <trkpt lat="48.13127" lon="6.63219">
        <ele>463.3</ele>
        <time>2024-10-31T15:03:38Z</time>
      </trkpt>
      <trkpt lat="48.13136" lon="6.63219">
        <ele>463.7</ele>
        <time>2024-10-31T15:03:46Z</time>
      </trkpt>
      <trkpt lat="48.13145" lon="6.63223">
        <ele>464.1</ele>
        <time>2024-10-31T15:03:52Z</time>
      </trkpt>
      <trkpt lat="48.13154" lon="6.63225">
        <ele>464.6</ele>
        <time>2024-10-31T15:04:01Z</time>
      </trkpt>
      <trkpt lat="48.13165" lon="6.63223">
        <ele>465.3</ele>
        <time>2024-10-31T15:04:09Z</time>
      </trkpt>
      <trkpt lat="48.13174" lon="6.63223">
        <ele>466</ele>
        <time>2024-10-31T15:04:17Z</time>
      </trkpt>
      <trkpt lat="48.13183" lon="6.63221">
        <ele>466.7</ele>
        <time>2024-10-31T15:04:23Z</time>
      </trkpt>
      <trkpt lat="48.13192" lon="6.63218">
        <ele>467.3</ele>
        <time>2024-10-31T15:04:29Z</time>
      </trkpt>
      <trkpt lat="48.13202" lon="6.63214">
        <ele>467.9</ele>
        <time>2024-10-31T15:04:37Z</time>
      </trkpt>
      <trkpt lat="48.13212" lon="6.63211">
        <ele>468.4</ele>
        <time>2024-10-31T15:04:45Z</time>
      </trkpt>
      <trkpt lat="48.13221" lon="6.63205">
        <ele>468.9</ele>
        <time>2024-10-31T15:04:55Z</time>
      </trkpt>
      <trkpt lat="48.1323" lon="6.63204">
        <ele>469.5</ele>
        <time>2024-10-31T15:05:03Z</time>
      </trkpt>
      <trkpt lat="48.1324" lon="6.63198">
        <ele>470.1</ele>
        <time>2024-10-31T15:05:13Z</time>
      </trkpt>
      <trkpt lat="48.13249" lon="6.63195">
        <ele>470.5</ele>
        <time>2024-10-31T15:05:21Z</time>
      </trkpt>
      <trkpt lat="48.13258" lon="6.63193">
        <ele>471</ele>
        <time>2024-10-31T15:05:30Z</time>
      </trkpt>
      <trkpt lat="48.13268" lon="6.63195">
        <ele>471.3</ele>
        <time>2024-10-31T15:05:39Z</time>
      </trkpt>
      <trkpt lat="48.13277" lon="6.63198">
        <ele>471.6</ele>
        <time>2024-10-31T15:05:47Z</time>
      </trkpt>
      <trkpt lat="48.13287" lon="6.63202">
        <ele>471.8</ele>
        <time>2024-10-31T15:05:56Z</time>
      </trkpt>
      <trkpt lat="48.13295" lon="6.63206">
        <ele>471.9</ele>
        <time>2024-10-31T15:06:03Z</time>
      </trkpt>
      <trkpt lat="48.13304" lon="6.63209">
        <ele>472</ele>
        <time>2024-10-31T15:06:11Z</time>
      </trkpt>
      <trkpt lat="48.13314" lon="6.6321">
        <ele>472</ele>
        <time>2024-10-31T15:06:23Z</time>
      </trkpt>
      <trkpt lat="48.13324" lon="6.63208">
        <ele>471.7</ele>
        <time>2024-10-31T15:06:31Z</time>
      </trkpt>
      <trkpt lat="48.13333" lon="6.63204">
        <ele>471.3</ele>
        <time>2024-10-31T15:06:39Z</time>
      </trkpt>
      <trkpt lat="48.13343" lon="6.63199">
        <ele>470.9</ele>
        <time>2024-10-31T15:06:47Z</time>
      </trkpt>
      <trkpt lat="48.13352" lon="6.63192">
        <ele>470.5</ele>
        <time>2024-10-31T15:06:53Z</time>
      </trkpt>
      <trkpt lat="48.13361" lon="6.63193">
        <ele>470</ele>
        <time>2024-10-31T15:07:02Z</time>
      </trkpt>
      <trkpt lat="48.1337" lon="6.63198">
        <ele>469.5</ele>
        <time>2024-10-31T15:07:11Z</time>
      </trkpt>
      <trkpt lat="48.1338" lon="6.63201">
        <ele>469</ele>
        <time>2024-10-31T15:07:20Z</time>
      </trkpt>
      <trkpt lat="48.13389" lon="6.63203">
        <ele>468.6</ele>
        <time>2024-10-31T15:07:29Z</time>
      </trkpt>
      <trkpt lat="48.13398" lon="6.63205">
        <ele>468.3</ele>
        <time>2024-10-31T15:07:39Z</time>
      </trkpt>
      <trkpt lat="48.13408" lon="6.63206">
        <ele>467.9</ele>
        <time>2024-10-31T15:07:48Z</time>
      </trkpt>
      <trkpt lat="48.13417" lon="6.63203">
        <ele>467.6</ele>
        <time>2024-10-31T15:07:55Z</time>
      </trkpt>
      <trkpt lat="48.13426" lon="6.63203">
        <ele>467.3</ele>
        <time>2024-10-31T15:08:02Z</time>
      </trkpt>
      <trkpt lat="48.13436" lon="6.63199">
        <ele>466.9</ele>
        <time>2024-10-31T15:08:10Z</time>
      </trkpt>
      <trkpt lat="48.13445" lon="6.63198">
        <ele>466.5</ele>
        <time>2024-10-31T15:08:17Z</time>
      </trkpt>
      <trkpt lat="48.13454" lon="6.63202">
        <ele>466.1</ele>
        <time>2024-10-31T15:08:24Z</time>
      </trkpt>
      <trkpt lat="48.13464" lon="6.63204">
        <ele>465.7</ele>
        <time>2024-10-31T15:08:33Z</time>
      </trkpt>
      <trkpt lat="48.13473" lon="6.63209">
        <ele>465.4</ele>
        <time>2024-10-31T15:08:41Z</time>
      </trkpt>
      <trkpt lat="48.13483" lon="6.63213">
        <ele>465.1</ele>
        <time>2024-10-31T15:08:49Z</time>
      </trkpt>
      <trkpt lat="48.13492" lon="6.63217">
        <ele>464.8</ele>
        <time>2024-10-31T15:09:01Z</time>
      </trkpt>
      <trkpt lat="48.13501" lon="6.63221">
        <ele>464.3</ele>
        <time>2024-10-31T15:09:08Z</time>
      </trkpt>
      <trkpt lat="48.13509" lon="6.63228">
        <ele>463.7</ele>
        <time>2024-10-31T15:09:17Z</time>
      </trkpt>
      <trkpt lat="48.13518" lon="6.6323">
        <ele>463</ele>
        <time>2024-10-31T15:09:25Z</time>
      </trkpt>
      <trkpt lat="48.13527" lon="6.63231">
        <ele>462.4</ele>
        <time>2024-10-31T15:09:33Z</time>
      </trkpt>
      <trkpt lat="48.13537" lon="6.63228">
        <ele>461.8</ele>
        <time>2024-10-31T15:09:40Z</time>
      </trkpt>
      <trkpt lat="48.13547" lon="6.63228">
        <ele>461.5</ele>
        <time>2024-10-31T15:09:48Z</time>
      </trkpt>
      <trkpt lat="48.13556" lon="6.63229">
        <ele>461.3</ele>
        <time>2024-10-31T15:09:56Z</time>
      </trkpt>
      <trkpt lat="48.13565" lon="6.63235">
        <ele>461.1</ele>
        <time>2024-10-31T15:10:09Z</time>
      </trkpt>
      <trkpt lat="48.13574" lon="6.63234">
        <ele>461.1</ele>
        <time>2024-10-31T15:10:15Z</time>
      </trkpt>
      <trkpt lat="48.13584" lon="6.63236">
        <ele>461.1</ele>
        <time>2024-10-31T15:10:23Z</time>
      </trkpt>
      <trkpt lat="48.13593" lon="6.63239">
        <ele>461.1</ele>
        <time>2024-10-31T15:10:32Z</time>
      </trkpt>
      <trkpt lat="48.13602" lon="6.63242">
        <ele>461.1</ele>
        <time>2024-10-31T15:10:38Z</time>
      </trkpt>
      <trkpt lat="48.13611" lon="6.63247">
        <ele>461.1</ele>
        <time>2024-10-31T15:10:44Z</time>
      </trkpt>
      <trkpt lat="48.13619" lon="6.63255">
        <ele>461</ele>
        <time>2024-10-31T15:10:53Z</time>
      </trkpt>
      <trkpt lat="48.13628" lon="6.63259">
        <ele>460.8</ele>
        <time>2024-10-31T15:11:02Z</time>
      </trkpt>
      <trkpt lat="48.13637" lon="6.63268">
        <ele>460.6</ele>
        <time>2024-10-31T15:11:12Z</time>
      </trkpt>
      <trkpt lat="48.13646" lon="6.63269">
        <ele>460.5</ele>
        <time>2024-10-31T15:11:18Z</time>
      </trkpt>
      <trkpt lat="48.13656" lon="6.63271">
        <ele>460.4</ele>
        <time>2024-10-31T15:11:25Z</time>
      </trkpt>
      <trkpt lat="48.13665" lon="6.63273">
        <ele>460.5</ele>
        <time>2024-10-31T15:11:32Z</time>
      </trkpt>
      <trkpt lat="48.13675" lon="6.63277">
        <ele>460.5</ele>
        <time>2024-10-31T15:11:43Z</time>
      </trkpt>
      <trkpt lat="48.13685" lon="6.63279">
        <ele>460.5</ele>
        <time>2024-10-31T15:11:51Z</time>
      </trkpt>
      <trkpt lat="48.13695" lon="6.63279">
        <ele>460.4</ele>
        <time>2024-10-31T15:11:58Z</time>
      </trkpt>
      <trkpt lat="48.13701" lon="6.63279">
        <ele>460.4</ele>
        <time>2024-10-31T15:12:10Z</time>
      </trkpt>
      <trkpt lat="48.13701" lon="6.63279">
        <ele>460.4</ele>
        <time>2024-10-31T15:12:11Z</time>
      </trkpt>
      <trkpt lat="48.13701" lon="6.63279">
        <ele>460.4</ele>
        <time>2024-10-31T15:12:12Z</time>
      </trkpt>
      <trkpt lat="48.13703" lon="6.63277">
        <ele>460.3</ele>
        <time>2024-10-31T15:12:18Z</time>
      </trkpt>
      <trkpt lat="48.13705" lon="6.63277">
        <ele>460.3</ele>
        <time>2024-10-31T15:12:19Z</time>
      </trkpt>
      <trkpt lat="48.13714" lon="6.63273">
        <ele>460</ele>
        <time>2024-10-31T15:12:25Z</time>
      </trkpt>
      <trkpt lat="48.13723" lon="6.63268">
        <ele>459.5</ele>
        <time>2024-10-31T15:12:33Z</time>
      </trkpt>
      <trkpt lat="48.13732" lon="6.63261">
        <ele>458.9</ele>
        <time>2024-10-31T15:12:40Z</time>
      </trkpt>
      <trkpt lat="48.13739" lon="6.63252">
        <ele>458.2</ele>
        <time>2024-10-31T15:12:45Z</time>
      </trkpt>
      <trkpt lat="48.13743" lon="6.6324">
        <ele>457.5</ele>
        <time>2024-10-31T15:12:51Z</time>
      </trkpt>
      <trkpt lat="48.13745" lon="6.63225">
        <ele>456.9</ele>
        <time>2024-10-31T15:12:59Z</time>
      </trkpt>
      <trkpt lat="48.13747" lon="6.63211">
        <ele>456.4</ele>
        <time>2024-10-31T15:13:08Z</time>
      </trkpt>
      <trkpt lat="48.13748" lon="6.63197">
        <ele>456</ele>
        <time>2024-10-31T15:13:17Z</time>
      </trkpt>
      <trkpt lat="48.13748" lon="6.63182">
        <ele>455.8</ele>
        <time>2024-10-31T15:13:25Z</time>
      </trkpt>
      <trkpt lat="48.13752" lon="6.63169">
        <ele>455.6</ele>
        <time>2024-10-31T15:13:32Z</time>
      </trkpt>
      <trkpt lat="48.13756" lon="6.63156">
        <ele>455.6</ele>
        <time>2024-10-31T15:13:42Z</time>
      </trkpt>
      <trkpt lat="48.13761" lon="6.63144">
        <ele>455.6</ele>
        <time>2024-10-31T15:13:48Z</time>
      </trkpt>
      <trkpt lat="48.13766" lon="6.63132">
        <ele>455.7</ele>
        <time>2024-10-31T15:13:56Z</time>
      </trkpt>
      <trkpt lat="48.13771" lon="6.63119">
        <ele>455.8</ele>
        <time>2024-10-31T15:14:05Z</time>
      </trkpt>
      <trkpt lat="48.13778" lon="6.63108">
        <ele>455.9</ele>
        <time>2024-10-31T15:14:14Z</time>
      </trkpt>
      <trkpt lat="48.13784" lon="6.63096">
        <ele>456</ele>
        <time>2024-10-31T15:14:22Z</time>
      </trkpt>
      <trkpt lat="48.13787" lon="6.63082">
        <ele>456.2</ele>
        <time>2024-10-31T15:14:30Z</time>
      </trkpt>
      <trkpt lat="48.13793" lon="6.63071">
        <ele>456.3</ele>
        <time>2024-10-31T15:14:38Z</time>
      </trkpt>
      <trkpt lat="48.13799" lon="6.6306">
        <ele>456.5</ele>
        <time>2024-10-31T15:14:45Z</time>
      </trkpt>
      <trkpt lat="48.13804" lon="6.63048">
        <ele>456.5</ele>
        <time>2024-10-31T15:14:54Z</time>
      </trkpt>
      <trkpt lat="48.13806" lon="6.63034">
        <ele>456.5</ele>
        <time>2024-10-31T15:15:01Z</time>
      </trkpt>
      <trkpt lat="48.13811" lon="6.63021">
        <ele>456.3</ele>
        <time>2024-10-31T15:15:09Z</time>
      </trkpt>
      <trkpt lat="48.13814" lon="6.63008">
        <ele>456</ele>
        <time>2024-10-31T15:15:18Z</time>
      </trkpt>
      <trkpt lat="48.13815" lon="6.62993">
        <ele>455.7</ele>
        <time>2024-10-31T15:15:27Z</time>
      </trkpt>
      <trkpt lat="48.13815" lon="6.62978">
        <ele>455.4</ele>
        <time>2024-10-31T15:15:36Z</time>
      </trkpt>
      <trkpt lat="48.13816" lon="6.62963">
        <ele>455.1</ele>
        <time>2024-10-31T15:15:46Z</time>
      </trkpt>
      <trkpt lat="48.13815" lon="6.6295">
        <ele>455</ele>
        <time>2024-10-31T15:15:54Z</time>
      </trkpt>
      <trkpt lat="48.13817" lon="6.62936">
        <ele>454.9</ele>
        <time>2024-10-31T15:16:02Z</time>
      </trkpt>
      <trkpt lat="48.13817" lon="6.62922">
        <ele>454.9</ele>
        <time>2024-10-31T15:16:08Z</time>
      </trkpt>
      <trkpt lat="48.13816" lon="6.62908">
        <ele>454.9</ele>
        <time>2024-10-31T15:16:16Z</time>
      </trkpt>
      <trkpt lat="48.13816" lon="6.62893">
        <ele>455.1</ele>
        <time>2024-10-31T15:16:25Z</time>
      </trkpt>
      <trkpt lat="48.13813" lon="6.62879">
        <ele>455.2</ele>
        <time>2024-10-31T15:16:34Z</time>
      </trkpt>
      <trkpt lat="48.13812" lon="6.62864">
        <ele>455.2</ele>
        <time>2024-10-31T15:16:42Z</time>
      </trkpt>
      <trkpt lat="48.13809" lon="6.62851">
        <ele>455.2</ele>
        <time>2024-10-31T15:16:49Z</time>
      </trkpt>
      <trkpt lat="48.13808" lon="6.62837">
        <ele>455</ele>
        <time>2024-10-31T15:16:57Z</time>
      </trkpt>
      <trkpt lat="48.13807" lon="6.62823">
        <ele>454.9</ele>
        <time>2024-10-31T15:17:05Z</time>
      </trkpt>
      <trkpt lat="48.13806" lon="6.62809">
        <ele>454.6</ele>
        <time>2024-10-31T15:17:12Z</time>
      </trkpt>
      <trkpt lat="48.13804" lon="6.62795">
        <ele>454.4</ele>
        <time>2024-10-31T15:17:20Z</time>
      </trkpt>
      <trkpt lat="48.13803" lon="6.6278">
        <ele>454.2</ele>
        <time>2024-10-31T15:17:30Z</time>
      </trkpt>
      <trkpt lat="48.13802" lon="6.62767">
        <ele>453.9</ele>
        <time>2024-10-31T15:17:39Z</time>
      </trkpt>
      <trkpt lat="48.13801" lon="6.62753">
        <ele>453.8</ele>
        <time>2024-10-31T15:17:47Z</time>
      </trkpt>
      <trkpt lat="48.13802" lon="6.62738">
        <ele>453.6</ele>
        <time>2024-10-31T15:17:57Z</time>
      </trkpt>
      <trkpt lat="48.13804" lon="6.62723">
        <ele>453.4</ele>
        <time>2024-10-31T15:18:05Z</time>
      </trkpt>
      <trkpt lat="48.13806" lon="6.6271">
        <ele>453.1</ele>
        <time>2024-10-31T15:18:12Z</time>
      </trkpt>
      <trkpt lat="48.13805" lon="6.62696">
        <ele>452.8</ele>
        <time>2024-10-31T15:18:20Z</time>
      </trkpt>
      <trkpt lat="48.13804" lon="6.62682">
        <ele>452.5</ele>
        <time>2024-10-31T15:18:28Z</time>
      </trkpt>
      <trkpt lat="48.13804" lon="6.62667">
        <ele>452.3</ele>
        <time>2024-10-31T15:18:37Z</time>
      </trkpt>
      <trkpt lat="48.13806" lon="6.62653">
        <ele>452</ele>
        <time>2024-10-31T15:18:46Z</time>
      </trkpt>
      <trkpt lat="48.13808" lon="6.62639">
        <ele>451.7</ele>
        <time>2024-10-31T15:18:54Z</time>
      </trkpt>
      <trkpt lat="48.13813" lon="6.62626">
        <ele>451.5</ele>
        <time>2024-10-31T15:19:01Z</time>
      </trkpt>
      <trkpt lat="48.13817" lon="6.62613">
        <ele>451.2</ele>
        <time>2024-10-31T15:19:10Z</time>
      </trkpt>
      <trkpt lat="48.13813" lon="6.62601">
        <ele>450.8</ele>
        <time>2024-10-31T15:19:27Z</time>
      </trkpt>
      <trkpt lat="48.13811" lon="6.626">
        <ele>450.7</ele>
        <time>2024-10-31T15:19:37Z</time>
      </trkpt>
      <trkpt lat="48.13811" lon="6.626">
        <ele>450.7</ele>
        <time>2024-10-31T15:19:38Z</time>
      </trkpt>
      <trkpt lat="48.13811" lon="6.626">
        <ele>450.7</ele>
        <time>2024-10-31T15:20:35Z</time>
      </trkpt>
      <trkpt lat="48.13811" lon="6.62599">
        <ele>450.7</ele>
        <time>2024-10-31T15:20:36Z</time>
      </trkpt>
      <trkpt lat="48.13812" lon="6.62599">
        <ele>450.6</ele>
        <time>2024-10-31T15:20:37Z</time>
      </trkpt>
      <trkpt lat="48.13821" lon="6.62599">
        <ele>449.4</ele>
        <time>2024-10-31T15:20:44Z</time>
      </trkpt>
      <trkpt lat="48.13831" lon="6.62602">
        <ele>448.1</ele>
        <time>2024-10-31T15:20:52Z</time>
      </trkpt>
      <trkpt lat="48.1384" lon="6.62605">
        <ele>446.8</ele>
        <time>2024-10-31T15:21:03Z</time>
      </trkpt>
      <trkpt lat="48.1385" lon="6.62604">
        <ele>445.6</ele>
        <time>2024-10-31T15:21:11Z</time>
      </trkpt>
      <trkpt lat="48.13859" lon="6.62602">
        <ele>444.6</ele>
        <time>2024-10-31T15:21:19Z</time>
      </trkpt>
      <trkpt lat="48.13868" lon="6.62596">
        <ele>443.6</ele>
        <time>2024-10-31T15:21:25Z</time>
      </trkpt>
      <trkpt lat="48.13877" lon="6.62591">
        <ele>442.8</ele>
        <time>2024-10-31T15:21:30Z</time>
      </trkpt>
      <trkpt lat="48.13886" lon="6.62586">
        <ele>442.1</ele>
        <time>2024-10-31T15:21:37Z</time>
      </trkpt>
      <trkpt lat="48.13893" lon="6.62577">
        <ele>441.5</ele>
        <time>2024-10-31T15:21:43Z</time>
      </trkpt>
      <trkpt lat="48.13901" lon="6.62568">
        <ele>440.9</ele>
        <time>2024-10-31T15:21:48Z</time>
      </trkpt>
      <trkpt lat="48.13907" lon="6.62557">
        <ele>440.3</ele>
        <time>2024-10-31T15:21:54Z</time>
      </trkpt>
      <trkpt lat="48.13914" lon="6.62547">
        <ele>439.5</ele>
        <time>2024-10-31T15:22:03Z</time>
      </trkpt>
      <trkpt lat="48.13923" lon="6.62542">
        <ele>438.6</ele>
        <time>2024-10-31T15:22:18Z</time>
      </trkpt>
      <trkpt lat="48.13932" lon="6.62541">
        <ele>437.6</ele>
        <time>2024-10-31T15:22:30Z</time>
      </trkpt>
      <trkpt lat="48.13941" lon="6.62539">
        <ele>436.4</ele>
        <time>2024-10-31T15:22:38Z</time>
      </trkpt>
      <trkpt lat="48.1395" lon="6.62534">
        <ele>435.1</ele>
        <time>2024-10-31T15:22:46Z</time>
      </trkpt>
      <trkpt lat="48.13959" lon="6.62527">
        <ele>433.7</ele>
        <time>2024-10-31T15:22:53Z</time>
      </trkpt>
      <trkpt lat="48.13967" lon="6.6252">
        <ele>432.4</ele>
        <time>2024-10-31T15:23:00Z</time>
      </trkpt>
      <trkpt lat="48.13977" lon="6.62517">
        <ele>431</ele>
        <time>2024-10-31T15:23:08Z</time>
      </trkpt>
      <trkpt lat="48.13986" lon="6.62512">
        <ele>429.8</ele>
        <time>2024-10-31T15:23:14Z</time>
      </trkpt>
      <trkpt lat="48.13996" lon="6.62509">
        <ele>428.9</ele>
        <time>2024-10-31T15:23:21Z</time>
      </trkpt>
      <trkpt lat="48.14004" lon="6.62501">
        <ele>428.1</ele>
        <time>2024-10-31T15:23:30Z</time>
      </trkpt>
      <trkpt lat="48.14013" lon="6.62495">
        <ele>427.5</ele>
        <time>2024-10-31T15:23:36Z</time>
      </trkpt>
      <trkpt lat="48.14022" lon="6.6249">
        <ele>427</ele>
        <time>2024-10-31T15:23:43Z</time>
      </trkpt>
      <trkpt lat="48.1403" lon="6.62481">
        <ele>426.5</ele>
        <time>2024-10-31T15:23:49Z</time>
      </trkpt>
      <trkpt lat="48.14037" lon="6.62472">
        <ele>426</ele>
        <time>2024-10-31T15:23:55Z</time>
      </trkpt>
      <trkpt lat="48.14045" lon="6.62465">
        <ele>425.4</ele>
        <time>2024-10-31T15:24:01Z</time>
      </trkpt>
      <trkpt lat="48.14055" lon="6.62463">
        <ele>424.7</ele>
        <time>2024-10-31T15:24:12Z</time>
      </trkpt>
      <trkpt lat="48.14064" lon="6.62466">
        <ele>424</ele>
        <time>2024-10-31T15:24:21Z</time>
      </trkpt>
      <trkpt lat="48.14071" lon="6.62457">
        <ele>423.4</ele>
        <time>2024-10-31T15:24:26Z</time>
      </trkpt>
      <trkpt lat="48.14077" lon="6.62445">
        <ele>422.8</ele>
        <time>2024-10-31T15:24:33Z</time>
      </trkpt>
      <trkpt lat="48.14083" lon="6.62433">
        <ele>422.5</ele>
        <time>2024-10-31T15:24:40Z</time>
      </trkpt>
      <trkpt lat="48.14089" lon="6.62424">
        <ele>422.2</ele>
        <time>2024-10-31T15:24:49Z</time>
      </trkpt>
      <trkpt lat="48.14087" lon="6.6241">
        <ele>422.1</ele>
        <time>2024-10-31T15:24:55Z</time>
      </trkpt>
      <trkpt lat="48.14095" lon="6.62401">
        <ele>422</ele>
        <time>2024-10-31T15:25:04Z</time>
      </trkpt>
      <trkpt lat="48.141" lon="6.62389">
        <ele>422</ele>
        <time>2024-10-31T15:25:11Z</time>
      </trkpt>
      <trkpt lat="48.141" lon="6.62374">
        <ele>421.8</ele>
        <time>2024-10-31T15:25:20Z</time>
      </trkpt>
      <trkpt lat="48.14104" lon="6.62362">
        <ele>421.6</ele>
        <time>2024-10-31T15:25:30Z</time>
      </trkpt>
      <trkpt lat="48.1411" lon="6.62351">
        <ele>421.2</ele>
        <time>2024-10-31T15:25:36Z</time>
      </trkpt>
      <trkpt lat="48.14117" lon="6.62341">
        <ele>420.6</ele>
        <time>2024-10-31T15:25:42Z</time>
      </trkpt>
      <trkpt lat="48.14122" lon="6.62329">
        <ele>419.8</ele>
        <time>2024-10-31T15:25:50Z</time>
      </trkpt>
      <trkpt lat="48.14129" lon="6.6232">
        <ele>418.9</ele>
        <time>2024-10-31T15:25:57Z</time>
      </trkpt>
      <trkpt lat="48.14137" lon="6.62312">
        <ele>417.7</ele>
        <time>2024-10-31T15:26:06Z</time>
      </trkpt>
      <trkpt lat="48.14146" lon="6.62316">
        <ele>416.2</ele>
        <time>2024-10-31T15:26:19Z</time>
      </trkpt>
      <trkpt lat="48.14156" lon="6.62313">
        <ele>414.6</ele>
        <time>2024-10-31T15:26:31Z</time>
      </trkpt>
      <trkpt lat="48.14165" lon="6.62311">
        <ele>413.1</ele>
        <time>2024-10-31T15:26:39Z</time>
      </trkpt>
      <trkpt lat="48.14174" lon="6.62306">
        <ele>411.6</ele>
        <time>2024-10-31T15:26:48Z</time>
      </trkpt>
      <trkpt lat="48.14183" lon="6.62303">
        <ele>410.2</ele>
        <time>2024-10-31T15:26:54Z</time>
      </trkpt>
      <trkpt lat="48.14192" lon="6.62296">
        <ele>408.7</ele>
        <time>2024-10-31T15:26:59Z</time>
      </trkpt>
      <trkpt lat="48.14199" lon="6.62285">
        <ele>406.8</ele>
        <time>2024-10-31T15:27:04Z</time>
      </trkpt>
      <trkpt lat="48.14206" lon="6.62275">
        <ele>405.1</ele>
        <time>2024-10-31T15:27:11Z</time>
      </trkpt>
      <trkpt lat="48.14213" lon="6.62267">
        <ele>403.2</ele>
        <time>2024-10-31T15:27:20Z</time>
      </trkpt>
      <trkpt lat="48.14223" lon="6.6226">
        <ele>401.2</ele>
        <time>2024-10-31T15:27:30Z</time>
      </trkpt>
      <trkpt lat="48.1423" lon="6.62251">
        <ele>399.6</ele>
        <time>2024-10-31T15:27:37Z</time>
      </trkpt>
      <trkpt lat="48.14238" lon="6.62241">
        <ele>398.1</ele>
        <time>2024-10-31T15:27:45Z</time>
      </trkpt>
      <trkpt lat="48.14245" lon="6.62231">
        <ele>396.8</ele>
        <time>2024-10-31T15:27:57Z</time>
      </trkpt>
      <trkpt lat="48.14252" lon="6.62223">
        <ele>395.7</ele>
        <time>2024-10-31T15:28:04Z</time>
      </trkpt>
      <trkpt lat="48.14261" lon="6.62215">
        <ele>394.5</ele>
        <time>2024-10-31T15:28:11Z</time>
      </trkpt>
      <trkpt lat="48.14269" lon="6.62207">
        <ele>393.3</ele>
        <time>2024-10-31T15:28:20Z</time>
      </trkpt>
      <trkpt lat="48.14277" lon="6.62198">
        <ele>392</ele>
        <time>2024-10-31T15:28:30Z</time>
      </trkpt>
      <trkpt lat="48.14284" lon="6.62188">
        <ele>390.5</ele>
        <time>2024-10-31T15:28:41Z</time>
      </trkpt>
      <trkpt lat="48.14291" lon="6.62177">
        <ele>389.1</ele>
        <time>2024-10-31T15:28:51Z</time>
      </trkpt>
      <trkpt lat="48.14301" lon="6.62175">
        <ele>388.2</ele>
        <time>2024-10-31T15:29:00Z</time>
      </trkpt>
      <trkpt lat="48.14311" lon="6.62175">
        <ele>387.4</ele>
        <time>2024-10-31T15:29:08Z</time>
      </trkpt>
      <trkpt lat="48.14321" lon="6.62175">
        <ele>386.7</ele>
        <time>2024-10-31T15:29:17Z</time>
      </trkpt>
      <trkpt lat="48.1433" lon="6.62174">
        <ele>386.3</ele>
        <time>2024-10-31T15:29:25Z</time>
      </trkpt>
      <trkpt lat="48.14339" lon="6.62173">
        <ele>386</ele>
        <time>2024-10-31T15:29:32Z</time>
      </trkpt>
      <trkpt lat="48.14349" lon="6.62174">
        <ele>385.4</ele>
        <time>2024-10-31T15:29:40Z</time>
      </trkpt>
      <trkpt lat="48.14358" lon="6.62173">
        <ele>384.9</ele>
        <time>2024-10-31T15:29:48Z</time>
      </trkpt>
      <trkpt lat="48.14368" lon="6.62173">
        <ele>384.3</ele>
        <time>2024-10-31T15:29:56Z</time>
      </trkpt>
      <trkpt lat="48.14377" lon="6.62171">
        <ele>383.7</ele>
        <time>2024-10-31T15:30:04Z</time>
      </trkpt>
      <trkpt lat="48.14387" lon="6.62168">
        <ele>383.2</ele>
        <time>2024-10-31T15:30:12Z</time>
      </trkpt>
      <trkpt lat="48.14396" lon="6.62164">
        <ele>382.8</ele>
        <time>2024-10-31T15:30:19Z</time>
      </trkpt>
      <trkpt lat="48.14406" lon="6.62163">
        <ele>382.6</ele>
        <time>2024-10-31T15:30:27Z</time>
      </trkpt>
      <trkpt lat="48.14416" lon="6.6216">
        <ele>382.5</ele>
        <time>2024-10-31T15:30:35Z</time>
      </trkpt>
      <trkpt lat="48.14426" lon="6.62155">
        <ele>382.4</ele>
        <time>2024-10-31T15:30:42Z</time>
      </trkpt>
      <trkpt lat="48.14436" lon="6.62156">
        <ele>382.3</ele>
        <time>2024-10-31T15:30:50Z</time>
      </trkpt>
      <trkpt lat="48.14444" lon="6.62164">
        <ele>382.3</ele>
        <time>2024-10-31T15:30:59Z</time>
      </trkpt>
      <trkpt lat="48.14446" lon="6.62165">
        <ele>382.2</ele>
        <time>2024-10-31T15:31:07Z</time>
      </trkpt>
      <trkpt lat="48.14446" lon="6.62165">
        <ele>382.2</ele>
        <time>2024-10-31T15:31:08Z</time>
      </trkpt>
      <trkpt lat="48.14446" lon="6.62165">
        <ele>382.2</ele>
        <time>2024-10-31T15:31:09Z</time>
      </trkpt>
      <trkpt lat="48.14449" lon="6.62162">
        <ele>382.2</ele>
        <time>2024-10-31T15:31:24Z</time>
      </trkpt>
      <trkpt lat="48.14449" lon="6.62162">
        <ele>382.2</ele>
        <time>2024-10-31T15:31:25Z</time>
      </trkpt>
      <trkpt lat="48.1445" lon="6.62161">
        <ele>382.2</ele>
        <time>2024-10-31T15:31:26Z</time>
      </trkpt>
      <trkpt lat="48.14458" lon="6.62154">
        <ele>382</ele>
        <time>2024-10-31T15:31:34Z</time>
      </trkpt>
      <trkpt lat="48.14467" lon="6.62147">
        <ele>381.8</ele>
        <time>2024-10-31T15:31:43Z</time>
      </trkpt>
      <trkpt lat="48.14474" lon="6.62137">
        <ele>381.6</ele>
        <time>2024-10-31T15:31:49Z</time>
      </trkpt>
      <trkpt lat="48.14479" lon="6.62125">
        <ele>381.5</ele>
        <time>2024-10-31T15:31:56Z</time>
      </trkpt>
      <trkpt lat="48.14486" lon="6.62116">
        <ele>381.4</ele>
        <time>2024-10-31T15:32:02Z</time>
      </trkpt>
      <trkpt lat="48.14489" lon="6.62103">
        <ele>381.2</ele>
        <time>2024-10-31T15:32:09Z</time>
      </trkpt>
      <trkpt lat="48.14497" lon="6.62096">
        <ele>381.1</ele>
        <time>2024-10-31T15:32:16Z</time>
      </trkpt>
      <trkpt lat="48.14502" lon="6.62083">
        <ele>380.9</ele>
        <time>2024-10-31T15:32:24Z</time>
      </trkpt>
      <trkpt lat="48.14509" lon="6.62072">
        <ele>380.7</ele>
        <time>2024-10-31T15:32:32Z</time>
      </trkpt>
      <trkpt lat="48.14514" lon="6.6206">
        <ele>380.6</ele>
        <time>2024-10-31T15:32:40Z</time>
      </trkpt>
      <trkpt lat="48.14519" lon="6.62048">
        <ele>380.4</ele>
        <time>2024-10-31T15:32:47Z</time>
      </trkpt>
      <trkpt lat="48.14525" lon="6.62036">
        <ele>380.3</ele>
        <time>2024-10-31T15:32:55Z</time>
      </trkpt>
      <trkpt lat="48.14532" lon="6.62026">
        <ele>380.3</ele>
        <time>2024-10-31T15:33:03Z</time>
      </trkpt>
      <trkpt lat="48.14538" lon="6.62014">
        <ele>380.2</ele>
        <time>2024-10-31T15:33:12Z</time>
      </trkpt>
      <trkpt lat="48.14545" lon="6.62004">
        <ele>380.1</ele>
        <time>2024-10-31T15:33:21Z</time>
      </trkpt>
      <trkpt lat="48.14553" lon="6.61995">
        <ele>380</ele>
        <time>2024-10-31T15:33:29Z</time>
      </trkpt>
      <trkpt lat="48.14559" lon="6.61984">
        <ele>379.9</ele>
        <time>2024-10-31T15:33:37Z</time>
      </trkpt>
      <trkpt lat="48.14568" lon="6.61979">
        <ele>379.8</ele>
        <time>2024-10-31T15:33:44Z</time>
      </trkpt>
      <trkpt lat="48.14572" lon="6.61966">
        <ele>379.7</ele>
        <time>2024-10-31T15:33:52Z</time>
      </trkpt>
      <trkpt lat="48.14577" lon="6.61955">
        <ele>379.6</ele>
        <time>2024-10-31T15:33:59Z</time>
      </trkpt>
      <trkpt lat="48.14583" lon="6.61942">
        <ele>379.5</ele>
        <time>2024-10-31T15:34:06Z</time>
      </trkpt>
      <trkpt lat="48.14588" lon="6.6193">
        <ele>379.5</ele>
        <time>2024-10-31T15:34:14Z</time>
      </trkpt>
      <trkpt lat="48.14594" lon="6.61919">
        <ele>379.4</ele>
        <time>2024-10-31T15:34:23Z</time>
      </trkpt>
      <trkpt lat="48.146" lon="6.61907">
        <ele>379.4</ele>
        <time>2024-10-31T15:34:31Z</time>
      </trkpt>
      <trkpt lat="48.14606" lon="6.61895">
        <ele>379.5</ele>
        <time>2024-10-31T15:34:40Z</time>
      </trkpt>
      <trkpt lat="48.14612" lon="6.61884">
        <ele>379.5</ele>
        <time>2024-10-31T15:34:48Z</time>
      </trkpt>
      <trkpt lat="48.1462" lon="6.61865">
        <ele>379.7</ele>
        <time>2024-10-31T15:34:56Z</time>
      </trkpt>
      <trkpt lat="48.14623" lon="6.61858">
        <ele>379.3</ele>
        <time>2024-10-31T15:35:04Z</time>
      </trkpt>
      <trkpt lat="48.14627" lon="6.61851">
        <ele>378.9</ele>
        <time>2024-10-31T15:35:12Z</time>
      </trkpt>
      <trkpt lat="48.1463" lon="6.61844">
        <ele>378.5</ele>
        <time>2024-10-31T15:35:20Z</time>
      </trkpt>
      <trkpt lat="48.14633" lon="6.61837">
        <ele>378.1</ele>
        <time>2024-10-31T15:35:27Z</time>
      </trkpt>
      <trkpt lat="48.14636" lon="6.61829">
        <ele>377.9</ele>
        <time>2024-10-31T15:35:31Z</time>
      </trkpt>
      <trkpt lat="48.14639" lon="6.61822">
        <ele>377.7</ele>
        <time>2024-10-31T15:35:31Z</time>
      </trkpt>
      <trkpt lat="48.14639" lon="6.61822">
        <ele>377.7</ele>
        <time>2024-10-31T15:35:31Z</time>
      </trkpt>
    </trkseg>
  </trk>
</gpx>